<?xml version="1.0" encoding="UTF-8" standalone="no" ?>
<gpx xmlns="http://www.topografix.com/GPX/1/1" xmlns:xsi="http://www.w3.org/2001/XMLSchema-instance" xsi:schemaLocation="http://www.topografix.com/GPX/1/1 http://www.topografix.com/GPX/1/1/gpx.xsd" version="1.1" creator="VisuGPX - https://www.visugpx.com">
  <metadata>
    <name>Bois d'Amont-le Noirmont-le Croue</name>
    <desc><![CDATA[Boucle Bois d'Amont, le Noirmont, le Croue.]]></desc>
  </metadata>
  <trk>
    <name><![CDATA[2024-02-02 09:15]]></name>
    <desc><![CDATA[<p>Heure de départ: 09:15 2 févr. 2024<br/>Heure d'arrivée: 18:19 2 févr. 2024<br/>Distance: 24,7 km (09:03)<br/>Temps déplacement: 06:31<br/>Vitesse moyenne: 2,72 km/h<br/>Vitesse moyenne mouv.: 3,79 km/h<br/>Vitesse Max.: 7,42 km/h<br/>Altitude minimale: 1060 m<br/>Altitude maximale: 1565 m<br/>Vitesse de montée: 648,6 m/h<br/>Vitesse de descente: -846,2 m/h<br/>Gain d'altitude: 3290 m<br/>Perte d'altitude: -3294 m<br/>Temps de montée: 05:04<br/>Temps de descente: 03:53<br/></p><hr align="center" width="480" style="height: 2px; width: 517px"/>]]></desc>
    <trkseg>
      <trkpt lat="46.54789" lon="6.14524">
        <ele>1078.9</ele>
        <time>2024-02-02T08:15:48Z</time>
      </trkpt>
      <trkpt lat="46.54787" lon="6.14537">
        <ele>1078</ele>
        <time>2024-02-02T08:27:53Z</time>
      </trkpt>
      <trkpt lat="46.54794" lon="6.14546">
        <ele>1077.9</ele>
        <time>2024-02-02T08:28:05Z</time>
      </trkpt>
      <trkpt lat="46.54792" lon="6.14533">
        <ele>1078.7</ele>
        <time>2024-02-02T08:29:01Z</time>
      </trkpt>
      <trkpt lat="46.54782" lon="6.14531">
        <ele>1078.1</ele>
        <time>2024-02-02T08:29:12Z</time>
      </trkpt>
      <trkpt lat="46.54776" lon="6.14521">
        <ele>1078.2</ele>
        <time>2024-02-02T08:30:00Z</time>
      </trkpt>
      <trkpt lat="46.5478" lon="6.14509">
        <ele>1078.8</ele>
        <time>2024-02-02T08:30:12Z</time>
      </trkpt>
      <trkpt lat="46.54784" lon="6.14497">
        <ele>1079.9</ele>
        <time>2024-02-02T08:30:20Z</time>
      </trkpt>
      <trkpt lat="46.5478" lon="6.1451">
        <ele>1078.8</ele>
        <time>2024-02-02T08:31:05Z</time>
      </trkpt>
      <trkpt lat="46.54785" lon="6.1452">
        <ele>1078.8</ele>
        <time>2024-02-02T08:32:30Z</time>
      </trkpt>
      <trkpt lat="46.54779" lon="6.14511">
        <ele>1078.7</ele>
        <time>2024-02-02T08:32:41Z</time>
      </trkpt>
      <trkpt lat="46.54782" lon="6.14498">
        <ele>1079.6</ele>
        <time>2024-02-02T08:32:49Z</time>
      </trkpt>
      <trkpt lat="46.54791" lon="6.14499">
        <ele>1080.2</ele>
        <time>2024-02-02T08:32:58Z</time>
      </trkpt>
      <trkpt lat="46.548" lon="6.14504">
        <ele>1080.4</ele>
        <time>2024-02-02T08:33:07Z</time>
      </trkpt>
      <trkpt lat="46.54807" lon="6.14514">
        <ele>1080.6</ele>
        <time>2024-02-02T08:33:16Z</time>
      </trkpt>
      <trkpt lat="46.54816" lon="6.14519">
        <ele>1080.7</ele>
        <time>2024-02-02T08:33:25Z</time>
      </trkpt>
      <trkpt lat="46.54825" lon="6.14526">
        <ele>1080.2</ele>
        <time>2024-02-02T08:33:35Z</time>
      </trkpt>
      <trkpt lat="46.54834" lon="6.14531">
        <ele>1079.8</ele>
        <time>2024-02-02T08:33:42Z</time>
      </trkpt>
      <trkpt lat="46.54843" lon="6.14535">
        <ele>1079.6</ele>
        <time>2024-02-02T08:33:49Z</time>
      </trkpt>
      <trkpt lat="46.54853" lon="6.14534">
        <ele>1079.9</ele>
        <time>2024-02-02T08:33:58Z</time>
      </trkpt>
      <trkpt lat="46.54861" lon="6.14529">
        <ele>1080.8</ele>
        <time>2024-02-02T08:34:11Z</time>
      </trkpt>
      <trkpt lat="46.5487" lon="6.14531">
        <ele>1080.9</ele>
        <time>2024-02-02T08:34:18Z</time>
      </trkpt>
      <trkpt lat="46.5488" lon="6.14536">
        <ele>1080.1</ele>
        <time>2024-02-02T08:34:27Z</time>
      </trkpt>
      <trkpt lat="46.54887" lon="6.14544">
        <ele>1078.4</ele>
        <time>2024-02-02T08:34:34Z</time>
      </trkpt>
      <trkpt lat="46.54894" lon="6.14553">
        <ele>1077.6</ele>
        <time>2024-02-02T08:34:41Z</time>
      </trkpt>
      <trkpt lat="46.54902" lon="6.1456">
        <ele>1077.1</ele>
        <time>2024-02-02T08:34:51Z</time>
      </trkpt>
      <trkpt lat="46.54908" lon="6.1457">
        <ele>1075.3</ele>
        <time>2024-02-02T08:34:58Z</time>
      </trkpt>
      <trkpt lat="46.54915" lon="6.1458">
        <ele>1073.8</ele>
        <time>2024-02-02T08:35:05Z</time>
      </trkpt>
      <trkpt lat="46.54922" lon="6.14588">
        <ele>1072.6</ele>
        <time>2024-02-02T08:35:13Z</time>
      </trkpt>
      <trkpt lat="46.54929" lon="6.14598">
        <ele>1070.7</ele>
        <time>2024-02-02T08:35:24Z</time>
      </trkpt>
      <trkpt lat="46.54936" lon="6.14606">
        <ele>1068.8</ele>
        <time>2024-02-02T08:35:33Z</time>
      </trkpt>
      <trkpt lat="46.54944" lon="6.14614">
        <ele>1067.3</ele>
        <time>2024-02-02T08:35:43Z</time>
      </trkpt>
      <trkpt lat="46.54945" lon="6.14628">
        <ele>1064.3</ele>
        <time>2024-02-02T08:35:54Z</time>
      </trkpt>
      <trkpt lat="46.54938" lon="6.14638">
        <ele>1061.8</ele>
        <time>2024-02-02T08:36:02Z</time>
      </trkpt>
      <trkpt lat="46.54933" lon="6.1465">
        <ele>1059.5</ele>
        <time>2024-02-02T08:36:11Z</time>
      </trkpt>
      <trkpt lat="46.54934" lon="6.14664">
        <ele>1057.4</ele>
        <time>2024-02-02T08:36:19Z</time>
      </trkpt>
      <trkpt lat="46.54933" lon="6.14678">
        <ele>1057</ele>
        <time>2024-02-02T08:36:29Z</time>
      </trkpt>
      <trkpt lat="46.54929" lon="6.14691">
        <ele>1057</ele>
        <time>2024-02-02T08:36:38Z</time>
      </trkpt>
      <trkpt lat="46.54919" lon="6.14693">
        <ele>1057</ele>
        <time>2024-02-02T08:36:46Z</time>
      </trkpt>
      <trkpt lat="46.5491" lon="6.14688">
        <ele>1056.6</ele>
        <time>2024-02-02T08:36:54Z</time>
      </trkpt>
      <trkpt lat="46.549" lon="6.14685">
        <ele>1056</ele>
        <time>2024-02-02T08:37:02Z</time>
      </trkpt>
      <trkpt lat="46.54891" lon="6.14681">
        <ele>1055.6</ele>
        <time>2024-02-02T08:37:11Z</time>
      </trkpt>
      <trkpt lat="46.54882" lon="6.14678">
        <ele>1055.9</ele>
        <time>2024-02-02T08:37:18Z</time>
      </trkpt>
      <trkpt lat="46.54872" lon="6.14674">
        <ele>1056.3</ele>
        <time>2024-02-02T08:37:25Z</time>
      </trkpt>
      <trkpt lat="46.54863" lon="6.14674">
        <ele>1056.7</ele>
        <time>2024-02-02T08:37:32Z</time>
      </trkpt>
      <trkpt lat="46.54853" lon="6.14672">
        <ele>1057.6</ele>
        <time>2024-02-02T08:37:40Z</time>
      </trkpt>
      <trkpt lat="46.54844" lon="6.1467">
        <ele>1058.7</ele>
        <time>2024-02-02T08:37:48Z</time>
      </trkpt>
      <trkpt lat="46.54835" lon="6.14669">
        <ele>1059.8</ele>
        <time>2024-02-02T08:37:56Z</time>
      </trkpt>
      <trkpt lat="46.54825" lon="6.14668">
        <ele>1060.5</ele>
        <time>2024-02-02T08:38:04Z</time>
      </trkpt>
      <trkpt lat="46.54816" lon="6.14667">
        <ele>1061.2</ele>
        <time>2024-02-02T08:38:11Z</time>
      </trkpt>
      <trkpt lat="46.54806" lon="6.14666">
        <ele>1062</ele>
        <time>2024-02-02T08:38:19Z</time>
      </trkpt>
      <trkpt lat="46.54797" lon="6.14663">
        <ele>1062.4</ele>
        <time>2024-02-02T08:38:26Z</time>
      </trkpt>
      <trkpt lat="46.54787" lon="6.14659">
        <ele>1062.9</ele>
        <time>2024-02-02T08:38:35Z</time>
      </trkpt>
      <trkpt lat="46.54778" lon="6.14655">
        <ele>1063.6</ele>
        <time>2024-02-02T08:38:43Z</time>
      </trkpt>
      <trkpt lat="46.54769" lon="6.14652">
        <ele>1064</ele>
        <time>2024-02-02T08:38:51Z</time>
      </trkpt>
      <trkpt lat="46.54761" lon="6.14645">
        <ele>1064.1</ele>
        <time>2024-02-02T08:38:59Z</time>
      </trkpt>
      <trkpt lat="46.54753" lon="6.14637">
        <ele>1063.5</ele>
        <time>2024-02-02T08:39:07Z</time>
      </trkpt>
      <trkpt lat="46.54744" lon="6.14631">
        <ele>1063</ele>
        <time>2024-02-02T08:39:15Z</time>
      </trkpt>
      <trkpt lat="46.54736" lon="6.14626">
        <ele>1062.2</ele>
        <time>2024-02-02T08:39:22Z</time>
      </trkpt>
      <trkpt lat="46.54727" lon="6.14621">
        <ele>1061</ele>
        <time>2024-02-02T08:39:29Z</time>
      </trkpt>
      <trkpt lat="46.54718" lon="6.14616">
        <ele>1059.6</ele>
        <time>2024-02-02T08:39:36Z</time>
      </trkpt>
      <trkpt lat="46.54709" lon="6.1461">
        <ele>1058.3</ele>
        <time>2024-02-02T08:39:43Z</time>
      </trkpt>
      <trkpt lat="46.547" lon="6.14603">
        <ele>1057.8</ele>
        <time>2024-02-02T08:39:51Z</time>
      </trkpt>
      <trkpt lat="46.54692" lon="6.14599">
        <ele>1057</ele>
        <time>2024-02-02T08:39:58Z</time>
      </trkpt>
      <trkpt lat="46.54683" lon="6.14593">
        <ele>1056.1</ele>
        <time>2024-02-02T08:40:05Z</time>
      </trkpt>
      <trkpt lat="46.54673" lon="6.14587">
        <ele>1055</ele>
        <time>2024-02-02T08:40:11Z</time>
      </trkpt>
      <trkpt lat="46.54664" lon="6.14581">
        <ele>1054.1</ele>
        <time>2024-02-02T08:40:19Z</time>
      </trkpt>
      <trkpt lat="46.54656" lon="6.14573">
        <ele>1054.5</ele>
        <time>2024-02-02T08:40:27Z</time>
      </trkpt>
      <trkpt lat="46.54649" lon="6.14564">
        <ele>1055.2</ele>
        <time>2024-02-02T08:40:34Z</time>
      </trkpt>
      <trkpt lat="46.54643" lon="6.14554">
        <ele>1056.2</ele>
        <time>2024-02-02T08:40:42Z</time>
      </trkpt>
      <trkpt lat="46.54635" lon="6.14546">
        <ele>1057.2</ele>
        <time>2024-02-02T08:40:51Z</time>
      </trkpt>
      <trkpt lat="46.54627" lon="6.14538">
        <ele>1058.1</ele>
        <time>2024-02-02T08:41:00Z</time>
      </trkpt>
      <trkpt lat="46.54617" lon="6.14532">
        <ele>1058.7</ele>
        <time>2024-02-02T08:41:09Z</time>
      </trkpt>
      <trkpt lat="46.54608" lon="6.14527">
        <ele>1059</ele>
        <time>2024-02-02T08:41:17Z</time>
      </trkpt>
      <trkpt lat="46.54599" lon="6.14524">
        <ele>1058.9</ele>
        <time>2024-02-02T08:41:24Z</time>
      </trkpt>
      <trkpt lat="46.5459" lon="6.1452">
        <ele>1058.8</ele>
        <time>2024-02-02T08:41:32Z</time>
      </trkpt>
      <trkpt lat="46.5458" lon="6.14516">
        <ele>1058.4</ele>
        <time>2024-02-02T08:41:40Z</time>
      </trkpt>
      <trkpt lat="46.54571" lon="6.14511">
        <ele>1057.6</ele>
        <time>2024-02-02T08:41:47Z</time>
      </trkpt>
      <trkpt lat="46.54562" lon="6.14505">
        <ele>1056.6</ele>
        <time>2024-02-02T08:41:56Z</time>
      </trkpt>
      <trkpt lat="46.54553" lon="6.14499">
        <ele>1055.8</ele>
        <time>2024-02-02T08:42:04Z</time>
      </trkpt>
      <trkpt lat="46.54544" lon="6.14492">
        <ele>1055.5</ele>
        <time>2024-02-02T08:42:12Z</time>
      </trkpt>
      <trkpt lat="46.54535" lon="6.14484">
        <ele>1054.9</ele>
        <time>2024-02-02T08:42:20Z</time>
      </trkpt>
      <trkpt lat="46.54529" lon="6.14475">
        <ele>1054</ele>
        <time>2024-02-02T08:42:27Z</time>
      </trkpt>
      <trkpt lat="46.54522" lon="6.14467">
        <ele>1054.2</ele>
        <time>2024-02-02T08:42:34Z</time>
      </trkpt>
      <trkpt lat="46.54515" lon="6.14456">
        <ele>1054.7</ele>
        <time>2024-02-02T08:42:42Z</time>
      </trkpt>
      <trkpt lat="46.5451" lon="6.14445">
        <ele>1054.6</ele>
        <time>2024-02-02T08:42:49Z</time>
      </trkpt>
      <trkpt lat="46.54502" lon="6.14437">
        <ele>1054</ele>
        <time>2024-02-02T08:42:56Z</time>
      </trkpt>
      <trkpt lat="46.54493" lon="6.14432">
        <ele>1053.9</ele>
        <time>2024-02-02T08:43:04Z</time>
      </trkpt>
      <trkpt lat="46.54484" lon="6.14428">
        <ele>1054.2</ele>
        <time>2024-02-02T08:43:12Z</time>
      </trkpt>
      <trkpt lat="46.54474" lon="6.14425">
        <ele>1054.4</ele>
        <time>2024-02-02T08:43:20Z</time>
      </trkpt>
      <trkpt lat="46.54466" lon="6.1442">
        <ele>1054.3</ele>
        <time>2024-02-02T08:43:28Z</time>
      </trkpt>
      <trkpt lat="46.54456" lon="6.14415">
        <ele>1054</ele>
        <time>2024-02-02T08:43:36Z</time>
      </trkpt>
      <trkpt lat="46.54448" lon="6.14408">
        <ele>1053.6</ele>
        <time>2024-02-02T08:43:43Z</time>
      </trkpt>
      <trkpt lat="46.5444" lon="6.144">
        <ele>1053.4</ele>
        <time>2024-02-02T08:43:50Z</time>
      </trkpt>
      <trkpt lat="46.54433" lon="6.14391">
        <ele>1053.1</ele>
        <time>2024-02-02T08:43:58Z</time>
      </trkpt>
      <trkpt lat="46.54425" lon="6.14383">
        <ele>1053.3</ele>
        <time>2024-02-02T08:44:05Z</time>
      </trkpt>
      <trkpt lat="46.54418" lon="6.14376">
        <ele>1053</ele>
        <time>2024-02-02T08:44:12Z</time>
      </trkpt>
      <trkpt lat="46.5441" lon="6.14368">
        <ele>1053.3</ele>
        <time>2024-02-02T08:44:19Z</time>
      </trkpt>
      <trkpt lat="46.54404" lon="6.14359">
        <ele>1053.7</ele>
        <time>2024-02-02T08:44:26Z</time>
      </trkpt>
      <trkpt lat="46.54396" lon="6.1435">
        <ele>1053.8</ele>
        <time>2024-02-02T08:44:33Z</time>
      </trkpt>
      <trkpt lat="46.54391" lon="6.1434">
        <ele>1053.3</ele>
        <time>2024-02-02T08:44:40Z</time>
      </trkpt>
      <trkpt lat="46.54385" lon="6.1433">
        <ele>1053.8</ele>
        <time>2024-02-02T08:44:47Z</time>
      </trkpt>
      <trkpt lat="46.5438" lon="6.14319">
        <ele>1055.6</ele>
        <time>2024-02-02T08:44:54Z</time>
      </trkpt>
      <trkpt lat="46.54374" lon="6.14308">
        <ele>1056.6</ele>
        <time>2024-02-02T08:45:01Z</time>
      </trkpt>
      <trkpt lat="46.54368" lon="6.14296">
        <ele>1056.6</ele>
        <time>2024-02-02T08:45:09Z</time>
      </trkpt>
      <trkpt lat="46.54364" lon="6.14284">
        <ele>1056.5</ele>
        <time>2024-02-02T08:45:17Z</time>
      </trkpt>
      <trkpt lat="46.5436" lon="6.14271">
        <ele>1056.7</ele>
        <time>2024-02-02T08:45:25Z</time>
      </trkpt>
      <trkpt lat="46.54357" lon="6.14258">
        <ele>1057.9</ele>
        <time>2024-02-02T08:45:34Z</time>
      </trkpt>
      <trkpt lat="46.5435" lon="6.14249">
        <ele>1058.3</ele>
        <time>2024-02-02T08:45:42Z</time>
      </trkpt>
      <trkpt lat="46.54343" lon="6.14238">
        <ele>1058.9</ele>
        <time>2024-02-02T08:45:51Z</time>
      </trkpt>
      <trkpt lat="46.54336" lon="6.1423">
        <ele>1058.4</ele>
        <time>2024-02-02T08:45:59Z</time>
      </trkpt>
      <trkpt lat="46.54329" lon="6.14221">
        <ele>1058.1</ele>
        <time>2024-02-02T08:46:07Z</time>
      </trkpt>
      <trkpt lat="46.54322" lon="6.14212">
        <ele>1059.4</ele>
        <time>2024-02-02T08:46:15Z</time>
      </trkpt>
      <trkpt lat="46.54315" lon="6.14202">
        <ele>1060.2</ele>
        <time>2024-02-02T08:46:24Z</time>
      </trkpt>
      <trkpt lat="46.54309" lon="6.14192">
        <ele>1060.6</ele>
        <time>2024-02-02T08:46:32Z</time>
      </trkpt>
      <trkpt lat="46.54302" lon="6.14183">
        <ele>1061.1</ele>
        <time>2024-02-02T08:46:40Z</time>
      </trkpt>
      <trkpt lat="46.54296" lon="6.14172">
        <ele>1062.1</ele>
        <time>2024-02-02T08:46:48Z</time>
      </trkpt>
      <trkpt lat="46.5429" lon="6.1416">
        <ele>1062.6</ele>
        <time>2024-02-02T08:46:56Z</time>
      </trkpt>
      <trkpt lat="46.54286" lon="6.14147">
        <ele>1062.8</ele>
        <time>2024-02-02T08:47:05Z</time>
      </trkpt>
      <trkpt lat="46.5428" lon="6.14136">
        <ele>1062.6</ele>
        <time>2024-02-02T08:47:13Z</time>
      </trkpt>
      <trkpt lat="46.54272" lon="6.14127">
        <ele>1063.1</ele>
        <time>2024-02-02T08:47:20Z</time>
      </trkpt>
      <trkpt lat="46.54265" lon="6.14118">
        <ele>1063.8</ele>
        <time>2024-02-02T08:47:27Z</time>
      </trkpt>
      <trkpt lat="46.54257" lon="6.14109">
        <ele>1064.6</ele>
        <time>2024-02-02T08:47:35Z</time>
      </trkpt>
      <trkpt lat="46.54249" lon="6.14103">
        <ele>1065.1</ele>
        <time>2024-02-02T08:47:43Z</time>
      </trkpt>
      <trkpt lat="46.54242" lon="6.14094">
        <ele>1066.2</ele>
        <time>2024-02-02T08:47:51Z</time>
      </trkpt>
      <trkpt lat="46.54234" lon="6.14085">
        <ele>1066.7</ele>
        <time>2024-02-02T08:47:59Z</time>
      </trkpt>
      <trkpt lat="46.54228" lon="6.14074">
        <ele>1066.3</ele>
        <time>2024-02-02T08:48:07Z</time>
      </trkpt>
      <trkpt lat="46.54221" lon="6.14064">
        <ele>1065.2</ele>
        <time>2024-02-02T08:48:14Z</time>
      </trkpt>
      <trkpt lat="46.54214" lon="6.14053">
        <ele>1064.2</ele>
        <time>2024-02-02T08:48:21Z</time>
      </trkpt>
      <trkpt lat="46.54207" lon="6.14045">
        <ele>1063.5</ele>
        <time>2024-02-02T08:48:29Z</time>
      </trkpt>
      <trkpt lat="46.542" lon="6.14035">
        <ele>1062.7</ele>
        <time>2024-02-02T08:48:36Z</time>
      </trkpt>
      <trkpt lat="46.54192" lon="6.14026">
        <ele>1062</ele>
        <time>2024-02-02T08:48:43Z</time>
      </trkpt>
      <trkpt lat="46.54184" lon="6.14018">
        <ele>1062.1</ele>
        <time>2024-02-02T08:48:50Z</time>
      </trkpt>
      <trkpt lat="46.54177" lon="6.1401">
        <ele>1062.4</ele>
        <time>2024-02-02T08:48:57Z</time>
      </trkpt>
      <trkpt lat="46.54169" lon="6.14003">
        <ele>1062.8</ele>
        <time>2024-02-02T08:49:05Z</time>
      </trkpt>
      <trkpt lat="46.54161" lon="6.13995">
        <ele>1063.3</ele>
        <time>2024-02-02T08:49:13Z</time>
      </trkpt>
      <trkpt lat="46.54153" lon="6.13987">
        <ele>1063.9</ele>
        <time>2024-02-02T08:49:22Z</time>
      </trkpt>
      <trkpt lat="46.54145" lon="6.1398">
        <ele>1064.4</ele>
        <time>2024-02-02T08:49:30Z</time>
      </trkpt>
      <trkpt lat="46.54136" lon="6.13974">
        <ele>1064.7</ele>
        <time>2024-02-02T08:49:38Z</time>
      </trkpt>
      <trkpt lat="46.54127" lon="6.13968">
        <ele>1065</ele>
        <time>2024-02-02T08:49:46Z</time>
      </trkpt>
      <trkpt lat="46.54118" lon="6.13964">
        <ele>1065</ele>
        <time>2024-02-02T08:49:54Z</time>
      </trkpt>
      <trkpt lat="46.5411" lon="6.1396">
        <ele>1064.9</ele>
        <time>2024-02-02T08:50:01Z</time>
      </trkpt>
      <trkpt lat="46.541" lon="6.13956">
        <ele>1065.4</ele>
        <time>2024-02-02T08:50:10Z</time>
      </trkpt>
      <trkpt lat="46.54091" lon="6.13954">
        <ele>1065.8</ele>
        <time>2024-02-02T08:50:18Z</time>
      </trkpt>
      <trkpt lat="46.54081" lon="6.13951">
        <ele>1066.4</ele>
        <time>2024-02-02T08:50:26Z</time>
      </trkpt>
      <trkpt lat="46.54071" lon="6.13947">
        <ele>1066.7</ele>
        <time>2024-02-02T08:50:34Z</time>
      </trkpt>
      <trkpt lat="46.54063" lon="6.13942">
        <ele>1067.2</ele>
        <time>2024-02-02T08:50:42Z</time>
      </trkpt>
      <trkpt lat="46.54056" lon="6.13932">
        <ele>1067.5</ele>
        <time>2024-02-02T08:50:49Z</time>
      </trkpt>
      <trkpt lat="46.5405" lon="6.13923">
        <ele>1067.2</ele>
        <time>2024-02-02T08:50:56Z</time>
      </trkpt>
      <trkpt lat="46.54042" lon="6.13914">
        <ele>1066.7</ele>
        <time>2024-02-02T08:51:03Z</time>
      </trkpt>
      <trkpt lat="46.54034" lon="6.13907">
        <ele>1066.1</ele>
        <time>2024-02-02T08:51:10Z</time>
      </trkpt>
      <trkpt lat="46.54025" lon="6.13901">
        <ele>1065.3</ele>
        <time>2024-02-02T08:51:17Z</time>
      </trkpt>
      <trkpt lat="46.54017" lon="6.13897">
        <ele>1064.8</ele>
        <time>2024-02-02T08:51:24Z</time>
      </trkpt>
      <trkpt lat="46.54008" lon="6.13891">
        <ele>1064.4</ele>
        <time>2024-02-02T08:51:31Z</time>
      </trkpt>
      <trkpt lat="46.53999" lon="6.13884">
        <ele>1064.1</ele>
        <time>2024-02-02T08:51:38Z</time>
      </trkpt>
      <trkpt lat="46.53991" lon="6.13876">
        <ele>1063.6</ele>
        <time>2024-02-02T08:51:45Z</time>
      </trkpt>
      <trkpt lat="46.53983" lon="6.13868">
        <ele>1063.4</ele>
        <time>2024-02-02T08:51:52Z</time>
      </trkpt>
      <trkpt lat="46.53976" lon="6.13858">
        <ele>1063.5</ele>
        <time>2024-02-02T08:52:02Z</time>
      </trkpt>
      <trkpt lat="46.53968" lon="6.13851">
        <ele>1063.2</ele>
        <time>2024-02-02T08:52:14Z</time>
      </trkpt>
      <trkpt lat="46.53958" lon="6.13848">
        <ele>1062.3</ele>
        <time>2024-02-02T08:52:25Z</time>
      </trkpt>
      <trkpt lat="46.53949" lon="6.13844">
        <ele>1062.2</ele>
        <time>2024-02-02T08:52:33Z</time>
      </trkpt>
      <trkpt lat="46.53946" lon="6.13831">
        <ele>1064.1</ele>
        <time>2024-02-02T08:52:43Z</time>
      </trkpt>
      <trkpt lat="46.53943" lon="6.13817">
        <ele>1063.7</ele>
        <time>2024-02-02T08:52:53Z</time>
      </trkpt>
      <trkpt lat="46.53935" lon="6.13809">
        <ele>1062.2</ele>
        <time>2024-02-02T08:53:02Z</time>
      </trkpt>
      <trkpt lat="46.53928" lon="6.13799">
        <ele>1061.7</ele>
        <time>2024-02-02T08:53:10Z</time>
      </trkpt>
      <trkpt lat="46.53921" lon="6.13788">
        <ele>1062.1</ele>
        <time>2024-02-02T08:53:18Z</time>
      </trkpt>
      <trkpt lat="46.53915" lon="6.13779">
        <ele>1062.7</ele>
        <time>2024-02-02T08:53:27Z</time>
      </trkpt>
      <trkpt lat="46.53907" lon="6.1377">
        <ele>1062.6</ele>
        <time>2024-02-02T08:53:35Z</time>
      </trkpt>
      <trkpt lat="46.53899" lon="6.13765">
        <ele>1061.7</ele>
        <time>2024-02-02T08:53:45Z</time>
      </trkpt>
      <trkpt lat="46.53891" lon="6.13774">
        <ele>1061</ele>
        <time>2024-02-02T08:53:51Z</time>
      </trkpt>
      <trkpt lat="46.53884" lon="6.13784">
        <ele>1060.5</ele>
        <time>2024-02-02T08:53:57Z</time>
      </trkpt>
      <trkpt lat="46.53875" lon="6.13791">
        <ele>1060</ele>
        <time>2024-02-02T08:54:04Z</time>
      </trkpt>
      <trkpt lat="46.53867" lon="6.13798">
        <ele>1059.8</ele>
        <time>2024-02-02T08:54:11Z</time>
      </trkpt>
      <trkpt lat="46.53859" lon="6.13805">
        <ele>1059.9</ele>
        <time>2024-02-02T08:54:18Z</time>
      </trkpt>
      <trkpt lat="46.5385" lon="6.13811">
        <ele>1059.5</ele>
        <time>2024-02-02T08:54:25Z</time>
      </trkpt>
      <trkpt lat="46.53843" lon="6.13819">
        <ele>1059.2</ele>
        <time>2024-02-02T08:54:33Z</time>
      </trkpt>
      <trkpt lat="46.53833" lon="6.13824">
        <ele>1059</ele>
        <time>2024-02-02T08:54:41Z</time>
      </trkpt>
      <trkpt lat="46.53824" lon="6.13827">
        <ele>1059.2</ele>
        <time>2024-02-02T08:54:48Z</time>
      </trkpt>
      <trkpt lat="46.53816" lon="6.13832">
        <ele>1059.6</ele>
        <time>2024-02-02T08:54:55Z</time>
      </trkpt>
      <trkpt lat="46.53808" lon="6.13838">
        <ele>1059.7</ele>
        <time>2024-02-02T08:55:02Z</time>
      </trkpt>
      <trkpt lat="46.53799" lon="6.13845">
        <ele>1059.8</ele>
        <time>2024-02-02T08:55:09Z</time>
      </trkpt>
      <trkpt lat="46.5379" lon="6.13847">
        <ele>1060.1</ele>
        <time>2024-02-02T08:55:16Z</time>
      </trkpt>
      <trkpt lat="46.53781" lon="6.13849">
        <ele>1060.3</ele>
        <time>2024-02-02T08:55:23Z</time>
      </trkpt>
      <trkpt lat="46.53773" lon="6.13853">
        <ele>1060.2</ele>
        <time>2024-02-02T08:55:31Z</time>
      </trkpt>
      <trkpt lat="46.53763" lon="6.1385">
        <ele>1060</ele>
        <time>2024-02-02T08:55:38Z</time>
      </trkpt>
      <trkpt lat="46.53754" lon="6.13854">
        <ele>1059.8</ele>
        <time>2024-02-02T08:55:45Z</time>
      </trkpt>
      <trkpt lat="46.53744" lon="6.13854">
        <ele>1059.2</ele>
        <time>2024-02-02T08:55:52Z</time>
      </trkpt>
      <trkpt lat="46.53737" lon="6.13845">
        <ele>1058.6</ele>
        <time>2024-02-02T08:55:58Z</time>
      </trkpt>
      <trkpt lat="46.53728" lon="6.13837">
        <ele>1058.1</ele>
        <time>2024-02-02T08:56:05Z</time>
      </trkpt>
      <trkpt lat="46.53719" lon="6.1384">
        <ele>1057.7</ele>
        <time>2024-02-02T08:56:12Z</time>
      </trkpt>
      <trkpt lat="46.53711" lon="6.1385">
        <ele>1057.2</ele>
        <time>2024-02-02T08:56:21Z</time>
      </trkpt>
      <trkpt lat="46.53703" lon="6.13857">
        <ele>1056.5</ele>
        <time>2024-02-02T08:56:28Z</time>
      </trkpt>
      <trkpt lat="46.53693" lon="6.13863">
        <ele>1056</ele>
        <time>2024-02-02T08:56:36Z</time>
      </trkpt>
      <trkpt lat="46.53684" lon="6.13869">
        <ele>1056.2</ele>
        <time>2024-02-02T08:56:44Z</time>
      </trkpt>
      <trkpt lat="46.53676" lon="6.13874">
        <ele>1056.6</ele>
        <time>2024-02-02T08:56:50Z</time>
      </trkpt>
      <trkpt lat="46.53668" lon="6.13882">
        <ele>1057.4</ele>
        <time>2024-02-02T08:56:58Z</time>
      </trkpt>
      <trkpt lat="46.5366" lon="6.13889">
        <ele>1057.7</ele>
        <time>2024-02-02T08:57:05Z</time>
      </trkpt>
      <trkpt lat="46.53652" lon="6.13895">
        <ele>1057.7</ele>
        <time>2024-02-02T08:57:13Z</time>
      </trkpt>
      <trkpt lat="46.53642" lon="6.13892">
        <ele>1057.2</ele>
        <time>2024-02-02T08:57:21Z</time>
      </trkpt>
      <trkpt lat="46.53634" lon="6.13898">
        <ele>1057.5</ele>
        <time>2024-02-02T08:57:29Z</time>
      </trkpt>
      <trkpt lat="46.53625" lon="6.13899">
        <ele>1057.9</ele>
        <time>2024-02-02T08:57:38Z</time>
      </trkpt>
      <trkpt lat="46.5362" lon="6.1391">
        <ele>1058.4</ele>
        <time>2024-02-02T08:57:46Z</time>
      </trkpt>
      <trkpt lat="46.53616" lon="6.13922">
        <ele>1059.2</ele>
        <time>2024-02-02T08:57:55Z</time>
      </trkpt>
      <trkpt lat="46.53609" lon="6.13931">
        <ele>1060.1</ele>
        <time>2024-02-02T08:58:03Z</time>
      </trkpt>
      <trkpt lat="46.53601" lon="6.13941">
        <ele>1061.1</ele>
        <time>2024-02-02T08:58:13Z</time>
      </trkpt>
      <trkpt lat="46.53595" lon="6.13953">
        <ele>1062.3</ele>
        <time>2024-02-02T08:58:21Z</time>
      </trkpt>
      <trkpt lat="46.53589" lon="6.13964">
        <ele>1063.4</ele>
        <time>2024-02-02T08:58:29Z</time>
      </trkpt>
      <trkpt lat="46.53583" lon="6.13974">
        <ele>1064.2</ele>
        <time>2024-02-02T08:58:38Z</time>
      </trkpt>
      <trkpt lat="46.53577" lon="6.13985">
        <ele>1065.1</ele>
        <time>2024-02-02T08:58:46Z</time>
      </trkpt>
      <trkpt lat="46.53572" lon="6.13996">
        <ele>1066.1</ele>
        <time>2024-02-02T08:58:54Z</time>
      </trkpt>
      <trkpt lat="46.53566" lon="6.14007">
        <ele>1067</ele>
        <time>2024-02-02T08:59:03Z</time>
      </trkpt>
      <trkpt lat="46.53561" lon="6.14017">
        <ele>1067.9</ele>
        <time>2024-02-02T08:59:12Z</time>
      </trkpt>
      <trkpt lat="46.53554" lon="6.14028">
        <ele>1069.1</ele>
        <time>2024-02-02T08:59:21Z</time>
      </trkpt>
      <trkpt lat="46.53549" lon="6.14039">
        <ele>1069.7</ele>
        <time>2024-02-02T08:59:29Z</time>
      </trkpt>
      <trkpt lat="46.53543" lon="6.14051">
        <ele>1070.7</ele>
        <time>2024-02-02T08:59:37Z</time>
      </trkpt>
      <trkpt lat="46.53537" lon="6.14061">
        <ele>1071.5</ele>
        <time>2024-02-02T08:59:46Z</time>
      </trkpt>
      <trkpt lat="46.53531" lon="6.14072">
        <ele>1072.3</ele>
        <time>2024-02-02T08:59:54Z</time>
      </trkpt>
      <trkpt lat="46.53525" lon="6.14083">
        <ele>1073.2</ele>
        <time>2024-02-02T09:00:02Z</time>
      </trkpt>
      <trkpt lat="46.5352" lon="6.14096">
        <ele>1074.5</ele>
        <time>2024-02-02T09:00:10Z</time>
      </trkpt>
      <trkpt lat="46.53514" lon="6.14107">
        <ele>1075.6</ele>
        <time>2024-02-02T09:00:18Z</time>
      </trkpt>
      <trkpt lat="46.53508" lon="6.14117">
        <ele>1076.7</ele>
        <time>2024-02-02T09:00:28Z</time>
      </trkpt>
      <trkpt lat="46.53499" lon="6.14125">
        <ele>1077.5</ele>
        <time>2024-02-02T09:00:38Z</time>
      </trkpt>
      <trkpt lat="46.5349" lon="6.14127">
        <ele>1077.9</ele>
        <time>2024-02-02T09:00:46Z</time>
      </trkpt>
      <trkpt lat="46.53484" lon="6.14116">
        <ele>1077.8</ele>
        <time>2024-02-02T09:00:54Z</time>
      </trkpt>
      <trkpt lat="46.53477" lon="6.14107">
        <ele>1077.6</ele>
        <time>2024-02-02T09:01:01Z</time>
      </trkpt>
      <trkpt lat="46.53471" lon="6.14096">
        <ele>1077.5</ele>
        <time>2024-02-02T09:01:07Z</time>
      </trkpt>
      <trkpt lat="46.53462" lon="6.14092">
        <ele>1077.8</ele>
        <time>2024-02-02T09:01:14Z</time>
      </trkpt>
      <trkpt lat="46.53455" lon="6.14101">
        <ele>1078.7</ele>
        <time>2024-02-02T09:01:25Z</time>
      </trkpt>
      <trkpt lat="46.53448" lon="6.14112">
        <ele>1079.8</ele>
        <time>2024-02-02T09:01:33Z</time>
      </trkpt>
      <trkpt lat="46.53443" lon="6.14123">
        <ele>1081.5</ele>
        <time>2024-02-02T09:01:43Z</time>
      </trkpt>
      <trkpt lat="46.53435" lon="6.14132">
        <ele>1083.3</ele>
        <time>2024-02-02T09:01:55Z</time>
      </trkpt>
      <trkpt lat="46.53427" lon="6.14139">
        <ele>1084.9</ele>
        <time>2024-02-02T09:02:06Z</time>
      </trkpt>
      <trkpt lat="46.53417" lon="6.14136">
        <ele>1085.7</ele>
        <time>2024-02-02T09:02:16Z</time>
      </trkpt>
      <trkpt lat="46.53408" lon="6.14135">
        <ele>1087.7</ele>
        <time>2024-02-02T09:02:28Z</time>
      </trkpt>
      <trkpt lat="46.53402" lon="6.14125">
        <ele>1087.8</ele>
        <time>2024-02-02T09:05:08Z</time>
      </trkpt>
      <trkpt lat="46.53396" lon="6.14116">
        <ele>1087.1</ele>
        <time>2024-02-02T09:05:16Z</time>
      </trkpt>
      <trkpt lat="46.53388" lon="6.14107">
        <ele>1087</ele>
        <time>2024-02-02T09:05:26Z</time>
      </trkpt>
      <trkpt lat="46.5338" lon="6.14099">
        <ele>1088.2</ele>
        <time>2024-02-02T09:05:36Z</time>
      </trkpt>
      <trkpt lat="46.53372" lon="6.1409">
        <ele>1088.2</ele>
        <time>2024-02-02T09:05:57Z</time>
      </trkpt>
      <trkpt lat="46.53364" lon="6.14084">
        <ele>1087.9</ele>
        <time>2024-02-02T09:06:08Z</time>
      </trkpt>
      <trkpt lat="46.53355" lon="6.14077">
        <ele>1089.1</ele>
        <time>2024-02-02T09:06:20Z</time>
      </trkpt>
      <trkpt lat="46.53347" lon="6.14082">
        <ele>1092.5</ele>
        <time>2024-02-02T09:06:33Z</time>
      </trkpt>
      <trkpt lat="46.53337" lon="6.14084">
        <ele>1095.9</ele>
        <time>2024-02-02T09:06:45Z</time>
      </trkpt>
      <trkpt lat="46.53328" lon="6.14087">
        <ele>1099.1</ele>
        <time>2024-02-02T09:07:01Z</time>
      </trkpt>
      <trkpt lat="46.5332" lon="6.14081">
        <ele>1099.7</ele>
        <time>2024-02-02T09:07:12Z</time>
      </trkpt>
      <trkpt lat="46.53314" lon="6.14071">
        <ele>1099.5</ele>
        <time>2024-02-02T09:07:22Z</time>
      </trkpt>
      <trkpt lat="46.53305" lon="6.14064">
        <ele>1100.8</ele>
        <time>2024-02-02T09:07:31Z</time>
      </trkpt>
      <trkpt lat="46.53296" lon="6.14058">
        <ele>1102.2</ele>
        <time>2024-02-02T09:07:40Z</time>
      </trkpt>
      <trkpt lat="46.53286" lon="6.14056">
        <ele>1104.6</ele>
        <time>2024-02-02T09:07:52Z</time>
      </trkpt>
      <trkpt lat="46.53279" lon="6.14047">
        <ele>1104.9</ele>
        <time>2024-02-02T09:08:04Z</time>
      </trkpt>
      <trkpt lat="46.53272" lon="6.14036">
        <ele>1104.3</ele>
        <time>2024-02-02T09:08:15Z</time>
      </trkpt>
      <trkpt lat="46.53266" lon="6.14026">
        <ele>1103.6</ele>
        <time>2024-02-02T09:08:23Z</time>
      </trkpt>
      <trkpt lat="46.5326" lon="6.14016">
        <ele>1103.1</ele>
        <time>2024-02-02T09:08:31Z</time>
      </trkpt>
      <trkpt lat="46.53252" lon="6.1401">
        <ele>1103.8</ele>
        <time>2024-02-02T09:08:41Z</time>
      </trkpt>
      <trkpt lat="46.53243" lon="6.14008">
        <ele>1107.3</ele>
        <time>2024-02-02T09:08:52Z</time>
      </trkpt>
      <trkpt lat="46.53233" lon="6.14004">
        <ele>1110.3</ele>
        <time>2024-02-02T09:09:05Z</time>
      </trkpt>
      <trkpt lat="46.53225" lon="6.13999">
        <ele>1112.7</ele>
        <time>2024-02-02T09:09:17Z</time>
      </trkpt>
      <trkpt lat="46.53216" lon="6.13995">
        <ele>1115.7</ele>
        <time>2024-02-02T09:09:29Z</time>
      </trkpt>
      <trkpt lat="46.53208" lon="6.13989">
        <ele>1117.6</ele>
        <time>2024-02-02T09:09:42Z</time>
      </trkpt>
      <trkpt lat="46.53201" lon="6.1398">
        <ele>1118.4</ele>
        <time>2024-02-02T09:09:56Z</time>
      </trkpt>
      <trkpt lat="46.53193" lon="6.13973">
        <ele>1119.8</ele>
        <time>2024-02-02T09:10:12Z</time>
      </trkpt>
      <trkpt lat="46.53184" lon="6.13969">
        <ele>1122.1</ele>
        <time>2024-02-02T09:10:32Z</time>
      </trkpt>
      <trkpt lat="46.53175" lon="6.13965">
        <ele>1124.8</ele>
        <time>2024-02-02T09:10:49Z</time>
      </trkpt>
      <trkpt lat="46.53166" lon="6.13959">
        <ele>1127.2</ele>
        <time>2024-02-02T09:11:03Z</time>
      </trkpt>
      <trkpt lat="46.53157" lon="6.13957">
        <ele>1129.1</ele>
        <time>2024-02-02T09:11:20Z</time>
      </trkpt>
      <trkpt lat="46.53148" lon="6.13959">
        <ele>1131.6</ele>
        <time>2024-02-02T09:14:04Z</time>
      </trkpt>
      <trkpt lat="46.53139" lon="6.13962">
        <ele>1134.2</ele>
        <time>2024-02-02T09:14:15Z</time>
      </trkpt>
      <trkpt lat="46.53131" lon="6.1397">
        <ele>1137.8</ele>
        <time>2024-02-02T09:14:27Z</time>
      </trkpt>
      <trkpt lat="46.53122" lon="6.13973">
        <ele>1141.1</ele>
        <time>2024-02-02T09:14:39Z</time>
      </trkpt>
      <trkpt lat="46.53112" lon="6.13973">
        <ele>1143.9</ele>
        <time>2024-02-02T09:14:54Z</time>
      </trkpt>
      <trkpt lat="46.53103" lon="6.13978">
        <ele>1147.7</ele>
        <time>2024-02-02T09:15:18Z</time>
      </trkpt>
      <trkpt lat="46.53094" lon="6.13981">
        <ele>1151.3</ele>
        <time>2024-02-02T09:15:37Z</time>
      </trkpt>
      <trkpt lat="46.53085" lon="6.13977">
        <ele>1152.7</ele>
        <time>2024-02-02T09:15:49Z</time>
      </trkpt>
      <trkpt lat="46.53077" lon="6.13972">
        <ele>1154.2</ele>
        <time>2024-02-02T09:15:59Z</time>
      </trkpt>
      <trkpt lat="46.53068" lon="6.13972">
        <ele>1157.7</ele>
        <time>2024-02-02T09:16:11Z</time>
      </trkpt>
      <trkpt lat="46.53061" lon="6.13962">
        <ele>1157.5</ele>
        <time>2024-02-02T09:16:53Z</time>
      </trkpt>
      <trkpt lat="46.53054" lon="6.13954">
        <ele>1158</ele>
        <time>2024-02-02T09:17:04Z</time>
      </trkpt>
      <trkpt lat="46.53045" lon="6.13958">
        <ele>1161.8</ele>
        <time>2024-02-02T09:17:22Z</time>
      </trkpt>
      <trkpt lat="46.53035" lon="6.13961">
        <ele>1165.4</ele>
        <time>2024-02-02T09:17:44Z</time>
      </trkpt>
      <trkpt lat="46.53026" lon="6.13957">
        <ele>1167.1</ele>
        <time>2024-02-02T09:17:50Z</time>
      </trkpt>
      <trkpt lat="46.53018" lon="6.13951">
        <ele>1168.2</ele>
        <time>2024-02-02T09:17:57Z</time>
      </trkpt>
      <trkpt lat="46.53009" lon="6.1395">
        <ele>1170.7</ele>
        <time>2024-02-02T09:18:05Z</time>
      </trkpt>
      <trkpt lat="46.52999" lon="6.13948">
        <ele>1173.5</ele>
        <time>2024-02-02T09:18:16Z</time>
      </trkpt>
      <trkpt lat="46.52991" lon="6.1394">
        <ele>1174.9</ele>
        <time>2024-02-02T09:18:32Z</time>
      </trkpt>
      <trkpt lat="46.52986" lon="6.1393">
        <ele>1174.3</ele>
        <time>2024-02-02T09:18:45Z</time>
      </trkpt>
      <trkpt lat="46.52977" lon="6.13925">
        <ele>1176.6</ele>
        <time>2024-02-02T09:18:59Z</time>
      </trkpt>
      <trkpt lat="46.52968" lon="6.13919">
        <ele>1178.6</ele>
        <time>2024-02-02T09:19:50Z</time>
      </trkpt>
      <trkpt lat="46.52959" lon="6.13917">
        <ele>1182</ele>
        <time>2024-02-02T09:19:56Z</time>
      </trkpt>
      <trkpt lat="46.52951" lon="6.1391">
        <ele>1183.9</ele>
        <time>2024-02-02T09:20:03Z</time>
      </trkpt>
      <trkpt lat="46.52943" lon="6.13904">
        <ele>1185.6</ele>
        <time>2024-02-02T09:20:11Z</time>
      </trkpt>
      <trkpt lat="46.52934" lon="6.13898">
        <ele>1187</ele>
        <time>2024-02-02T09:20:23Z</time>
      </trkpt>
      <trkpt lat="46.52925" lon="6.13896">
        <ele>1190.4</ele>
        <time>2024-02-02T09:21:13Z</time>
      </trkpt>
      <trkpt lat="46.52917" lon="6.13889">
        <ele>1191.8</ele>
        <time>2024-02-02T09:21:18Z</time>
      </trkpt>
      <trkpt lat="46.52907" lon="6.13885">
        <ele>1194.1</ele>
        <time>2024-02-02T09:21:27Z</time>
      </trkpt>
      <trkpt lat="46.52899" lon="6.13879">
        <ele>1195.1</ele>
        <time>2024-02-02T09:21:40Z</time>
      </trkpt>
      <trkpt lat="46.52889" lon="6.13879">
        <ele>1198.3</ele>
        <time>2024-02-02T09:21:52Z</time>
      </trkpt>
      <trkpt lat="46.5288" lon="6.13874">
        <ele>1200.1</ele>
        <time>2024-02-02T09:22:06Z</time>
      </trkpt>
      <trkpt lat="46.52871" lon="6.13873">
        <ele>1203.2</ele>
        <time>2024-02-02T09:22:19Z</time>
      </trkpt>
      <trkpt lat="46.52864" lon="6.13864">
        <ele>1202.7</ele>
        <time>2024-02-02T09:22:31Z</time>
      </trkpt>
      <trkpt lat="46.52857" lon="6.13855">
        <ele>1202.9</ele>
        <time>2024-02-02T09:22:43Z</time>
      </trkpt>
      <trkpt lat="46.52848" lon="6.1385">
        <ele>1204.7</ele>
        <time>2024-02-02T09:23:28Z</time>
      </trkpt>
      <trkpt lat="46.52839" lon="6.13845">
        <ele>1206.7</ele>
        <time>2024-02-02T09:23:33Z</time>
      </trkpt>
      <trkpt lat="46.5283" lon="6.13841">
        <ele>1208.8</ele>
        <time>2024-02-02T09:23:41Z</time>
      </trkpt>
      <trkpt lat="46.52821" lon="6.1384">
        <ele>1210.9</ele>
        <time>2024-02-02T09:23:50Z</time>
      </trkpt>
      <trkpt lat="46.52812" lon="6.13836">
        <ele>1212.3</ele>
        <time>2024-02-02T09:24:01Z</time>
      </trkpt>
      <trkpt lat="46.52804" lon="6.13828">
        <ele>1212.1</ele>
        <time>2024-02-02T09:24:12Z</time>
      </trkpt>
      <trkpt lat="46.52795" lon="6.13828">
        <ele>1214.1</ele>
        <time>2024-02-02T09:24:31Z</time>
      </trkpt>
      <trkpt lat="46.52786" lon="6.13828">
        <ele>1216.5</ele>
        <time>2024-02-02T09:24:45Z</time>
      </trkpt>
      <trkpt lat="46.52776" lon="6.13824">
        <ele>1217.7</ele>
        <time>2024-02-02T09:24:57Z</time>
      </trkpt>
      <trkpt lat="46.52769" lon="6.13816">
        <ele>1217.1</ele>
        <time>2024-02-02T09:25:09Z</time>
      </trkpt>
      <trkpt lat="46.5276" lon="6.13815">
        <ele>1219.1</ele>
        <time>2024-02-02T09:25:24Z</time>
      </trkpt>
      <trkpt lat="46.52751" lon="6.13819">
        <ele>1222.6</ele>
        <time>2024-02-02T09:26:07Z</time>
      </trkpt>
      <trkpt lat="46.52743" lon="6.13813">
        <ele>1222.5</ele>
        <time>2024-02-02T09:26:32Z</time>
      </trkpt>
      <trkpt lat="46.52735" lon="6.13805">
        <ele>1221.9</ele>
        <time>2024-02-02T09:26:41Z</time>
      </trkpt>
      <trkpt lat="46.52726" lon="6.13803">
        <ele>1223.2</ele>
        <time>2024-02-02T09:30:33Z</time>
      </trkpt>
      <trkpt lat="46.52717" lon="6.13808">
        <ele>1226</ele>
        <time>2024-02-02T09:30:58Z</time>
      </trkpt>
      <trkpt lat="46.52709" lon="6.13814">
        <ele>1228.6</ele>
        <time>2024-02-02T09:31:30Z</time>
      </trkpt>
      <trkpt lat="46.527" lon="6.13814">
        <ele>1229.6</ele>
        <time>2024-02-02T09:31:36Z</time>
      </trkpt>
      <trkpt lat="46.52691" lon="6.13814">
        <ele>1230.6</ele>
        <time>2024-02-02T09:31:45Z</time>
      </trkpt>
      <trkpt lat="46.52682" lon="6.13815">
        <ele>1232.1</ele>
        <time>2024-02-02T09:31:55Z</time>
      </trkpt>
      <trkpt lat="46.52672" lon="6.13815">
        <ele>1233.5</ele>
        <time>2024-02-02T09:32:12Z</time>
      </trkpt>
      <trkpt lat="46.52662" lon="6.13817">
        <ele>1235.5</ele>
        <time>2024-02-02T09:32:23Z</time>
      </trkpt>
      <trkpt lat="46.52653" lon="6.13815">
        <ele>1236.9</ele>
        <time>2024-02-02T09:32:41Z</time>
      </trkpt>
      <trkpt lat="46.52643" lon="6.13812">
        <ele>1237.6</ele>
        <time>2024-02-02T09:32:58Z</time>
      </trkpt>
      <trkpt lat="46.52634" lon="6.13812">
        <ele>1239.7</ele>
        <time>2024-02-02T09:33:08Z</time>
      </trkpt>
      <trkpt lat="46.52625" lon="6.13812">
        <ele>1241.4</ele>
        <time>2024-02-02T09:33:21Z</time>
      </trkpt>
      <trkpt lat="46.52615" lon="6.13812">
        <ele>1243.3</ele>
        <time>2024-02-02T09:33:53Z</time>
      </trkpt>
      <trkpt lat="46.52605" lon="6.13812">
        <ele>1244</ele>
        <time>2024-02-02T09:33:59Z</time>
      </trkpt>
      <trkpt lat="46.52596" lon="6.13819">
        <ele>1246.2</ele>
        <time>2024-02-02T09:34:07Z</time>
      </trkpt>
      <trkpt lat="46.52588" lon="6.13821">
        <ele>1246.2</ele>
        <time>2024-02-02T09:34:15Z</time>
      </trkpt>
      <trkpt lat="46.52578" lon="6.13823">
        <ele>1247.1</ele>
        <time>2024-02-02T09:34:27Z</time>
      </trkpt>
      <trkpt lat="46.52569" lon="6.13826">
        <ele>1248.6</ele>
        <time>2024-02-02T09:34:40Z</time>
      </trkpt>
      <trkpt lat="46.52561" lon="6.13833">
        <ele>1249.8</ele>
        <time>2024-02-02T09:34:57Z</time>
      </trkpt>
      <trkpt lat="46.52553" lon="6.13837">
        <ele>1251.5</ele>
        <time>2024-02-02T09:35:09Z</time>
      </trkpt>
      <trkpt lat="46.52544" lon="6.1384">
        <ele>1253.8</ele>
        <time>2024-02-02T09:35:24Z</time>
      </trkpt>
      <trkpt lat="46.52534" lon="6.13843">
        <ele>1255.9</ele>
        <time>2024-02-02T09:35:42Z</time>
      </trkpt>
      <trkpt lat="46.52525" lon="6.13847">
        <ele>1258</ele>
        <time>2024-02-02T09:35:55Z</time>
      </trkpt>
      <trkpt lat="46.52516" lon="6.13849">
        <ele>1259.7</ele>
        <time>2024-02-02T09:36:09Z</time>
      </trkpt>
      <trkpt lat="46.52507" lon="6.1385">
        <ele>1261.3</ele>
        <time>2024-02-02T09:36:23Z</time>
      </trkpt>
      <trkpt lat="46.52498" lon="6.13854">
        <ele>1262.6</ele>
        <time>2024-02-02T09:36:35Z</time>
      </trkpt>
      <trkpt lat="46.52489" lon="6.13859">
        <ele>1264</ele>
        <time>2024-02-02T09:36:49Z</time>
      </trkpt>
      <trkpt lat="46.52481" lon="6.13866">
        <ele>1265.9</ele>
        <time>2024-02-02T09:37:05Z</time>
      </trkpt>
      <trkpt lat="46.52476" lon="6.13878">
        <ele>1268.1</ele>
        <time>2024-02-02T09:37:22Z</time>
      </trkpt>
      <trkpt lat="46.52469" lon="6.13888">
        <ele>1269.9</ele>
        <time>2024-02-02T09:37:35Z</time>
      </trkpt>
      <trkpt lat="46.52461" lon="6.13894">
        <ele>1270.2</ele>
        <time>2024-02-02T09:37:44Z</time>
      </trkpt>
      <trkpt lat="46.52454" lon="6.13903">
        <ele>1270.3</ele>
        <time>2024-02-02T09:37:53Z</time>
      </trkpt>
      <trkpt lat="46.52447" lon="6.13895">
        <ele>1270</ele>
        <time>2024-02-02T09:40:52Z</time>
      </trkpt>
      <trkpt lat="46.52438" lon="6.13889">
        <ele>1270.4</ele>
        <time>2024-02-02T09:44:59Z</time>
      </trkpt>
      <trkpt lat="46.52432" lon="6.13879">
        <ele>1270.4</ele>
        <time>2024-02-02T09:45:09Z</time>
      </trkpt>
      <trkpt lat="46.52425" lon="6.13869">
        <ele>1269.9</ele>
        <time>2024-02-02T09:45:22Z</time>
      </trkpt>
      <trkpt lat="46.52418" lon="6.13859">
        <ele>1269.1</ele>
        <time>2024-02-02T09:45:34Z</time>
      </trkpt>
      <trkpt lat="46.52412" lon="6.13849">
        <ele>1269.5</ele>
        <time>2024-02-02T09:45:43Z</time>
      </trkpt>
      <trkpt lat="46.52406" lon="6.13838">
        <ele>1269.6</ele>
        <time>2024-02-02T09:45:53Z</time>
      </trkpt>
      <trkpt lat="46.52399" lon="6.13828">
        <ele>1269.3</ele>
        <time>2024-02-02T09:46:02Z</time>
      </trkpt>
      <trkpt lat="46.52391" lon="6.13818">
        <ele>1268.5</ele>
        <time>2024-02-02T09:46:11Z</time>
      </trkpt>
      <trkpt lat="46.52382" lon="6.13816">
        <ele>1268.8</ele>
        <time>2024-02-02T09:46:20Z</time>
      </trkpt>
      <trkpt lat="46.52373" lon="6.13809">
        <ele>1268.7</ele>
        <time>2024-02-02T09:46:30Z</time>
      </trkpt>
      <trkpt lat="46.52368" lon="6.13797">
        <ele>1267.2</ele>
        <time>2024-02-02T09:46:38Z</time>
      </trkpt>
      <trkpt lat="46.5236" lon="6.13789">
        <ele>1265.6</ele>
        <time>2024-02-02T09:46:46Z</time>
      </trkpt>
      <trkpt lat="46.52353" lon="6.13779">
        <ele>1264.3</ele>
        <time>2024-02-02T09:46:56Z</time>
      </trkpt>
      <trkpt lat="46.52347" lon="6.13768">
        <ele>1264.1</ele>
        <time>2024-02-02T09:47:03Z</time>
      </trkpt>
      <trkpt lat="46.52339" lon="6.1376">
        <ele>1263.3</ele>
        <time>2024-02-02T09:47:12Z</time>
      </trkpt>
      <trkpt lat="46.52333" lon="6.1375">
        <ele>1261</ele>
        <time>2024-02-02T09:47:20Z</time>
      </trkpt>
      <trkpt lat="46.52326" lon="6.13742">
        <ele>1261.1</ele>
        <time>2024-02-02T09:47:28Z</time>
      </trkpt>
      <trkpt lat="46.5232" lon="6.13732">
        <ele>1260.6</ele>
        <time>2024-02-02T09:47:36Z</time>
      </trkpt>
      <trkpt lat="46.52311" lon="6.13726">
        <ele>1260.3</ele>
        <time>2024-02-02T09:47:45Z</time>
      </trkpt>
      <trkpt lat="46.52303" lon="6.1372">
        <ele>1260.1</ele>
        <time>2024-02-02T09:47:54Z</time>
      </trkpt>
      <trkpt lat="46.52295" lon="6.13712">
        <ele>1260</ele>
        <time>2024-02-02T09:48:06Z</time>
      </trkpt>
      <trkpt lat="46.52286" lon="6.13709">
        <ele>1259.9</ele>
        <time>2024-02-02T09:48:12Z</time>
      </trkpt>
      <trkpt lat="46.52276" lon="6.13705">
        <ele>1259.8</ele>
        <time>2024-02-02T09:48:21Z</time>
      </trkpt>
      <trkpt lat="46.52267" lon="6.13701">
        <ele>1260.8</ele>
        <time>2024-02-02T09:48:28Z</time>
      </trkpt>
      <trkpt lat="46.5226" lon="6.13692">
        <ele>1261</ele>
        <time>2024-02-02T09:48:36Z</time>
      </trkpt>
      <trkpt lat="46.52255" lon="6.13681">
        <ele>1260.2</ele>
        <time>2024-02-02T09:48:45Z</time>
      </trkpt>
      <trkpt lat="46.52253" lon="6.13666">
        <ele>1258.4</ele>
        <time>2024-02-02T09:48:52Z</time>
      </trkpt>
      <trkpt lat="46.52249" lon="6.13654">
        <ele>1257.3</ele>
        <time>2024-02-02T09:48:59Z</time>
      </trkpt>
      <trkpt lat="46.52243" lon="6.13644">
        <ele>1256.5</ele>
        <time>2024-02-02T09:49:08Z</time>
      </trkpt>
      <trkpt lat="46.52239" lon="6.13631">
        <ele>1255</ele>
        <time>2024-02-02T09:49:18Z</time>
      </trkpt>
      <trkpt lat="46.52232" lon="6.13622">
        <ele>1254.6</ele>
        <time>2024-02-02T09:49:24Z</time>
      </trkpt>
      <trkpt lat="46.52225" lon="6.13611">
        <ele>1254.4</ele>
        <time>2024-02-02T09:49:33Z</time>
      </trkpt>
      <trkpt lat="46.52222" lon="6.13598">
        <ele>1253.7</ele>
        <time>2024-02-02T09:49:42Z</time>
      </trkpt>
      <trkpt lat="46.52219" lon="6.13584">
        <ele>1252.9</ele>
        <time>2024-02-02T09:49:50Z</time>
      </trkpt>
      <trkpt lat="46.52214" lon="6.13573">
        <ele>1253.5</ele>
        <time>2024-02-02T09:50:00Z</time>
      </trkpt>
      <trkpt lat="46.52209" lon="6.13561">
        <ele>1253.9</ele>
        <time>2024-02-02T09:50:11Z</time>
      </trkpt>
      <trkpt lat="46.52204" lon="6.13548">
        <ele>1253.9</ele>
        <time>2024-02-02T09:50:21Z</time>
      </trkpt>
      <trkpt lat="46.52199" lon="6.13535">
        <ele>1254</ele>
        <time>2024-02-02T09:50:30Z</time>
      </trkpt>
      <trkpt lat="46.52194" lon="6.13524">
        <ele>1254</ele>
        <time>2024-02-02T09:50:38Z</time>
      </trkpt>
      <trkpt lat="46.52189" lon="6.13512">
        <ele>1254.5</ele>
        <time>2024-02-02T09:50:46Z</time>
      </trkpt>
      <trkpt lat="46.52184" lon="6.13501">
        <ele>1254.9</ele>
        <time>2024-02-02T09:50:56Z</time>
      </trkpt>
      <trkpt lat="46.52175" lon="6.13495">
        <ele>1256.5</ele>
        <time>2024-02-02T09:51:08Z</time>
      </trkpt>
      <trkpt lat="46.52167" lon="6.13487">
        <ele>1257.9</ele>
        <time>2024-02-02T09:51:17Z</time>
      </trkpt>
      <trkpt lat="46.52159" lon="6.13481">
        <ele>1259</ele>
        <time>2024-02-02T09:51:29Z</time>
      </trkpt>
      <trkpt lat="46.5215" lon="6.13477">
        <ele>1259.9</ele>
        <time>2024-02-02T09:51:38Z</time>
      </trkpt>
      <trkpt lat="46.52141" lon="6.13478">
        <ele>1261</ele>
        <time>2024-02-02T09:51:49Z</time>
      </trkpt>
      <trkpt lat="46.52131" lon="6.13477">
        <ele>1262.2</ele>
        <time>2024-02-02T09:51:59Z</time>
      </trkpt>
      <trkpt lat="46.52122" lon="6.13471">
        <ele>1262.8</ele>
        <time>2024-02-02T09:52:09Z</time>
      </trkpt>
      <trkpt lat="46.52113" lon="6.13465">
        <ele>1263.7</ele>
        <time>2024-02-02T09:52:19Z</time>
      </trkpt>
      <trkpt lat="46.52105" lon="6.13463">
        <ele>1264.5</ele>
        <time>2024-02-02T09:52:28Z</time>
      </trkpt>
      <trkpt lat="46.52095" lon="6.13462">
        <ele>1265.1</ele>
        <time>2024-02-02T09:52:46Z</time>
      </trkpt>
      <trkpt lat="46.52086" lon="6.13457">
        <ele>1265.8</ele>
        <time>2024-02-02T09:52:56Z</time>
      </trkpt>
      <trkpt lat="46.52079" lon="6.13449">
        <ele>1266.4</ele>
        <time>2024-02-02T09:53:06Z</time>
      </trkpt>
      <trkpt lat="46.52075" lon="6.13435">
        <ele>1266</ele>
        <time>2024-02-02T09:53:16Z</time>
      </trkpt>
      <trkpt lat="46.52069" lon="6.13425">
        <ele>1265.2</ele>
        <time>2024-02-02T09:53:23Z</time>
      </trkpt>
      <trkpt lat="46.5206" lon="6.13419">
        <ele>1264.4</ele>
        <time>2024-02-02T09:53:32Z</time>
      </trkpt>
      <trkpt lat="46.52052" lon="6.1341">
        <ele>1264.1</ele>
        <time>2024-02-02T09:53:41Z</time>
      </trkpt>
      <trkpt lat="46.52044" lon="6.13402">
        <ele>1264.7</ele>
        <time>2024-02-02T09:53:51Z</time>
      </trkpt>
      <trkpt lat="46.52038" lon="6.13391">
        <ele>1265</ele>
        <time>2024-02-02T09:54:00Z</time>
      </trkpt>
      <trkpt lat="46.52031" lon="6.13382">
        <ele>1264.8</ele>
        <time>2024-02-02T09:54:09Z</time>
      </trkpt>
      <trkpt lat="46.52023" lon="6.13375">
        <ele>1264.4</ele>
        <time>2024-02-02T09:54:17Z</time>
      </trkpt>
      <trkpt lat="46.52017" lon="6.13363">
        <ele>1263.1</ele>
        <time>2024-02-02T09:54:27Z</time>
      </trkpt>
      <trkpt lat="46.52012" lon="6.13352">
        <ele>1261.8</ele>
        <time>2024-02-02T09:54:36Z</time>
      </trkpt>
      <trkpt lat="46.52005" lon="6.13344">
        <ele>1261.1</ele>
        <time>2024-02-02T09:54:47Z</time>
      </trkpt>
      <trkpt lat="46.51998" lon="6.13335">
        <ele>1260.3</ele>
        <time>2024-02-02T09:54:56Z</time>
      </trkpt>
      <trkpt lat="46.5199" lon="6.13327">
        <ele>1259.5</ele>
        <time>2024-02-02T09:55:04Z</time>
      </trkpt>
      <trkpt lat="46.51981" lon="6.13323">
        <ele>1259.5</ele>
        <time>2024-02-02T09:55:15Z</time>
      </trkpt>
      <trkpt lat="46.51972" lon="6.13319">
        <ele>1259.5</ele>
        <time>2024-02-02T09:55:28Z</time>
      </trkpt>
      <trkpt lat="46.51965" lon="6.13311">
        <ele>1259.1</ele>
        <time>2024-02-02T09:55:37Z</time>
      </trkpt>
      <trkpt lat="46.51958" lon="6.13302">
        <ele>1258.5</ele>
        <time>2024-02-02T09:55:49Z</time>
      </trkpt>
      <trkpt lat="46.51951" lon="6.13293">
        <ele>1257.9</ele>
        <time>2024-02-02T09:55:58Z</time>
      </trkpt>
      <trkpt lat="46.51943" lon="6.13285">
        <ele>1257.8</ele>
        <time>2024-02-02T09:56:06Z</time>
      </trkpt>
      <trkpt lat="46.5194" lon="6.13272">
        <ele>1257.5</ele>
        <time>2024-02-02T09:56:16Z</time>
      </trkpt>
      <trkpt lat="46.51936" lon="6.1326">
        <ele>1258.5</ele>
        <time>2024-02-02T09:56:26Z</time>
      </trkpt>
      <trkpt lat="46.51932" lon="6.13248">
        <ele>1259</ele>
        <time>2024-02-02T09:56:38Z</time>
      </trkpt>
      <trkpt lat="46.51931" lon="6.13233">
        <ele>1258.2</ele>
        <time>2024-02-02T09:56:49Z</time>
      </trkpt>
      <trkpt lat="46.51931" lon="6.13219">
        <ele>1257.5</ele>
        <time>2024-02-02T09:56:58Z</time>
      </trkpt>
      <trkpt lat="46.51926" lon="6.13208">
        <ele>1258.5</ele>
        <time>2024-02-02T09:57:11Z</time>
      </trkpt>
      <trkpt lat="46.51921" lon="6.13196">
        <ele>1259.3</ele>
        <time>2024-02-02T09:57:25Z</time>
      </trkpt>
      <trkpt lat="46.5192" lon="6.13182">
        <ele>1258.6</ele>
        <time>2024-02-02T09:57:36Z</time>
      </trkpt>
      <trkpt lat="46.51914" lon="6.1317">
        <ele>1258.8</ele>
        <time>2024-02-02T09:57:45Z</time>
      </trkpt>
      <trkpt lat="46.51908" lon="6.13161">
        <ele>1259.2</ele>
        <time>2024-02-02T09:57:56Z</time>
      </trkpt>
      <trkpt lat="46.51899" lon="6.13156">
        <ele>1260.3</ele>
        <time>2024-02-02T09:58:07Z</time>
      </trkpt>
      <trkpt lat="46.51893" lon="6.13145">
        <ele>1260</ele>
        <time>2024-02-02T09:58:20Z</time>
      </trkpt>
      <trkpt lat="46.51892" lon="6.13131">
        <ele>1258.9</ele>
        <time>2024-02-02T09:58:29Z</time>
      </trkpt>
      <trkpt lat="46.51885" lon="6.13121">
        <ele>1259.5</ele>
        <time>2024-02-02T09:58:38Z</time>
      </trkpt>
      <trkpt lat="46.51878" lon="6.13111">
        <ele>1260.4</ele>
        <time>2024-02-02T09:58:47Z</time>
      </trkpt>
      <trkpt lat="46.51871" lon="6.13102">
        <ele>1261</ele>
        <time>2024-02-02T09:58:56Z</time>
      </trkpt>
      <trkpt lat="46.51864" lon="6.13092">
        <ele>1261.4</ele>
        <time>2024-02-02T09:59:05Z</time>
      </trkpt>
      <trkpt lat="46.51856" lon="6.13084">
        <ele>1261.9</ele>
        <time>2024-02-02T09:59:14Z</time>
      </trkpt>
      <trkpt lat="46.5185" lon="6.13074">
        <ele>1261.7</ele>
        <time>2024-02-02T09:59:24Z</time>
      </trkpt>
      <trkpt lat="46.51842" lon="6.13066">
        <ele>1261.6</ele>
        <time>2024-02-02T09:59:34Z</time>
      </trkpt>
      <trkpt lat="46.51835" lon="6.13055">
        <ele>1260.9</ele>
        <time>2024-02-02T09:59:42Z</time>
      </trkpt>
      <trkpt lat="46.51828" lon="6.13047">
        <ele>1261.7</ele>
        <time>2024-02-02T09:59:52Z</time>
      </trkpt>
      <trkpt lat="46.51825" lon="6.13034">
        <ele>1261.4</ele>
        <time>2024-02-02T10:03:54Z</time>
      </trkpt>
      <trkpt lat="46.51815" lon="6.1303">
        <ele>1262.1</ele>
        <time>2024-02-02T10:04:11Z</time>
      </trkpt>
      <trkpt lat="46.51808" lon="6.13021">
        <ele>1261.7</ele>
        <time>2024-02-02T10:04:19Z</time>
      </trkpt>
      <trkpt lat="46.51805" lon="6.13008">
        <ele>1260.3</ele>
        <time>2024-02-02T10:04:26Z</time>
      </trkpt>
      <trkpt lat="46.51802" lon="6.12995">
        <ele>1259.2</ele>
        <time>2024-02-02T10:04:33Z</time>
      </trkpt>
      <trkpt lat="46.51798" lon="6.12983">
        <ele>1258.5</ele>
        <time>2024-02-02T10:04:40Z</time>
      </trkpt>
      <trkpt lat="46.51793" lon="6.12971">
        <ele>1258.2</ele>
        <time>2024-02-02T10:04:50Z</time>
      </trkpt>
      <trkpt lat="46.51789" lon="6.12958">
        <ele>1257.5</ele>
        <time>2024-02-02T10:05:00Z</time>
      </trkpt>
      <trkpt lat="46.51783" lon="6.12947">
        <ele>1257.4</ele>
        <time>2024-02-02T10:05:33Z</time>
      </trkpt>
      <trkpt lat="46.51774" lon="6.12943">
        <ele>1258.3</ele>
        <time>2024-02-02T10:05:51Z</time>
      </trkpt>
      <trkpt lat="46.51766" lon="6.12938">
        <ele>1258.8</ele>
        <time>2024-02-02T10:06:00Z</time>
      </trkpt>
      <trkpt lat="46.51757" lon="6.12934">
        <ele>1259.2</ele>
        <time>2024-02-02T10:06:10Z</time>
      </trkpt>
      <trkpt lat="46.51748" lon="6.12932">
        <ele>1259.9</ele>
        <time>2024-02-02T10:06:22Z</time>
      </trkpt>
      <trkpt lat="46.5174" lon="6.12926">
        <ele>1260.1</ele>
        <time>2024-02-02T10:06:31Z</time>
      </trkpt>
      <trkpt lat="46.51731" lon="6.1292">
        <ele>1260.4</ele>
        <time>2024-02-02T10:06:41Z</time>
      </trkpt>
      <trkpt lat="46.51723" lon="6.12913">
        <ele>1260.5</ele>
        <time>2024-02-02T10:06:53Z</time>
      </trkpt>
      <trkpt lat="46.51714" lon="6.12908">
        <ele>1260.1</ele>
        <time>2024-02-02T10:07:02Z</time>
      </trkpt>
      <trkpt lat="46.51705" lon="6.12904">
        <ele>1259.6</ele>
        <time>2024-02-02T10:07:10Z</time>
      </trkpt>
      <trkpt lat="46.51697" lon="6.12896">
        <ele>1258.8</ele>
        <time>2024-02-02T10:07:18Z</time>
      </trkpt>
      <trkpt lat="46.5169" lon="6.12888">
        <ele>1258.2</ele>
        <time>2024-02-02T10:07:26Z</time>
      </trkpt>
      <trkpt lat="46.51681" lon="6.12882">
        <ele>1258.6</ele>
        <time>2024-02-02T10:07:35Z</time>
      </trkpt>
      <trkpt lat="46.51673" lon="6.12877">
        <ele>1259</ele>
        <time>2024-02-02T10:07:45Z</time>
      </trkpt>
      <trkpt lat="46.51666" lon="6.12868">
        <ele>1259.4</ele>
        <time>2024-02-02T10:08:10Z</time>
      </trkpt>
      <trkpt lat="46.51658" lon="6.1286">
        <ele>1260.5</ele>
        <time>2024-02-02T10:08:22Z</time>
      </trkpt>
      <trkpt lat="46.51653" lon="6.12848">
        <ele>1260.2</ele>
        <time>2024-02-02T10:08:38Z</time>
      </trkpt>
      <trkpt lat="46.51646" lon="6.12841">
        <ele>1261</ele>
        <time>2024-02-02T10:08:49Z</time>
      </trkpt>
      <trkpt lat="46.51637" lon="6.12838">
        <ele>1262.4</ele>
        <time>2024-02-02T10:09:01Z</time>
      </trkpt>
      <trkpt lat="46.51628" lon="6.12833">
        <ele>1262.3</ele>
        <time>2024-02-02T10:09:13Z</time>
      </trkpt>
      <trkpt lat="46.51619" lon="6.12833">
        <ele>1262.7</ele>
        <time>2024-02-02T10:09:29Z</time>
      </trkpt>
      <trkpt lat="46.51614" lon="6.12822">
        <ele>1261.1</ele>
        <time>2024-02-02T10:09:50Z</time>
      </trkpt>
      <trkpt lat="46.51607" lon="6.12814">
        <ele>1260.5</ele>
        <time>2024-02-02T10:10:00Z</time>
      </trkpt>
      <trkpt lat="46.516" lon="6.12803">
        <ele>1259.8</ele>
        <time>2024-02-02T10:10:09Z</time>
      </trkpt>
      <trkpt lat="46.51591" lon="6.12797">
        <ele>1259.7</ele>
        <time>2024-02-02T10:10:18Z</time>
      </trkpt>
      <trkpt lat="46.51584" lon="6.12787">
        <ele>1259.1</ele>
        <time>2024-02-02T10:10:29Z</time>
      </trkpt>
      <trkpt lat="46.51578" lon="6.12776">
        <ele>1258.1</ele>
        <time>2024-02-02T10:10:37Z</time>
      </trkpt>
      <trkpt lat="46.51578" lon="6.12762">
        <ele>1255.9</ele>
        <time>2024-02-02T10:10:45Z</time>
      </trkpt>
      <trkpt lat="46.51574" lon="6.12749">
        <ele>1255</ele>
        <time>2024-02-02T10:10:53Z</time>
      </trkpt>
      <trkpt lat="46.51568" lon="6.12737">
        <ele>1254.6</ele>
        <time>2024-02-02T10:11:02Z</time>
      </trkpt>
      <trkpt lat="46.51566" lon="6.12724">
        <ele>1253.2</ele>
        <time>2024-02-02T10:11:11Z</time>
      </trkpt>
      <trkpt lat="46.51562" lon="6.12712">
        <ele>1252.9</ele>
        <time>2024-02-02T10:11:24Z</time>
      </trkpt>
      <trkpt lat="46.51558" lon="6.12699">
        <ele>1252.9</ele>
        <time>2024-02-02T10:11:34Z</time>
      </trkpt>
      <trkpt lat="46.51557" lon="6.12685">
        <ele>1252.5</ele>
        <time>2024-02-02T10:11:42Z</time>
      </trkpt>
      <trkpt lat="46.51559" lon="6.12672">
        <ele>1251.7</ele>
        <time>2024-02-02T10:11:49Z</time>
      </trkpt>
      <trkpt lat="46.51557" lon="6.12659">
        <ele>1251</ele>
        <time>2024-02-02T10:11:57Z</time>
      </trkpt>
      <trkpt lat="46.51559" lon="6.12646">
        <ele>1249.3</ele>
        <time>2024-02-02T10:12:09Z</time>
      </trkpt>
      <trkpt lat="46.51556" lon="6.12633">
        <ele>1248.5</ele>
        <time>2024-02-02T10:12:18Z</time>
      </trkpt>
      <trkpt lat="46.51549" lon="6.12625">
        <ele>1248.2</ele>
        <time>2024-02-02T10:12:26Z</time>
      </trkpt>
      <trkpt lat="46.51542" lon="6.12615">
        <ele>1247.4</ele>
        <time>2024-02-02T10:12:35Z</time>
      </trkpt>
      <trkpt lat="46.51533" lon="6.1261">
        <ele>1247</ele>
        <time>2024-02-02T10:12:44Z</time>
      </trkpt>
      <trkpt lat="46.51525" lon="6.12602">
        <ele>1247.4</ele>
        <time>2024-02-02T10:12:53Z</time>
      </trkpt>
      <trkpt lat="46.51516" lon="6.12597">
        <ele>1247.5</ele>
        <time>2024-02-02T10:13:01Z</time>
      </trkpt>
      <trkpt lat="46.51507" lon="6.12591">
        <ele>1247.4</ele>
        <time>2024-02-02T10:13:12Z</time>
      </trkpt>
      <trkpt lat="46.51499" lon="6.12586">
        <ele>1247.1</ele>
        <time>2024-02-02T10:13:20Z</time>
      </trkpt>
      <trkpt lat="46.5149" lon="6.1258">
        <ele>1247.3</ele>
        <time>2024-02-02T10:13:28Z</time>
      </trkpt>
      <trkpt lat="46.51483" lon="6.12571">
        <ele>1247.9</ele>
        <time>2024-02-02T10:13:39Z</time>
      </trkpt>
      <trkpt lat="46.51475" lon="6.12563">
        <ele>1248.5</ele>
        <time>2024-02-02T10:13:49Z</time>
      </trkpt>
      <trkpt lat="46.51469" lon="6.12552">
        <ele>1249</ele>
        <time>2024-02-02T10:13:58Z</time>
      </trkpt>
      <trkpt lat="46.51462" lon="6.12543">
        <ele>1249.3</ele>
        <time>2024-02-02T10:14:07Z</time>
      </trkpt>
      <trkpt lat="46.51455" lon="6.12534">
        <ele>1249.8</ele>
        <time>2024-02-02T10:14:15Z</time>
      </trkpt>
      <trkpt lat="46.51446" lon="6.12528">
        <ele>1250</ele>
        <time>2024-02-02T10:14:23Z</time>
      </trkpt>
      <trkpt lat="46.5144" lon="6.12517">
        <ele>1249.4</ele>
        <time>2024-02-02T10:14:31Z</time>
      </trkpt>
      <trkpt lat="46.51432" lon="6.12508">
        <ele>1248.8</ele>
        <time>2024-02-02T10:14:41Z</time>
      </trkpt>
      <trkpt lat="46.51424" lon="6.12499">
        <ele>1248.5</ele>
        <time>2024-02-02T10:14:51Z</time>
      </trkpt>
      <trkpt lat="46.51416" lon="6.12493">
        <ele>1247.9</ele>
        <time>2024-02-02T10:14:59Z</time>
      </trkpt>
      <trkpt lat="46.51408" lon="6.12486">
        <ele>1246.8</ele>
        <time>2024-02-02T10:15:07Z</time>
      </trkpt>
      <trkpt lat="46.51401" lon="6.12478">
        <ele>1245.7</ele>
        <time>2024-02-02T10:15:14Z</time>
      </trkpt>
      <trkpt lat="46.51395" lon="6.12466">
        <ele>1244.8</ele>
        <time>2024-02-02T10:15:22Z</time>
      </trkpt>
      <trkpt lat="46.5139" lon="6.12453">
        <ele>1244.1</ele>
        <time>2024-02-02T10:15:30Z</time>
      </trkpt>
      <trkpt lat="46.51383" lon="6.12443">
        <ele>1243.4</ele>
        <time>2024-02-02T10:15:38Z</time>
      </trkpt>
      <trkpt lat="46.51376" lon="6.12435">
        <ele>1242.6</ele>
        <time>2024-02-02T10:15:46Z</time>
      </trkpt>
      <trkpt lat="46.51368" lon="6.12427">
        <ele>1242.1</ele>
        <time>2024-02-02T10:15:54Z</time>
      </trkpt>
      <trkpt lat="46.5136" lon="6.12419">
        <ele>1241.9</ele>
        <time>2024-02-02T10:16:02Z</time>
      </trkpt>
      <trkpt lat="46.51353" lon="6.12411">
        <ele>1242.1</ele>
        <time>2024-02-02T10:16:11Z</time>
      </trkpt>
      <trkpt lat="46.51345" lon="6.12403">
        <ele>1242.3</ele>
        <time>2024-02-02T10:16:19Z</time>
      </trkpt>
      <trkpt lat="46.51336" lon="6.12398">
        <ele>1242.2</ele>
        <time>2024-02-02T10:16:29Z</time>
      </trkpt>
      <trkpt lat="46.51328" lon="6.12391">
        <ele>1242.4</ele>
        <time>2024-02-02T10:16:38Z</time>
      </trkpt>
      <trkpt lat="46.51319" lon="6.12385">
        <ele>1242.3</ele>
        <time>2024-02-02T10:16:45Z</time>
      </trkpt>
      <trkpt lat="46.51311" lon="6.12377">
        <ele>1242.6</ele>
        <time>2024-02-02T10:16:52Z</time>
      </trkpt>
      <trkpt lat="46.51304" lon="6.12368">
        <ele>1243.1</ele>
        <time>2024-02-02T10:17:00Z</time>
      </trkpt>
      <trkpt lat="46.51297" lon="6.12359">
        <ele>1243.2</ele>
        <time>2024-02-02T10:17:09Z</time>
      </trkpt>
      <trkpt lat="46.51288" lon="6.12353">
        <ele>1243</ele>
        <time>2024-02-02T10:17:17Z</time>
      </trkpt>
      <trkpt lat="46.5128" lon="6.12349">
        <ele>1242.5</ele>
        <time>2024-02-02T10:17:24Z</time>
      </trkpt>
      <trkpt lat="46.51271" lon="6.12342">
        <ele>1242.5</ele>
        <time>2024-02-02T10:17:32Z</time>
      </trkpt>
      <trkpt lat="46.51263" lon="6.12334">
        <ele>1242.4</ele>
        <time>2024-02-02T10:17:40Z</time>
      </trkpt>
      <trkpt lat="46.51255" lon="6.12329">
        <ele>1241.7</ele>
        <time>2024-02-02T10:17:48Z</time>
      </trkpt>
      <trkpt lat="46.51246" lon="6.12327">
        <ele>1241.1</ele>
        <time>2024-02-02T10:17:55Z</time>
      </trkpt>
      <trkpt lat="46.51237" lon="6.12326">
        <ele>1240.9</ele>
        <time>2024-02-02T10:18:02Z</time>
      </trkpt>
      <trkpt lat="46.51227" lon="6.12322">
        <ele>1240.4</ele>
        <time>2024-02-02T10:18:09Z</time>
      </trkpt>
      <trkpt lat="46.51218" lon="6.12316">
        <ele>1239.8</ele>
        <time>2024-02-02T10:18:16Z</time>
      </trkpt>
      <trkpt lat="46.51209" lon="6.12313">
        <ele>1239.7</ele>
        <time>2024-02-02T10:18:23Z</time>
      </trkpt>
      <trkpt lat="46.512" lon="6.12309">
        <ele>1239.4</ele>
        <time>2024-02-02T10:18:31Z</time>
      </trkpt>
      <trkpt lat="46.51191" lon="6.12308">
        <ele>1239.4</ele>
        <time>2024-02-02T10:18:39Z</time>
      </trkpt>
      <trkpt lat="46.51182" lon="6.12305">
        <ele>1239.4</ele>
        <time>2024-02-02T10:18:47Z</time>
      </trkpt>
      <trkpt lat="46.51172" lon="6.12304">
        <ele>1239.7</ele>
        <time>2024-02-02T10:18:55Z</time>
      </trkpt>
      <trkpt lat="46.51163" lon="6.12301">
        <ele>1239.9</ele>
        <time>2024-02-02T10:19:03Z</time>
      </trkpt>
      <trkpt lat="46.51154" lon="6.12296">
        <ele>1240.1</ele>
        <time>2024-02-02T10:19:11Z</time>
      </trkpt>
      <trkpt lat="46.51145" lon="6.12293">
        <ele>1240.3</ele>
        <time>2024-02-02T10:19:21Z</time>
      </trkpt>
      <trkpt lat="46.51136" lon="6.12287">
        <ele>1240.2</ele>
        <time>2024-02-02T10:19:30Z</time>
      </trkpt>
      <trkpt lat="46.51128" lon="6.12282">
        <ele>1240</ele>
        <time>2024-02-02T10:19:54Z</time>
      </trkpt>
      <trkpt lat="46.51121" lon="6.12274">
        <ele>1239.4</ele>
        <time>2024-02-02T10:20:03Z</time>
      </trkpt>
      <trkpt lat="46.51115" lon="6.12263">
        <ele>1238.9</ele>
        <time>2024-02-02T10:21:54Z</time>
      </trkpt>
      <trkpt lat="46.51108" lon="6.12255">
        <ele>1238.5</ele>
        <time>2024-02-02T10:22:00Z</time>
      </trkpt>
      <trkpt lat="46.511" lon="6.12247">
        <ele>1238.2</ele>
        <time>2024-02-02T10:22:07Z</time>
      </trkpt>
      <trkpt lat="46.51093" lon="6.12238">
        <ele>1237.9</ele>
        <time>2024-02-02T10:22:14Z</time>
      </trkpt>
      <trkpt lat="46.51087" lon="6.12228">
        <ele>1237.4</ele>
        <time>2024-02-02T10:22:22Z</time>
      </trkpt>
      <trkpt lat="46.51078" lon="6.12226">
        <ele>1237.5</ele>
        <time>2024-02-02T10:22:29Z</time>
      </trkpt>
      <trkpt lat="46.5107" lon="6.12218">
        <ele>1237.1</ele>
        <time>2024-02-02T10:22:36Z</time>
      </trkpt>
      <trkpt lat="46.51063" lon="6.12208">
        <ele>1236.4</ele>
        <time>2024-02-02T10:22:44Z</time>
      </trkpt>
      <trkpt lat="46.51055" lon="6.12201">
        <ele>1235.7</ele>
        <time>2024-02-02T10:22:52Z</time>
      </trkpt>
      <trkpt lat="46.51047" lon="6.12194">
        <ele>1235.2</ele>
        <time>2024-02-02T10:22:59Z</time>
      </trkpt>
      <trkpt lat="46.51039" lon="6.12188">
        <ele>1234.7</ele>
        <time>2024-02-02T10:23:06Z</time>
      </trkpt>
      <trkpt lat="46.51031" lon="6.12182">
        <ele>1233.8</ele>
        <time>2024-02-02T10:23:14Z</time>
      </trkpt>
      <trkpt lat="46.51025" lon="6.12171">
        <ele>1232.4</ele>
        <time>2024-02-02T10:23:22Z</time>
      </trkpt>
      <trkpt lat="46.51018" lon="6.12162">
        <ele>1232.3</ele>
        <time>2024-02-02T10:23:33Z</time>
      </trkpt>
      <trkpt lat="46.51011" lon="6.12152">
        <ele>1232.3</ele>
        <time>2024-02-02T10:23:43Z</time>
      </trkpt>
      <trkpt lat="46.51003" lon="6.12143">
        <ele>1232.2</ele>
        <time>2024-02-02T10:23:51Z</time>
      </trkpt>
      <trkpt lat="46.50997" lon="6.12132">
        <ele>1232.2</ele>
        <time>2024-02-02T10:23:58Z</time>
      </trkpt>
      <trkpt lat="46.50989" lon="6.12123">
        <ele>1232.3</ele>
        <time>2024-02-02T10:24:06Z</time>
      </trkpt>
      <trkpt lat="46.50981" lon="6.12115">
        <ele>1232</ele>
        <time>2024-02-02T10:24:13Z</time>
      </trkpt>
      <trkpt lat="46.50973" lon="6.12107">
        <ele>1231.7</ele>
        <time>2024-02-02T10:24:21Z</time>
      </trkpt>
      <trkpt lat="46.50964" lon="6.12102">
        <ele>1232.3</ele>
        <time>2024-02-02T10:24:29Z</time>
      </trkpt>
      <trkpt lat="46.50956" lon="6.12094">
        <ele>1232.4</ele>
        <time>2024-02-02T10:24:37Z</time>
      </trkpt>
      <trkpt lat="46.5095" lon="6.12084">
        <ele>1231.8</ele>
        <time>2024-02-02T10:24:44Z</time>
      </trkpt>
      <trkpt lat="46.50946" lon="6.12072">
        <ele>1232.3</ele>
        <time>2024-02-02T10:24:51Z</time>
      </trkpt>
      <trkpt lat="46.50942" lon="6.12059">
        <ele>1233.2</ele>
        <time>2024-02-02T10:24:59Z</time>
      </trkpt>
      <trkpt lat="46.50938" lon="6.12047">
        <ele>1233.9</ele>
        <time>2024-02-02T10:25:08Z</time>
      </trkpt>
      <trkpt lat="46.50931" lon="6.12038">
        <ele>1235</ele>
        <time>2024-02-02T10:25:18Z</time>
      </trkpt>
      <trkpt lat="46.50925" lon="6.12027">
        <ele>1235.8</ele>
        <time>2024-02-02T10:25:26Z</time>
      </trkpt>
      <trkpt lat="46.50918" lon="6.12017">
        <ele>1236.9</ele>
        <time>2024-02-02T10:25:35Z</time>
      </trkpt>
      <trkpt lat="46.5091" lon="6.12008">
        <ele>1237.4</ele>
        <time>2024-02-02T10:25:44Z</time>
      </trkpt>
      <trkpt lat="46.50904" lon="6.11997">
        <ele>1237.3</ele>
        <time>2024-02-02T10:25:51Z</time>
      </trkpt>
      <trkpt lat="46.509" lon="6.11985">
        <ele>1236.7</ele>
        <time>2024-02-02T10:25:58Z</time>
      </trkpt>
      <trkpt lat="46.50898" lon="6.11972">
        <ele>1236</ele>
        <time>2024-02-02T10:26:05Z</time>
      </trkpt>
      <trkpt lat="46.50896" lon="6.11958">
        <ele>1236.2</ele>
        <time>2024-02-02T10:26:13Z</time>
      </trkpt>
      <trkpt lat="46.50893" lon="6.11945">
        <ele>1236.5</ele>
        <time>2024-02-02T10:26:20Z</time>
      </trkpt>
      <trkpt lat="46.50889" lon="6.11932">
        <ele>1236.9</ele>
        <time>2024-02-02T10:26:27Z</time>
      </trkpt>
      <trkpt lat="46.5089" lon="6.11919">
        <ele>1236.9</ele>
        <time>2024-02-02T10:26:35Z</time>
      </trkpt>
      <trkpt lat="46.50889" lon="6.11906">
        <ele>1237.1</ele>
        <time>2024-02-02T10:26:43Z</time>
      </trkpt>
      <trkpt lat="46.50886" lon="6.11892">
        <ele>1237.5</ele>
        <time>2024-02-02T10:26:51Z</time>
      </trkpt>
      <trkpt lat="46.50882" lon="6.11878">
        <ele>1237</ele>
        <time>2024-02-02T10:26:59Z</time>
      </trkpt>
      <trkpt lat="46.50875" lon="6.11868">
        <ele>1236.8</ele>
        <time>2024-02-02T10:27:08Z</time>
      </trkpt>
      <trkpt lat="46.50868" lon="6.11858">
        <ele>1236.1</ele>
        <time>2024-02-02T10:27:16Z</time>
      </trkpt>
      <trkpt lat="46.50862" lon="6.11848">
        <ele>1235.5</ele>
        <time>2024-02-02T10:27:25Z</time>
      </trkpt>
      <trkpt lat="46.50856" lon="6.11837">
        <ele>1234.5</ele>
        <time>2024-02-02T10:27:34Z</time>
      </trkpt>
      <trkpt lat="46.50849" lon="6.11828">
        <ele>1233.7</ele>
        <time>2024-02-02T10:27:43Z</time>
      </trkpt>
      <trkpt lat="46.5084" lon="6.11821">
        <ele>1233.3</ele>
        <time>2024-02-02T10:27:52Z</time>
      </trkpt>
      <trkpt lat="46.50833" lon="6.11811">
        <ele>1232.6</ele>
        <time>2024-02-02T10:28:00Z</time>
      </trkpt>
      <trkpt lat="46.50826" lon="6.11802">
        <ele>1231.3</ele>
        <time>2024-02-02T10:28:09Z</time>
      </trkpt>
      <trkpt lat="46.50819" lon="6.11791">
        <ele>1229.9</ele>
        <time>2024-02-02T10:28:18Z</time>
      </trkpt>
      <trkpt lat="46.50814" lon="6.11779">
        <ele>1228.4</ele>
        <time>2024-02-02T10:28:26Z</time>
      </trkpt>
      <trkpt lat="46.50811" lon="6.11765">
        <ele>1227.2</ele>
        <time>2024-02-02T10:28:35Z</time>
      </trkpt>
      <trkpt lat="46.50808" lon="6.11751">
        <ele>1226.1</ele>
        <time>2024-02-02T10:28:45Z</time>
      </trkpt>
      <trkpt lat="46.50806" lon="6.11738">
        <ele>1225.1</ele>
        <time>2024-02-02T10:28:52Z</time>
      </trkpt>
      <trkpt lat="46.50804" lon="6.11724">
        <ele>1224.3</ele>
        <time>2024-02-02T10:29:01Z</time>
      </trkpt>
      <trkpt lat="46.50797" lon="6.11714">
        <ele>1224.1</ele>
        <time>2024-02-02T10:29:08Z</time>
      </trkpt>
      <trkpt lat="46.50788" lon="6.11709">
        <ele>1224.1</ele>
        <time>2024-02-02T10:29:15Z</time>
      </trkpt>
      <trkpt lat="46.50778" lon="6.1171">
        <ele>1224.9</ele>
        <time>2024-02-02T10:29:24Z</time>
      </trkpt>
      <trkpt lat="46.50768" lon="6.1171">
        <ele>1224.8</ele>
        <time>2024-02-02T10:29:32Z</time>
      </trkpt>
      <trkpt lat="46.50758" lon="6.11707">
        <ele>1224.2</ele>
        <time>2024-02-02T10:29:40Z</time>
      </trkpt>
      <trkpt lat="46.50749" lon="6.11705">
        <ele>1223.8</ele>
        <time>2024-02-02T10:29:50Z</time>
      </trkpt>
      <trkpt lat="46.5074" lon="6.11699">
        <ele>1223</ele>
        <time>2024-02-02T10:31:54Z</time>
      </trkpt>
      <trkpt lat="46.50734" lon="6.11689">
        <ele>1222</ele>
        <time>2024-02-02T10:32:02Z</time>
      </trkpt>
      <trkpt lat="46.50727" lon="6.11681">
        <ele>1222</ele>
        <time>2024-02-02T10:32:10Z</time>
      </trkpt>
      <trkpt lat="46.50718" lon="6.11675">
        <ele>1222.5</ele>
        <time>2024-02-02T10:32:19Z</time>
      </trkpt>
      <trkpt lat="46.50711" lon="6.11664">
        <ele>1222.2</ele>
        <time>2024-02-02T10:32:27Z</time>
      </trkpt>
      <trkpt lat="46.50704" lon="6.11655">
        <ele>1221.6</ele>
        <time>2024-02-02T10:32:36Z</time>
      </trkpt>
      <trkpt lat="46.50696" lon="6.1165">
        <ele>1221.8</ele>
        <time>2024-02-02T10:32:47Z</time>
      </trkpt>
      <trkpt lat="46.50687" lon="6.11642">
        <ele>1221.3</ele>
        <time>2024-02-02T10:32:57Z</time>
      </trkpt>
      <trkpt lat="46.50681" lon="6.11632">
        <ele>1220.7</ele>
        <time>2024-02-02T10:33:05Z</time>
      </trkpt>
      <trkpt lat="46.50674" lon="6.11622">
        <ele>1219.9</ele>
        <time>2024-02-02T10:33:13Z</time>
      </trkpt>
      <trkpt lat="46.50666" lon="6.11613">
        <ele>1219.3</ele>
        <time>2024-02-02T10:33:21Z</time>
      </trkpt>
      <trkpt lat="46.50658" lon="6.11604">
        <ele>1218.8</ele>
        <time>2024-02-02T10:33:29Z</time>
      </trkpt>
      <trkpt lat="46.50652" lon="6.11593">
        <ele>1218.1</ele>
        <time>2024-02-02T10:33:38Z</time>
      </trkpt>
      <trkpt lat="46.50645" lon="6.11584">
        <ele>1217.7</ele>
        <time>2024-02-02T10:33:48Z</time>
      </trkpt>
      <trkpt lat="46.50636" lon="6.11577">
        <ele>1217.6</ele>
        <time>2024-02-02T10:33:56Z</time>
      </trkpt>
      <trkpt lat="46.50627" lon="6.11573">
        <ele>1217.9</ele>
        <time>2024-02-02T10:34:04Z</time>
      </trkpt>
      <trkpt lat="46.50621" lon="6.11562">
        <ele>1217.2</ele>
        <time>2024-02-02T10:34:13Z</time>
      </trkpt>
      <trkpt lat="46.50614" lon="6.11552">
        <ele>1216.5</ele>
        <time>2024-02-02T10:34:21Z</time>
      </trkpt>
      <trkpt lat="46.50608" lon="6.11542">
        <ele>1216.5</ele>
        <time>2024-02-02T10:34:29Z</time>
      </trkpt>
      <trkpt lat="46.50606" lon="6.11527">
        <ele>1215.5</ele>
        <time>2024-02-02T10:34:38Z</time>
      </trkpt>
      <trkpt lat="46.50608" lon="6.11513">
        <ele>1214.8</ele>
        <time>2024-02-02T10:34:46Z</time>
      </trkpt>
      <trkpt lat="46.50613" lon="6.11502">
        <ele>1214</ele>
        <time>2024-02-02T10:34:54Z</time>
      </trkpt>
      <trkpt lat="46.50617" lon="6.11489">
        <ele>1212.2</ele>
        <time>2024-02-02T10:35:02Z</time>
      </trkpt>
      <trkpt lat="46.50617" lon="6.11476">
        <ele>1210.5</ele>
        <time>2024-02-02T10:35:10Z</time>
      </trkpt>
      <trkpt lat="46.50612" lon="6.11465">
        <ele>1209</ele>
        <time>2024-02-02T10:35:21Z</time>
      </trkpt>
      <trkpt lat="46.50605" lon="6.11457">
        <ele>1208.4</ele>
        <time>2024-02-02T10:35:29Z</time>
      </trkpt>
      <trkpt lat="46.50602" lon="6.11443">
        <ele>1206.8</ele>
        <time>2024-02-02T10:35:37Z</time>
      </trkpt>
      <trkpt lat="46.50604" lon="6.11429">
        <ele>1204.2</ele>
        <time>2024-02-02T10:35:45Z</time>
      </trkpt>
      <trkpt lat="46.50604" lon="6.11414">
        <ele>1201.8</ele>
        <time>2024-02-02T10:35:56Z</time>
      </trkpt>
      <trkpt lat="46.50605" lon="6.11401">
        <ele>1199.4</ele>
        <time>2024-02-02T10:36:05Z</time>
      </trkpt>
      <trkpt lat="46.50599" lon="6.11392">
        <ele>1198.1</ele>
        <time>2024-02-02T10:36:15Z</time>
      </trkpt>
      <trkpt lat="46.50591" lon="6.11386">
        <ele>1197.2</ele>
        <time>2024-02-02T10:36:23Z</time>
      </trkpt>
      <trkpt lat="46.50581" lon="6.11385">
        <ele>1197.2</ele>
        <time>2024-02-02T10:36:32Z</time>
      </trkpt>
      <trkpt lat="46.50572" lon="6.11382">
        <ele>1196.6</ele>
        <time>2024-02-02T10:36:40Z</time>
      </trkpt>
      <trkpt lat="46.50564" lon="6.11375">
        <ele>1195.3</ele>
        <time>2024-02-02T10:36:48Z</time>
      </trkpt>
      <trkpt lat="46.50559" lon="6.11363">
        <ele>1193.2</ele>
        <time>2024-02-02T10:36:55Z</time>
      </trkpt>
      <trkpt lat="46.50553" lon="6.11352">
        <ele>1191.1</ele>
        <time>2024-02-02T10:37:03Z</time>
      </trkpt>
      <trkpt lat="46.50545" lon="6.11345">
        <ele>1189.4</ele>
        <time>2024-02-02T10:37:18Z</time>
      </trkpt>
      <trkpt lat="46.50536" lon="6.1134">
        <ele>1188</ele>
        <time>2024-02-02T10:37:28Z</time>
      </trkpt>
      <trkpt lat="46.50529" lon="6.11332">
        <ele>1185.9</ele>
        <time>2024-02-02T10:37:36Z</time>
      </trkpt>
      <trkpt lat="46.50521" lon="6.11325">
        <ele>1185</ele>
        <time>2024-02-02T10:37:45Z</time>
      </trkpt>
      <trkpt lat="46.50512" lon="6.11321">
        <ele>1184.2</ele>
        <time>2024-02-02T10:37:54Z</time>
      </trkpt>
      <trkpt lat="46.50503" lon="6.11318">
        <ele>1183.3</ele>
        <time>2024-02-02T10:38:02Z</time>
      </trkpt>
      <trkpt lat="46.50494" lon="6.11314">
        <ele>1183.8</ele>
        <time>2024-02-02T10:38:08Z</time>
      </trkpt>
      <trkpt lat="46.50488" lon="6.11302">
        <ele>1182.9</ele>
        <time>2024-02-02T10:38:17Z</time>
      </trkpt>
      <trkpt lat="46.50482" lon="6.11292">
        <ele>1182.3</ele>
        <time>2024-02-02T10:38:25Z</time>
      </trkpt>
      <trkpt lat="46.5048" lon="6.11279">
        <ele>1180.3</ele>
        <time>2024-02-02T10:38:32Z</time>
      </trkpt>
      <trkpt lat="46.50476" lon="6.11267">
        <ele>1179</ele>
        <time>2024-02-02T10:38:43Z</time>
      </trkpt>
      <trkpt lat="46.50468" lon="6.1126">
        <ele>1178.9</ele>
        <time>2024-02-02T10:40:05Z</time>
      </trkpt>
      <trkpt lat="46.50459" lon="6.1126">
        <ele>1179.1</ele>
        <time>2024-02-02T10:40:14Z</time>
      </trkpt>
      <trkpt lat="46.50449" lon="6.11255">
        <ele>1177.8</ele>
        <time>2024-02-02T10:40:24Z</time>
      </trkpt>
      <trkpt lat="46.50458" lon="6.11258">
        <ele>1178.6</ele>
        <time>2024-02-02T10:41:46Z</time>
      </trkpt>
      <trkpt lat="46.50468" lon="6.1126">
        <ele>1178.9</ele>
        <time>2024-02-02T10:41:57Z</time>
      </trkpt>
      <trkpt lat="46.50467" lon="6.11273">
        <ele>1181.7</ele>
        <time>2024-02-02T10:47:20Z</time>
      </trkpt>
      <trkpt lat="46.50462" lon="6.11286">
        <ele>1184.8</ele>
        <time>2024-02-02T10:47:36Z</time>
      </trkpt>
      <trkpt lat="46.50455" lon="6.11294">
        <ele>1187.8</ele>
        <time>2024-02-02T10:47:50Z</time>
      </trkpt>
      <trkpt lat="46.50448" lon="6.11302">
        <ele>1191.2</ele>
        <time>2024-02-02T10:48:03Z</time>
      </trkpt>
      <trkpt lat="46.50457" lon="6.11298">
        <ele>1188.5</ele>
        <time>2024-02-02T10:48:05Z</time>
      </trkpt>
      <trkpt lat="46.50451" lon="6.11313">
        <ele>1193.2</ele>
        <time>2024-02-02T10:48:27Z</time>
      </trkpt>
      <trkpt lat="46.50442" lon="6.11321">
        <ele>1196.8</ele>
        <time>2024-02-02T10:48:36Z</time>
      </trkpt>
      <trkpt lat="46.50437" lon="6.11332">
        <ele>1200.1</ele>
        <time>2024-02-02T10:48:54Z</time>
      </trkpt>
      <trkpt lat="46.5043" lon="6.1134">
        <ele>1203.2</ele>
        <time>2024-02-02T10:49:13Z</time>
      </trkpt>
      <trkpt lat="46.50424" lon="6.11352">
        <ele>1206.7</ele>
        <time>2024-02-02T10:49:27Z</time>
      </trkpt>
      <trkpt lat="46.50418" lon="6.11362">
        <ele>1210.1</ele>
        <time>2024-02-02T10:49:40Z</time>
      </trkpt>
      <trkpt lat="46.50409" lon="6.11364">
        <ele>1212.5</ele>
        <time>2024-02-02T10:49:52Z</time>
      </trkpt>
      <trkpt lat="46.50417" lon="6.11371">
        <ele>1212.3</ele>
        <time>2024-02-02T10:50:14Z</time>
      </trkpt>
      <trkpt lat="46.50408" lon="6.11378">
        <ele>1215.8</ele>
        <time>2024-02-02T10:50:27Z</time>
      </trkpt>
      <trkpt lat="46.50401" lon="6.11387">
        <ele>1218.9</ele>
        <time>2024-02-02T10:50:38Z</time>
      </trkpt>
      <trkpt lat="46.50393" lon="6.11394">
        <ele>1221.4</ele>
        <time>2024-02-02T10:50:49Z</time>
      </trkpt>
      <trkpt lat="46.50385" lon="6.11403">
        <ele>1224.3</ele>
        <time>2024-02-02T10:50:58Z</time>
      </trkpt>
      <trkpt lat="46.50377" lon="6.11409">
        <ele>1226.8</ele>
        <time>2024-02-02T10:51:09Z</time>
      </trkpt>
      <trkpt lat="46.5037" lon="6.11419">
        <ele>1229.7</ele>
        <time>2024-02-02T10:51:23Z</time>
      </trkpt>
      <trkpt lat="46.50361" lon="6.11422">
        <ele>1231.8</ele>
        <time>2024-02-02T10:51:35Z</time>
      </trkpt>
      <trkpt lat="46.50352" lon="6.11423">
        <ele>1232.7</ele>
        <time>2024-02-02T10:51:44Z</time>
      </trkpt>
      <trkpt lat="46.50343" lon="6.11426">
        <ele>1233.9</ele>
        <time>2024-02-02T10:51:52Z</time>
      </trkpt>
      <trkpt lat="46.50333" lon="6.11427">
        <ele>1234.7</ele>
        <time>2024-02-02T10:52:02Z</time>
      </trkpt>
      <trkpt lat="46.50324" lon="6.11427">
        <ele>1235.5</ele>
        <time>2024-02-02T10:52:11Z</time>
      </trkpt>
      <trkpt lat="46.50314" lon="6.11427">
        <ele>1236.1</ele>
        <time>2024-02-02T10:52:22Z</time>
      </trkpt>
      <trkpt lat="46.50305" lon="6.1143">
        <ele>1237</ele>
        <time>2024-02-02T10:52:35Z</time>
      </trkpt>
      <trkpt lat="46.50296" lon="6.11433">
        <ele>1238.3</ele>
        <time>2024-02-02T10:52:46Z</time>
      </trkpt>
      <trkpt lat="46.50287" lon="6.11439">
        <ele>1240.4</ele>
        <time>2024-02-02T10:52:55Z</time>
      </trkpt>
      <trkpt lat="46.50278" lon="6.11442">
        <ele>1242.5</ele>
        <time>2024-02-02T10:53:07Z</time>
      </trkpt>
      <trkpt lat="46.50274" lon="6.11454">
        <ele>1244.3</ele>
        <time>2024-02-02T10:53:19Z</time>
      </trkpt>
      <trkpt lat="46.50267" lon="6.11463">
        <ele>1245.5</ele>
        <time>2024-02-02T10:53:32Z</time>
      </trkpt>
      <trkpt lat="46.50262" lon="6.11475">
        <ele>1247.6</ele>
        <time>2024-02-02T10:53:48Z</time>
      </trkpt>
      <trkpt lat="46.50256" lon="6.11486">
        <ele>1250</ele>
        <time>2024-02-02T10:53:58Z</time>
      </trkpt>
      <trkpt lat="46.50254" lon="6.115">
        <ele>1253.1</ele>
        <time>2024-02-02T10:54:22Z</time>
      </trkpt>
      <trkpt lat="46.50249" lon="6.11511">
        <ele>1254.9</ele>
        <time>2024-02-02T10:54:28Z</time>
      </trkpt>
      <trkpt lat="46.50247" lon="6.11524">
        <ele>1256.9</ele>
        <time>2024-02-02T10:54:38Z</time>
      </trkpt>
      <trkpt lat="46.50239" lon="6.11532">
        <ele>1257.4</ele>
        <time>2024-02-02T10:54:52Z</time>
      </trkpt>
      <trkpt lat="46.50235" lon="6.11544">
        <ele>1259.3</ele>
        <time>2024-02-02T10:55:09Z</time>
      </trkpt>
      <trkpt lat="46.50228" lon="6.11554">
        <ele>1260.4</ele>
        <time>2024-02-02T10:55:21Z</time>
      </trkpt>
      <trkpt lat="46.50221" lon="6.11563">
        <ele>1261.6</ele>
        <time>2024-02-02T10:55:32Z</time>
      </trkpt>
      <trkpt lat="46.50213" lon="6.11571">
        <ele>1262.9</ele>
        <time>2024-02-02T10:55:40Z</time>
      </trkpt>
      <trkpt lat="46.50205" lon="6.11581">
        <ele>1264.8</ele>
        <time>2024-02-02T10:55:49Z</time>
      </trkpt>
      <trkpt lat="46.50203" lon="6.11594">
        <ele>1267.6</ele>
        <time>2024-02-02T10:55:58Z</time>
      </trkpt>
      <trkpt lat="46.50208" lon="6.11607">
        <ele>1270.6</ele>
        <time>2024-02-02T10:56:11Z</time>
      </trkpt>
      <trkpt lat="46.5021" lon="6.1162">
        <ele>1273.4</ele>
        <time>2024-02-02T10:56:29Z</time>
      </trkpt>
      <trkpt lat="46.50213" lon="6.11633">
        <ele>1276.3</ele>
        <time>2024-02-02T10:56:45Z</time>
      </trkpt>
      <trkpt lat="46.50212" lon="6.11647">
        <ele>1278.4</ele>
        <time>2024-02-02T10:56:58Z</time>
      </trkpt>
      <trkpt lat="46.50206" lon="6.11657">
        <ele>1279.3</ele>
        <time>2024-02-02T10:57:08Z</time>
      </trkpt>
      <trkpt lat="46.50205" lon="6.1167">
        <ele>1281.2</ele>
        <time>2024-02-02T10:57:19Z</time>
      </trkpt>
      <trkpt lat="46.50202" lon="6.11684">
        <ele>1282.9</ele>
        <time>2024-02-02T10:57:30Z</time>
      </trkpt>
      <trkpt lat="46.50198" lon="6.11696">
        <ele>1283.9</ele>
        <time>2024-02-02T10:57:40Z</time>
      </trkpt>
      <trkpt lat="46.50195" lon="6.11709">
        <ele>1284.8</ele>
        <time>2024-02-02T10:57:49Z</time>
      </trkpt>
      <trkpt lat="46.50194" lon="6.11722">
        <ele>1285.9</ele>
        <time>2024-02-02T10:57:59Z</time>
      </trkpt>
      <trkpt lat="46.50197" lon="6.11735">
        <ele>1288.3</ele>
        <time>2024-02-02T10:58:12Z</time>
      </trkpt>
      <trkpt lat="46.502" lon="6.11748">
        <ele>1290.8</ele>
        <time>2024-02-02T10:58:20Z</time>
      </trkpt>
      <trkpt lat="46.50204" lon="6.11761">
        <ele>1293</ele>
        <time>2024-02-02T10:58:32Z</time>
      </trkpt>
      <trkpt lat="46.50208" lon="6.11772">
        <ele>1295.3</ele>
        <time>2024-02-02T10:58:44Z</time>
      </trkpt>
      <trkpt lat="46.5021" lon="6.11786">
        <ele>1298</ele>
        <time>2024-02-02T10:59:01Z</time>
      </trkpt>
      <trkpt lat="46.50215" lon="6.11797">
        <ele>1301.8</ele>
        <time>2024-02-02T10:59:14Z</time>
      </trkpt>
      <trkpt lat="46.50218" lon="6.1181">
        <ele>1305.2</ele>
        <time>2024-02-02T10:59:25Z</time>
      </trkpt>
      <trkpt lat="46.50221" lon="6.11823">
        <ele>1308.2</ele>
        <time>2024-02-02T10:59:37Z</time>
      </trkpt>
      <trkpt lat="46.50228" lon="6.11833">
        <ele>1310</ele>
        <time>2024-02-02T10:59:53Z</time>
      </trkpt>
      <trkpt lat="46.50229" lon="6.11846">
        <ele>1312.5</ele>
        <time>2024-02-02T11:00:08Z</time>
      </trkpt>
      <trkpt lat="46.50234" lon="6.11859">
        <ele>1315</ele>
        <time>2024-02-02T11:00:22Z</time>
      </trkpt>
      <trkpt lat="46.50237" lon="6.11872">
        <ele>1316.9</ele>
        <time>2024-02-02T11:00:38Z</time>
      </trkpt>
      <trkpt lat="46.50231" lon="6.11884">
        <ele>1318.1</ele>
        <time>2024-02-02T11:00:49Z</time>
      </trkpt>
      <trkpt lat="46.50232" lon="6.11897">
        <ele>1319.7</ele>
        <time>2024-02-02T11:00:57Z</time>
      </trkpt>
      <trkpt lat="46.50227" lon="6.11908">
        <ele>1320.5</ele>
        <time>2024-02-02T11:01:08Z</time>
      </trkpt>
      <trkpt lat="46.50221" lon="6.11918">
        <ele>1320.9</ele>
        <time>2024-02-02T11:01:20Z</time>
      </trkpt>
      <trkpt lat="46.50219" lon="6.11931">
        <ele>1322.4</ele>
        <time>2024-02-02T11:01:30Z</time>
      </trkpt>
      <trkpt lat="46.50218" lon="6.11946">
        <ele>1324.2</ele>
        <time>2024-02-02T11:01:42Z</time>
      </trkpt>
      <trkpt lat="46.5022" lon="6.11959">
        <ele>1326.6</ele>
        <time>2024-02-02T11:01:52Z</time>
      </trkpt>
      <trkpt lat="46.50218" lon="6.11972">
        <ele>1328.1</ele>
        <time>2024-02-02T11:02:03Z</time>
      </trkpt>
      <trkpt lat="46.50222" lon="6.11984">
        <ele>1330.8</ele>
        <time>2024-02-02T11:02:16Z</time>
      </trkpt>
      <trkpt lat="46.50225" lon="6.11997">
        <ele>1332.8</ele>
        <time>2024-02-02T11:02:29Z</time>
      </trkpt>
      <trkpt lat="46.50232" lon="6.12007">
        <ele>1335</ele>
        <time>2024-02-02T11:02:42Z</time>
      </trkpt>
      <trkpt lat="46.50238" lon="6.12017">
        <ele>1337.1</ele>
        <time>2024-02-02T11:02:55Z</time>
      </trkpt>
      <trkpt lat="46.50244" lon="6.12028">
        <ele>1339</ele>
        <time>2024-02-02T11:03:08Z</time>
      </trkpt>
      <trkpt lat="46.50249" lon="6.1204">
        <ele>1341.2</ele>
        <time>2024-02-02T11:03:21Z</time>
      </trkpt>
      <trkpt lat="46.50256" lon="6.12049">
        <ele>1343.5</ele>
        <time>2024-02-02T11:03:33Z</time>
      </trkpt>
      <trkpt lat="46.5026" lon="6.12062">
        <ele>1345.5</ele>
        <time>2024-02-02T11:03:47Z</time>
      </trkpt>
      <trkpt lat="46.50257" lon="6.12076">
        <ele>1347.1</ele>
        <time>2024-02-02T11:03:58Z</time>
      </trkpt>
      <trkpt lat="46.50258" lon="6.12089">
        <ele>1348.5</ele>
        <time>2024-02-02T11:06:12Z</time>
      </trkpt>
      <trkpt lat="46.50251" lon="6.12098">
        <ele>1349.6</ele>
        <time>2024-02-02T11:13:43Z</time>
      </trkpt>
      <trkpt lat="46.50245" lon="6.12107">
        <ele>1350.9</ele>
        <time>2024-02-02T11:13:54Z</time>
      </trkpt>
      <trkpt lat="46.50237" lon="6.12114">
        <ele>1352.4</ele>
        <time>2024-02-02T11:14:07Z</time>
      </trkpt>
      <trkpt lat="46.50229" lon="6.12123">
        <ele>1354.3</ele>
        <time>2024-02-02T11:14:18Z</time>
      </trkpt>
      <trkpt lat="46.50225" lon="6.12135">
        <ele>1356.4</ele>
        <time>2024-02-02T11:14:30Z</time>
      </trkpt>
      <trkpt lat="46.50218" lon="6.12144">
        <ele>1357.9</ele>
        <time>2024-02-02T11:14:44Z</time>
      </trkpt>
      <trkpt lat="46.50217" lon="6.12157">
        <ele>1359.8</ele>
        <time>2024-02-02T11:14:55Z</time>
      </trkpt>
      <trkpt lat="46.50215" lon="6.12171">
        <ele>1361.9</ele>
        <time>2024-02-02T11:15:06Z</time>
      </trkpt>
      <trkpt lat="46.50212" lon="6.12184">
        <ele>1364.1</ele>
        <time>2024-02-02T11:15:17Z</time>
      </trkpt>
      <trkpt lat="46.50215" lon="6.12197">
        <ele>1365.9</ele>
        <time>2024-02-02T11:15:27Z</time>
      </trkpt>
      <trkpt lat="46.50211" lon="6.12209">
        <ele>1368.1</ele>
        <time>2024-02-02T11:15:40Z</time>
      </trkpt>
      <trkpt lat="46.50204" lon="6.12217">
        <ele>1369.8</ele>
        <time>2024-02-02T11:16:16Z</time>
      </trkpt>
      <trkpt lat="46.50199" lon="6.12231">
        <ele>1372.2</ele>
        <time>2024-02-02T11:16:22Z</time>
      </trkpt>
      <trkpt lat="46.5019" lon="6.12236">
        <ele>1373.4</ele>
        <time>2024-02-02T11:16:27Z</time>
      </trkpt>
      <trkpt lat="46.50181" lon="6.12239">
        <ele>1374.7</ele>
        <time>2024-02-02T11:16:38Z</time>
      </trkpt>
      <trkpt lat="46.50172" lon="6.12243">
        <ele>1375.6</ele>
        <time>2024-02-02T11:16:55Z</time>
      </trkpt>
      <trkpt lat="46.50163" lon="6.12248">
        <ele>1376.4</ele>
        <time>2024-02-02T11:17:07Z</time>
      </trkpt>
      <trkpt lat="46.50158" lon="6.12259">
        <ele>1377.4</ele>
        <time>2024-02-02T11:17:17Z</time>
      </trkpt>
      <trkpt lat="46.50154" lon="6.12272">
        <ele>1377.9</ele>
        <time>2024-02-02T11:17:29Z</time>
      </trkpt>
      <trkpt lat="46.50145" lon="6.12275">
        <ele>1377.5</ele>
        <time>2024-02-02T11:17:42Z</time>
      </trkpt>
      <trkpt lat="46.50135" lon="6.12279">
        <ele>1377</ele>
        <time>2024-02-02T11:17:50Z</time>
      </trkpt>
      <trkpt lat="46.50126" lon="6.12283">
        <ele>1377.4</ele>
        <time>2024-02-02T11:17:57Z</time>
      </trkpt>
      <trkpt lat="46.50119" lon="6.12292">
        <ele>1378.5</ele>
        <time>2024-02-02T11:18:06Z</time>
      </trkpt>
      <trkpt lat="46.5011" lon="6.12299">
        <ele>1379.1</ele>
        <time>2024-02-02T11:18:18Z</time>
      </trkpt>
      <trkpt lat="46.50101" lon="6.12303">
        <ele>1380.3</ele>
        <time>2024-02-02T11:18:28Z</time>
      </trkpt>
      <trkpt lat="46.50092" lon="6.12304">
        <ele>1381.1</ele>
        <time>2024-02-02T11:18:37Z</time>
      </trkpt>
      <trkpt lat="46.50082" lon="6.12306">
        <ele>1381.9</ele>
        <time>2024-02-02T11:19:03Z</time>
      </trkpt>
      <trkpt lat="46.50073" lon="6.12313">
        <ele>1383.6</ele>
        <time>2024-02-02T11:19:06Z</time>
      </trkpt>
      <trkpt lat="46.50064" lon="6.12317">
        <ele>1384.5</ele>
        <time>2024-02-02T11:19:09Z</time>
      </trkpt>
      <trkpt lat="46.50053" lon="6.12309">
        <ele>1382</ele>
        <time>2024-02-02T11:19:24Z</time>
      </trkpt>
      <trkpt lat="46.50043" lon="6.12306">
        <ele>1382.9</ele>
        <time>2024-02-02T11:19:31Z</time>
      </trkpt>
      <trkpt lat="46.50036" lon="6.12298">
        <ele>1381.6</ele>
        <time>2024-02-02T11:19:39Z</time>
      </trkpt>
      <trkpt lat="46.50027" lon="6.1229">
        <ele>1380.3</ele>
        <time>2024-02-02T11:19:47Z</time>
      </trkpt>
      <trkpt lat="46.50019" lon="6.12282">
        <ele>1379.4</ele>
        <time>2024-02-02T11:19:55Z</time>
      </trkpt>
      <trkpt lat="46.50012" lon="6.12274">
        <ele>1378.9</ele>
        <time>2024-02-02T11:20:03Z</time>
      </trkpt>
      <trkpt lat="46.50003" lon="6.12268">
        <ele>1379.6</ele>
        <time>2024-02-02T11:20:12Z</time>
      </trkpt>
      <trkpt lat="46.49995" lon="6.12263">
        <ele>1379</ele>
        <time>2024-02-02T11:20:19Z</time>
      </trkpt>
      <trkpt lat="46.49985" lon="6.1226">
        <ele>1377.9</ele>
        <time>2024-02-02T11:20:27Z</time>
      </trkpt>
      <trkpt lat="46.49977" lon="6.12266">
        <ele>1378.6</ele>
        <time>2024-02-02T11:20:38Z</time>
      </trkpt>
      <trkpt lat="46.49968" lon="6.12269">
        <ele>1378.3</ele>
        <time>2024-02-02T11:21:06Z</time>
      </trkpt>
      <trkpt lat="46.49959" lon="6.12267">
        <ele>1376.4</ele>
        <time>2024-02-02T11:21:14Z</time>
      </trkpt>
      <trkpt lat="46.4995" lon="6.12264">
        <ele>1374.4</ele>
        <time>2024-02-02T11:21:24Z</time>
      </trkpt>
      <trkpt lat="46.49942" lon="6.12272">
        <ele>1373.9</ele>
        <time>2024-02-02T11:21:37Z</time>
      </trkpt>
      <trkpt lat="46.49933" lon="6.12274">
        <ele>1372.1</ele>
        <time>2024-02-02T11:21:52Z</time>
      </trkpt>
      <trkpt lat="46.49924" lon="6.1227">
        <ele>1370.3</ele>
        <time>2024-02-02T11:27:18Z</time>
      </trkpt>
      <trkpt lat="46.49914" lon="6.12268">
        <ele>1368.6</ele>
        <time>2024-02-02T11:27:28Z</time>
      </trkpt>
      <trkpt lat="46.49909" lon="6.12257">
        <ele>1368.8</ele>
        <time>2024-02-02T11:27:37Z</time>
      </trkpt>
      <trkpt lat="46.49903" lon="6.12247">
        <ele>1368.7</ele>
        <time>2024-02-02T11:27:46Z</time>
      </trkpt>
      <trkpt lat="46.49896" lon="6.12238">
        <ele>1368.4</ele>
        <time>2024-02-02T11:28:07Z</time>
      </trkpt>
      <trkpt lat="46.49889" lon="6.1223">
        <ele>1368.1</ele>
        <time>2024-02-02T11:28:15Z</time>
      </trkpt>
      <trkpt lat="46.49881" lon="6.12224">
        <ele>1367</ele>
        <time>2024-02-02T11:28:23Z</time>
      </trkpt>
      <trkpt lat="46.49873" lon="6.12216">
        <ele>1366.4</ele>
        <time>2024-02-02T11:28:39Z</time>
      </trkpt>
      <trkpt lat="46.49865" lon="6.12207">
        <ele>1366.4</ele>
        <time>2024-02-02T11:28:57Z</time>
      </trkpt>
      <trkpt lat="46.49857" lon="6.12203">
        <ele>1365.1</ele>
        <time>2024-02-02T11:29:05Z</time>
      </trkpt>
      <trkpt lat="46.49848" lon="6.12198">
        <ele>1363.9</ele>
        <time>2024-02-02T11:29:17Z</time>
      </trkpt>
      <trkpt lat="46.4984" lon="6.1219">
        <ele>1363.9</ele>
        <time>2024-02-02T11:29:26Z</time>
      </trkpt>
      <trkpt lat="46.49837" lon="6.12178">
        <ele>1366.4</ele>
        <time>2024-02-02T11:29:41Z</time>
      </trkpt>
      <trkpt lat="46.49829" lon="6.1217">
        <ele>1367.5</ele>
        <time>2024-02-02T11:29:55Z</time>
      </trkpt>
      <trkpt lat="46.4982" lon="6.12164">
        <ele>1367.4</ele>
        <time>2024-02-02T11:30:05Z</time>
      </trkpt>
      <trkpt lat="46.49812" lon="6.12158">
        <ele>1367.4</ele>
        <time>2024-02-02T11:30:15Z</time>
      </trkpt>
      <trkpt lat="46.49804" lon="6.1215">
        <ele>1368.3</ele>
        <time>2024-02-02T11:30:24Z</time>
      </trkpt>
      <trkpt lat="46.49797" lon="6.12141">
        <ele>1369.2</ele>
        <time>2024-02-02T11:30:32Z</time>
      </trkpt>
      <trkpt lat="46.49788" lon="6.12139">
        <ele>1368.5</ele>
        <time>2024-02-02T11:30:42Z</time>
      </trkpt>
      <trkpt lat="46.49778" lon="6.1214">
        <ele>1366.7</ele>
        <time>2024-02-02T11:30:53Z</time>
      </trkpt>
      <trkpt lat="46.49768" lon="6.12145">
        <ele>1365.3</ele>
        <time>2024-02-02T11:31:02Z</time>
      </trkpt>
      <trkpt lat="46.49759" lon="6.12147">
        <ele>1364.9</ele>
        <time>2024-02-02T11:31:10Z</time>
      </trkpt>
      <trkpt lat="46.4975" lon="6.12152">
        <ele>1363.4</ele>
        <time>2024-02-02T11:31:21Z</time>
      </trkpt>
      <trkpt lat="46.49742" lon="6.12144">
        <ele>1367.7</ele>
        <time>2024-02-02T11:31:32Z</time>
      </trkpt>
      <trkpt lat="46.49751" lon="6.12143">
        <ele>1367</ele>
        <time>2024-02-02T11:31:43Z</time>
      </trkpt>
      <trkpt lat="46.4974" lon="6.12145">
        <ele>1367.3</ele>
        <time>2024-02-02T11:31:56Z</time>
      </trkpt>
      <trkpt lat="46.49731" lon="6.12149">
        <ele>1366.3</ele>
        <time>2024-02-02T11:32:03Z</time>
      </trkpt>
      <trkpt lat="46.49721" lon="6.12155">
        <ele>1364.5</ele>
        <time>2024-02-02T11:32:10Z</time>
      </trkpt>
      <trkpt lat="46.49712" lon="6.12157">
        <ele>1365.8</ele>
        <time>2024-02-02T11:32:21Z</time>
      </trkpt>
      <trkpt lat="46.49702" lon="6.12157">
        <ele>1367.8</ele>
        <time>2024-02-02T11:32:31Z</time>
      </trkpt>
      <trkpt lat="46.49696" lon="6.12147">
        <ele>1371.7</ele>
        <time>2024-02-02T11:32:37Z</time>
      </trkpt>
      <trkpt lat="46.49688" lon="6.12138">
        <ele>1374.1</ele>
        <time>2024-02-02T11:32:46Z</time>
      </trkpt>
      <trkpt lat="46.4968" lon="6.12133">
        <ele>1375.2</ele>
        <time>2024-02-02T11:32:56Z</time>
      </trkpt>
      <trkpt lat="46.49671" lon="6.1214">
        <ele>1373.8</ele>
        <time>2024-02-02T11:33:11Z</time>
      </trkpt>
      <trkpt lat="46.49662" lon="6.12144">
        <ele>1372.9</ele>
        <time>2024-02-02T11:33:18Z</time>
      </trkpt>
      <trkpt lat="46.49653" lon="6.12147">
        <ele>1372.5</ele>
        <time>2024-02-02T11:33:29Z</time>
      </trkpt>
      <trkpt lat="46.49644" lon="6.12149">
        <ele>1372.8</ele>
        <time>2024-02-02T11:33:36Z</time>
      </trkpt>
      <trkpt lat="46.49635" lon="6.12149">
        <ele>1373</ele>
        <time>2024-02-02T11:33:44Z</time>
      </trkpt>
      <trkpt lat="46.49626" lon="6.12155">
        <ele>1371.4</ele>
        <time>2024-02-02T11:33:52Z</time>
      </trkpt>
      <trkpt lat="46.49617" lon="6.12159">
        <ele>1370.3</ele>
        <time>2024-02-02T11:34:00Z</time>
      </trkpt>
      <trkpt lat="46.49608" lon="6.12161">
        <ele>1369.7</ele>
        <time>2024-02-02T11:34:09Z</time>
      </trkpt>
      <trkpt lat="46.49599" lon="6.12164">
        <ele>1369.2</ele>
        <time>2024-02-02T11:34:18Z</time>
      </trkpt>
      <trkpt lat="46.4959" lon="6.12165">
        <ele>1369.1</ele>
        <time>2024-02-02T11:34:29Z</time>
      </trkpt>
      <trkpt lat="46.49581" lon="6.12164">
        <ele>1369.7</ele>
        <time>2024-02-02T11:34:39Z</time>
      </trkpt>
      <trkpt lat="46.49571" lon="6.12164">
        <ele>1370.4</ele>
        <time>2024-02-02T11:34:48Z</time>
      </trkpt>
      <trkpt lat="46.4956" lon="6.12163">
        <ele>1371.3</ele>
        <time>2024-02-02T11:34:56Z</time>
      </trkpt>
      <trkpt lat="46.49551" lon="6.12159">
        <ele>1372.5</ele>
        <time>2024-02-02T11:35:05Z</time>
      </trkpt>
      <trkpt lat="46.49541" lon="6.1216">
        <ele>1372.9</ele>
        <time>2024-02-02T11:35:18Z</time>
      </trkpt>
      <trkpt lat="46.49532" lon="6.12161">
        <ele>1373.2</ele>
        <time>2024-02-02T11:35:42Z</time>
      </trkpt>
      <trkpt lat="46.49524" lon="6.12167">
        <ele>1372.9</ele>
        <time>2024-02-02T11:37:13Z</time>
      </trkpt>
      <trkpt lat="46.49528" lon="6.1218">
        <ele>1371.6</ele>
        <time>2024-02-02T11:37:34Z</time>
      </trkpt>
      <trkpt lat="46.49523" lon="6.12191">
        <ele>1370.5</ele>
        <time>2024-02-02T11:37:42Z</time>
      </trkpt>
      <trkpt lat="46.49513" lon="6.12194">
        <ele>1370.6</ele>
        <time>2024-02-02T11:37:49Z</time>
      </trkpt>
      <trkpt lat="46.49504" lon="6.12196">
        <ele>1370.8</ele>
        <time>2024-02-02T11:37:58Z</time>
      </trkpt>
      <trkpt lat="46.49494" lon="6.12196">
        <ele>1371.4</ele>
        <time>2024-02-02T11:38:06Z</time>
      </trkpt>
      <trkpt lat="46.49485" lon="6.12198">
        <ele>1371.9</ele>
        <time>2024-02-02T11:38:15Z</time>
      </trkpt>
      <trkpt lat="46.49476" lon="6.12199">
        <ele>1372.6</ele>
        <time>2024-02-02T11:38:25Z</time>
      </trkpt>
      <trkpt lat="46.49467" lon="6.122">
        <ele>1373</ele>
        <time>2024-02-02T11:38:36Z</time>
      </trkpt>
      <trkpt lat="46.49457" lon="6.12204">
        <ele>1373.2</ele>
        <time>2024-02-02T11:38:47Z</time>
      </trkpt>
      <trkpt lat="46.49448" lon="6.12203">
        <ele>1373.6</ele>
        <time>2024-02-02T11:38:56Z</time>
      </trkpt>
      <trkpt lat="46.49438" lon="6.122">
        <ele>1374.4</ele>
        <time>2024-02-02T11:39:07Z</time>
      </trkpt>
      <trkpt lat="46.49429" lon="6.122">
        <ele>1375.5</ele>
        <time>2024-02-02T11:39:18Z</time>
      </trkpt>
      <trkpt lat="46.49419" lon="6.12202">
        <ele>1376.4</ele>
        <time>2024-02-02T11:39:29Z</time>
      </trkpt>
      <trkpt lat="46.4941" lon="6.12202">
        <ele>1378</ele>
        <time>2024-02-02T11:39:41Z</time>
      </trkpt>
      <trkpt lat="46.494" lon="6.12199">
        <ele>1379.7</ele>
        <time>2024-02-02T11:39:52Z</time>
      </trkpt>
      <trkpt lat="46.49392" lon="6.12193">
        <ele>1381.6</ele>
        <time>2024-02-02T11:40:06Z</time>
      </trkpt>
      <trkpt lat="46.49383" lon="6.12192">
        <ele>1382.9</ele>
        <time>2024-02-02T11:40:21Z</time>
      </trkpt>
      <trkpt lat="46.49373" lon="6.12189">
        <ele>1384.2</ele>
        <time>2024-02-02T11:40:33Z</time>
      </trkpt>
      <trkpt lat="46.49365" lon="6.1218">
        <ele>1386</ele>
        <time>2024-02-02T11:40:44Z</time>
      </trkpt>
      <trkpt lat="46.4936" lon="6.1217">
        <ele>1387.8</ele>
        <time>2024-02-02T11:40:54Z</time>
      </trkpt>
      <trkpt lat="46.49353" lon="6.1216">
        <ele>1390</ele>
        <time>2024-02-02T11:41:07Z</time>
      </trkpt>
      <trkpt lat="46.49345" lon="6.12153">
        <ele>1392.1</ele>
        <time>2024-02-02T11:41:20Z</time>
      </trkpt>
      <trkpt lat="46.49336" lon="6.12148">
        <ele>1394.2</ele>
        <time>2024-02-02T11:41:33Z</time>
      </trkpt>
      <trkpt lat="46.49328" lon="6.12142">
        <ele>1396.8</ele>
        <time>2024-02-02T11:41:47Z</time>
      </trkpt>
      <trkpt lat="46.49319" lon="6.12141">
        <ele>1399</ele>
        <time>2024-02-02T11:42:00Z</time>
      </trkpt>
      <trkpt lat="46.4931" lon="6.12138">
        <ele>1401.2</ele>
        <time>2024-02-02T11:42:13Z</time>
      </trkpt>
      <trkpt lat="46.493" lon="6.12137">
        <ele>1403.4</ele>
        <time>2024-02-02T11:42:26Z</time>
      </trkpt>
      <trkpt lat="46.49291" lon="6.12132">
        <ele>1405.9</ele>
        <time>2024-02-02T11:42:41Z</time>
      </trkpt>
      <trkpt lat="46.49286" lon="6.12122">
        <ele>1407.7</ele>
        <time>2024-02-02T11:42:54Z</time>
      </trkpt>
      <trkpt lat="46.49277" lon="6.12118">
        <ele>1410</ele>
        <time>2024-02-02T11:43:10Z</time>
      </trkpt>
      <trkpt lat="46.49269" lon="6.12112">
        <ele>1412.6</ele>
        <time>2024-02-02T11:43:24Z</time>
      </trkpt>
      <trkpt lat="46.4926" lon="6.12105">
        <ele>1415.7</ele>
        <time>2024-02-02T11:43:39Z</time>
      </trkpt>
      <trkpt lat="46.49262" lon="6.12093">
        <ele>1416.7</ele>
        <time>2024-02-02T11:47:16Z</time>
      </trkpt>
      <trkpt lat="46.49253" lon="6.12096">
        <ele>1418.7</ele>
        <time>2024-02-02T11:49:57Z</time>
      </trkpt>
      <trkpt lat="46.49244" lon="6.12095">
        <ele>1422</ele>
        <time>2024-02-02T11:50:15Z</time>
      </trkpt>
      <trkpt lat="46.49235" lon="6.12093">
        <ele>1425.8</ele>
        <time>2024-02-02T11:50:32Z</time>
      </trkpt>
      <trkpt lat="46.49227" lon="6.12088">
        <ele>1429.3</ele>
        <time>2024-02-02T11:51:04Z</time>
      </trkpt>
      <trkpt lat="46.49217" lon="6.12087">
        <ele>1433.4</ele>
        <time>2024-02-02T11:51:30Z</time>
      </trkpt>
      <trkpt lat="46.4921" lon="6.12095">
        <ele>1437.2</ele>
        <time>2024-02-02T11:51:56Z</time>
      </trkpt>
      <trkpt lat="46.49206" lon="6.12108">
        <ele>1439.6</ele>
        <time>2024-02-02T11:52:29Z</time>
      </trkpt>
      <trkpt lat="46.49197" lon="6.12107">
        <ele>1444.5</ele>
        <time>2024-02-02T11:52:52Z</time>
      </trkpt>
      <trkpt lat="46.49189" lon="6.12099">
        <ele>1448.7</ele>
        <time>2024-02-02T11:53:17Z</time>
      </trkpt>
      <trkpt lat="46.49184" lon="6.12088">
        <ele>1451.3</ele>
        <time>2024-02-02T11:53:47Z</time>
      </trkpt>
      <trkpt lat="46.49178" lon="6.12078">
        <ele>1454.8</ele>
        <time>2024-02-02T11:54:21Z</time>
      </trkpt>
      <trkpt lat="46.49175" lon="6.12065">
        <ele>1456.8</ele>
        <time>2024-02-02T11:54:48Z</time>
      </trkpt>
      <trkpt lat="46.49168" lon="6.12055">
        <ele>1461.1</ele>
        <time>2024-02-02T11:55:09Z</time>
      </trkpt>
      <trkpt lat="46.49161" lon="6.12046">
        <ele>1467.1</ele>
        <time>2024-02-02T11:55:24Z</time>
      </trkpt>
      <trkpt lat="46.49152" lon="6.12047">
        <ele>1473.5</ele>
        <time>2024-02-02T12:00:01Z</time>
      </trkpt>
      <trkpt lat="46.49143" lon="6.12046">
        <ele>1479.9</ele>
        <time>2024-02-02T12:00:49Z</time>
      </trkpt>
      <trkpt lat="46.49135" lon="6.12041">
        <ele>1486.9</ele>
        <time>2024-02-02T12:01:55Z</time>
      </trkpt>
      <trkpt lat="46.49132" lon="6.12029">
        <ele>1489.6</ele>
        <time>2024-02-02T12:02:28Z</time>
      </trkpt>
      <trkpt lat="46.49123" lon="6.12033">
        <ele>1497.7</ele>
        <time>2024-02-02T12:04:02Z</time>
      </trkpt>
      <trkpt lat="46.49119" lon="6.12021">
        <ele>1502.5</ele>
        <time>2024-02-02T12:05:06Z</time>
      </trkpt>
      <trkpt lat="46.49111" lon="6.12017">
        <ele>1509.9</ele>
        <time>2024-02-02T12:06:35Z</time>
      </trkpt>
      <trkpt lat="46.49103" lon="6.12009">
        <ele>1511.8</ele>
        <time>2024-02-02T12:07:37Z</time>
      </trkpt>
      <trkpt lat="46.49104" lon="6.11996">
        <ele>1512.4</ele>
        <time>2024-02-02T12:08:00Z</time>
      </trkpt>
      <trkpt lat="46.49101" lon="6.11983">
        <ele>1513.8</ele>
        <time>2024-02-02T12:08:33Z</time>
      </trkpt>
      <trkpt lat="46.49101" lon="6.11969">
        <ele>1515.1</ele>
        <time>2024-02-02T12:09:48Z</time>
      </trkpt>
      <trkpt lat="46.49104" lon="6.11957">
        <ele>1516.6</ele>
        <time>2024-02-02T12:10:04Z</time>
      </trkpt>
      <trkpt lat="46.49106" lon="6.11943">
        <ele>1518.4</ele>
        <time>2024-02-02T12:10:17Z</time>
      </trkpt>
      <trkpt lat="46.49106" lon="6.1193">
        <ele>1521.1</ele>
        <time>2024-02-02T12:10:30Z</time>
      </trkpt>
      <trkpt lat="46.49108" lon="6.11917">
        <ele>1523.9</ele>
        <time>2024-02-02T12:10:45Z</time>
      </trkpt>
      <trkpt lat="46.49114" lon="6.11907">
        <ele>1526.2</ele>
        <time>2024-02-02T12:11:08Z</time>
      </trkpt>
      <trkpt lat="46.49116" lon="6.11894">
        <ele>1529.3</ele>
        <time>2024-02-02T12:11:29Z</time>
      </trkpt>
      <trkpt lat="46.49117" lon="6.1188">
        <ele>1532.5</ele>
        <time>2024-02-02T12:11:50Z</time>
      </trkpt>
      <trkpt lat="46.49122" lon="6.1187">
        <ele>1534.4</ele>
        <time>2024-02-02T12:12:08Z</time>
      </trkpt>
      <trkpt lat="46.49123" lon="6.11857">
        <ele>1537.3</ele>
        <time>2024-02-02T12:12:28Z</time>
      </trkpt>
      <trkpt lat="46.49119" lon="6.11844">
        <ele>1540</ele>
        <time>2024-02-02T12:12:41Z</time>
      </trkpt>
      <trkpt lat="46.49127" lon="6.11836">
        <ele>1542.1</ele>
        <time>2024-02-02T12:12:57Z</time>
      </trkpt>
      <trkpt lat="46.49131" lon="6.11824">
        <ele>1542.6</ele>
        <time>2024-02-02T12:13:16Z</time>
      </trkpt>
      <trkpt lat="46.4914" lon="6.1182">
        <ele>1543.5</ele>
        <time>2024-02-02T12:36:35Z</time>
      </trkpt>
      <trkpt lat="46.49148" lon="6.11816">
        <ele>1542.5</ele>
        <time>2024-02-02T12:36:48Z</time>
      </trkpt>
      <trkpt lat="46.49139" lon="6.11819">
        <ele>1543.5</ele>
        <time>2024-02-02T12:38:18Z</time>
      </trkpt>
      <trkpt lat="46.49133" lon="6.11829">
        <ele>1543.1</ele>
        <time>2024-02-02T12:44:48Z</time>
      </trkpt>
      <trkpt lat="46.49125" lon="6.11824">
        <ele>1541.8</ele>
        <time>2024-02-02T12:49:00Z</time>
      </trkpt>
      <trkpt lat="46.49117" lon="6.11831">
        <ele>1541.4</ele>
        <time>2024-02-02T12:49:16Z</time>
      </trkpt>
      <trkpt lat="46.49107" lon="6.11834">
        <ele>1540.4</ele>
        <time>2024-02-02T12:49:57Z</time>
      </trkpt>
      <trkpt lat="46.49098" lon="6.11834">
        <ele>1539.1</ele>
        <time>2024-02-02T12:50:08Z</time>
      </trkpt>
      <trkpt lat="46.49089" lon="6.1183">
        <ele>1537.5</ele>
        <time>2024-02-02T12:50:18Z</time>
      </trkpt>
      <trkpt lat="46.4908" lon="6.1183">
        <ele>1536.3</ele>
        <time>2024-02-02T12:50:28Z</time>
      </trkpt>
      <trkpt lat="46.49071" lon="6.11826">
        <ele>1535.2</ele>
        <time>2024-02-02T12:50:40Z</time>
      </trkpt>
      <trkpt lat="46.49062" lon="6.11823">
        <ele>1534.4</ele>
        <time>2024-02-02T12:50:50Z</time>
      </trkpt>
      <trkpt lat="46.49053" lon="6.1182">
        <ele>1533.9</ele>
        <time>2024-02-02T12:51:00Z</time>
      </trkpt>
      <trkpt lat="46.49044" lon="6.1182">
        <ele>1533.5</ele>
        <time>2024-02-02T12:51:15Z</time>
      </trkpt>
      <trkpt lat="46.49035" lon="6.11816">
        <ele>1533.7</ele>
        <time>2024-02-02T12:51:26Z</time>
      </trkpt>
      <trkpt lat="46.49027" lon="6.11809">
        <ele>1534.5</ele>
        <time>2024-02-02T12:51:38Z</time>
      </trkpt>
      <trkpt lat="46.49018" lon="6.11806">
        <ele>1532.9</ele>
        <time>2024-02-02T12:51:53Z</time>
      </trkpt>
      <trkpt lat="46.49009" lon="6.11803">
        <ele>1531.1</ele>
        <time>2024-02-02T12:52:04Z</time>
      </trkpt>
      <trkpt lat="46.49004" lon="6.11792">
        <ele>1530.3</ele>
        <time>2024-02-02T12:52:12Z</time>
      </trkpt>
      <trkpt lat="46.48999" lon="6.11781">
        <ele>1529.6</ele>
        <time>2024-02-02T12:52:21Z</time>
      </trkpt>
      <trkpt lat="46.48993" lon="6.1177">
        <ele>1528.9</ele>
        <time>2024-02-02T12:52:53Z</time>
      </trkpt>
      <trkpt lat="46.48985" lon="6.11764">
        <ele>1527.4</ele>
        <time>2024-02-02T12:53:15Z</time>
      </trkpt>
      <trkpt lat="46.48978" lon="6.11756">
        <ele>1526.6</ele>
        <time>2024-02-02T12:53:28Z</time>
      </trkpt>
      <trkpt lat="46.4897" lon="6.11749">
        <ele>1525.3</ele>
        <time>2024-02-02T12:53:39Z</time>
      </trkpt>
      <trkpt lat="46.48962" lon="6.11741">
        <ele>1524</ele>
        <time>2024-02-02T12:53:49Z</time>
      </trkpt>
      <trkpt lat="46.48954" lon="6.11735">
        <ele>1522.7</ele>
        <time>2024-02-02T12:54:02Z</time>
      </trkpt>
      <trkpt lat="46.48945" lon="6.11732">
        <ele>1521.7</ele>
        <time>2024-02-02T12:54:12Z</time>
      </trkpt>
      <trkpt lat="46.48937" lon="6.11723">
        <ele>1520.7</ele>
        <time>2024-02-02T12:54:23Z</time>
      </trkpt>
      <trkpt lat="46.4893" lon="6.11715">
        <ele>1519</ele>
        <time>2024-02-02T12:54:32Z</time>
      </trkpt>
      <trkpt lat="46.48925" lon="6.11704">
        <ele>1518.4</ele>
        <time>2024-02-02T12:54:43Z</time>
      </trkpt>
      <trkpt lat="46.4892" lon="6.11692">
        <ele>1518.4</ele>
        <time>2024-02-02T12:54:53Z</time>
      </trkpt>
      <trkpt lat="46.48911" lon="6.11686">
        <ele>1516.9</ele>
        <time>2024-02-02T12:55:02Z</time>
      </trkpt>
      <trkpt lat="46.48901" lon="6.11685">
        <ele>1514.3</ele>
        <time>2024-02-02T12:55:13Z</time>
      </trkpt>
      <trkpt lat="46.48892" lon="6.11686">
        <ele>1511.6</ele>
        <time>2024-02-02T12:55:24Z</time>
      </trkpt>
      <trkpt lat="46.48886" lon="6.11674">
        <ele>1512.4</ele>
        <time>2024-02-02T12:55:33Z</time>
      </trkpt>
      <trkpt lat="46.4888" lon="6.11665">
        <ele>1512</ele>
        <time>2024-02-02T12:55:44Z</time>
      </trkpt>
      <trkpt lat="46.48871" lon="6.1166">
        <ele>1509.4</ele>
        <time>2024-02-02T12:55:54Z</time>
      </trkpt>
      <trkpt lat="46.48863" lon="6.11653">
        <ele>1507.7</ele>
        <time>2024-02-02T12:56:05Z</time>
      </trkpt>
      <trkpt lat="46.48856" lon="6.11645">
        <ele>1505.7</ele>
        <time>2024-02-02T12:56:15Z</time>
      </trkpt>
      <trkpt lat="46.48848" lon="6.11639">
        <ele>1502.8</ele>
        <time>2024-02-02T12:56:25Z</time>
      </trkpt>
      <trkpt lat="46.4884" lon="6.11631">
        <ele>1500.9</ele>
        <time>2024-02-02T12:56:37Z</time>
      </trkpt>
      <trkpt lat="46.48831" lon="6.11627">
        <ele>1498.8</ele>
        <time>2024-02-02T12:56:48Z</time>
      </trkpt>
      <trkpt lat="46.48821" lon="6.11623">
        <ele>1499.6</ele>
        <time>2024-02-02T12:56:57Z</time>
      </trkpt>
      <trkpt lat="46.48813" lon="6.11617">
        <ele>1500.7</ele>
        <time>2024-02-02T12:57:07Z</time>
      </trkpt>
      <trkpt lat="46.48804" lon="6.11613">
        <ele>1501.6</ele>
        <time>2024-02-02T12:57:18Z</time>
      </trkpt>
      <trkpt lat="46.48796" lon="6.11605">
        <ele>1503.2</ele>
        <time>2024-02-02T12:57:28Z</time>
      </trkpt>
      <trkpt lat="46.48787" lon="6.11599">
        <ele>1504.2</ele>
        <time>2024-02-02T12:57:38Z</time>
      </trkpt>
      <trkpt lat="46.48778" lon="6.11596">
        <ele>1504.6</ele>
        <time>2024-02-02T12:57:47Z</time>
      </trkpt>
      <trkpt lat="46.4877" lon="6.11589">
        <ele>1506.5</ele>
        <time>2024-02-02T12:57:59Z</time>
      </trkpt>
      <trkpt lat="46.48762" lon="6.11583">
        <ele>1508.8</ele>
        <time>2024-02-02T12:58:13Z</time>
      </trkpt>
      <trkpt lat="46.48753" lon="6.11581">
        <ele>1510.6</ele>
        <time>2024-02-02T12:58:25Z</time>
      </trkpt>
      <trkpt lat="46.48743" lon="6.11578">
        <ele>1511.2</ele>
        <time>2024-02-02T12:58:37Z</time>
      </trkpt>
      <trkpt lat="46.48734" lon="6.11572">
        <ele>1511.9</ele>
        <time>2024-02-02T12:58:48Z</time>
      </trkpt>
      <trkpt lat="46.48726" lon="6.11564">
        <ele>1513.8</ele>
        <time>2024-02-02T12:59:00Z</time>
      </trkpt>
      <trkpt lat="46.48719" lon="6.11558">
        <ele>1515.7</ele>
        <time>2024-02-02T12:59:09Z</time>
      </trkpt>
      <trkpt lat="46.48709" lon="6.11555">
        <ele>1516.5</ele>
        <time>2024-02-02T12:59:19Z</time>
      </trkpt>
      <trkpt lat="46.487" lon="6.11551">
        <ele>1517.2</ele>
        <time>2024-02-02T12:59:32Z</time>
      </trkpt>
      <trkpt lat="46.48692" lon="6.11548">
        <ele>1518.2</ele>
        <time>2024-02-02T12:59:44Z</time>
      </trkpt>
      <trkpt lat="46.48683" lon="6.11547">
        <ele>1519.2</ele>
        <time>2024-02-02T12:59:55Z</time>
      </trkpt>
      <trkpt lat="46.48674" lon="6.11542">
        <ele>1520.7</ele>
        <time>2024-02-02T13:00:06Z</time>
      </trkpt>
      <trkpt lat="46.48664" lon="6.11545">
        <ele>1521.6</ele>
        <time>2024-02-02T13:00:19Z</time>
      </trkpt>
      <trkpt lat="46.48655" lon="6.11543">
        <ele>1523.6</ele>
        <time>2024-02-02T13:00:28Z</time>
      </trkpt>
      <trkpt lat="46.48646" lon="6.11544">
        <ele>1525.4</ele>
        <time>2024-02-02T13:00:38Z</time>
      </trkpt>
      <trkpt lat="46.48637" lon="6.11543">
        <ele>1527.4</ele>
        <time>2024-02-02T13:00:48Z</time>
      </trkpt>
      <trkpt lat="46.48628" lon="6.11548">
        <ele>1529.3</ele>
        <time>2024-02-02T13:01:00Z</time>
      </trkpt>
      <trkpt lat="46.48622" lon="6.11559">
        <ele>1530.4</ele>
        <time>2024-02-02T13:01:21Z</time>
      </trkpt>
      <trkpt lat="46.48615" lon="6.11567">
        <ele>1532.2</ele>
        <time>2024-02-02T13:01:34Z</time>
      </trkpt>
      <trkpt lat="46.4861" lon="6.11578">
        <ele>1533.1</ele>
        <time>2024-02-02T13:01:50Z</time>
      </trkpt>
      <trkpt lat="46.48605" lon="6.1159">
        <ele>1533.5</ele>
        <time>2024-02-02T13:02:02Z</time>
      </trkpt>
      <trkpt lat="46.48596" lon="6.11595">
        <ele>1534.4</ele>
        <time>2024-02-02T13:02:15Z</time>
      </trkpt>
      <trkpt lat="46.48588" lon="6.11602">
        <ele>1535.4</ele>
        <time>2024-02-02T13:02:30Z</time>
      </trkpt>
      <trkpt lat="46.48579" lon="6.11605">
        <ele>1536.4</ele>
        <time>2024-02-02T13:02:42Z</time>
      </trkpt>
      <trkpt lat="46.4857" lon="6.11605">
        <ele>1537.1</ele>
        <time>2024-02-02T13:03:29Z</time>
      </trkpt>
      <trkpt lat="46.48561" lon="6.11604">
        <ele>1538</ele>
        <time>2024-02-02T13:03:38Z</time>
      </trkpt>
      <trkpt lat="46.48553" lon="6.11597">
        <ele>1539.3</ele>
        <time>2024-02-02T13:03:50Z</time>
      </trkpt>
      <trkpt lat="46.48544" lon="6.11594">
        <ele>1540.6</ele>
        <time>2024-02-02T13:04:03Z</time>
      </trkpt>
      <trkpt lat="46.48536" lon="6.11588">
        <ele>1541.9</ele>
        <time>2024-02-02T13:04:15Z</time>
      </trkpt>
      <trkpt lat="46.48529" lon="6.1158">
        <ele>1543</ele>
        <time>2024-02-02T13:04:25Z</time>
      </trkpt>
      <trkpt lat="46.4852" lon="6.11574">
        <ele>1544.7</ele>
        <time>2024-02-02T13:04:38Z</time>
      </trkpt>
      <trkpt lat="46.48512" lon="6.1157">
        <ele>1546.4</ele>
        <time>2024-02-02T13:04:50Z</time>
      </trkpt>
      <trkpt lat="46.48503" lon="6.11574">
        <ele>1547.8</ele>
        <time>2024-02-02T13:05:00Z</time>
      </trkpt>
      <trkpt lat="46.48496" lon="6.11582">
        <ele>1548.8</ele>
        <time>2024-02-02T13:05:14Z</time>
      </trkpt>
      <trkpt lat="46.48486" lon="6.11583">
        <ele>1550.6</ele>
        <time>2024-02-02T13:05:26Z</time>
      </trkpt>
      <trkpt lat="46.48478" lon="6.11576">
        <ele>1552.9</ele>
        <time>2024-02-02T13:05:41Z</time>
      </trkpt>
      <trkpt lat="46.48471" lon="6.11568">
        <ele>1555.7</ele>
        <time>2024-02-02T13:06:05Z</time>
      </trkpt>
      <trkpt lat="46.48474" lon="6.11555">
        <ele>1556.6</ele>
        <time>2024-02-02T13:06:48Z</time>
      </trkpt>
      <trkpt lat="46.48464" lon="6.11553">
        <ele>1559</ele>
        <time>2024-02-02T13:06:59Z</time>
      </trkpt>
      <trkpt lat="46.48456" lon="6.11557">
        <ele>1560.4</ele>
        <time>2024-02-02T13:07:11Z</time>
      </trkpt>
      <trkpt lat="46.48447" lon="6.11562">
        <ele>1562.5</ele>
        <time>2024-02-02T13:07:25Z</time>
      </trkpt>
      <trkpt lat="46.4844" lon="6.1157">
        <ele>1563.5</ele>
        <time>2024-02-02T13:07:48Z</time>
      </trkpt>
      <trkpt lat="46.48431" lon="6.11565">
        <ele>1563.3</ele>
        <time>2024-02-02T13:08:06Z</time>
      </trkpt>
      <trkpt lat="46.48423" lon="6.11572">
        <ele>1563.6</ele>
        <time>2024-02-02T13:08:22Z</time>
      </trkpt>
      <trkpt lat="46.48415" lon="6.11578">
        <ele>1563.1</ele>
        <time>2024-02-02T13:12:25Z</time>
      </trkpt>
      <trkpt lat="46.4841" lon="6.11566">
        <ele>1561.6</ele>
        <time>2024-02-02T13:12:44Z</time>
      </trkpt>
      <trkpt lat="46.48404" lon="6.11556">
        <ele>1560.6</ele>
        <time>2024-02-02T13:13:05Z</time>
      </trkpt>
      <trkpt lat="46.484" lon="6.11544">
        <ele>1557.3</ele>
        <time>2024-02-02T13:13:18Z</time>
      </trkpt>
      <trkpt lat="46.48391" lon="6.11543">
        <ele>1556</ele>
        <time>2024-02-02T13:13:27Z</time>
      </trkpt>
      <trkpt lat="46.48383" lon="6.11549">
        <ele>1553.9</ele>
        <time>2024-02-02T13:13:35Z</time>
      </trkpt>
      <trkpt lat="46.48375" lon="6.11542">
        <ele>1549.7</ele>
        <time>2024-02-02T13:13:47Z</time>
      </trkpt>
      <trkpt lat="46.48374" lon="6.11529">
        <ele>1548.4</ele>
        <time>2024-02-02T13:13:58Z</time>
      </trkpt>
      <trkpt lat="46.48376" lon="6.11515">
        <ele>1547.6</ele>
        <time>2024-02-02T13:14:08Z</time>
      </trkpt>
      <trkpt lat="46.48371" lon="6.11504">
        <ele>1546</ele>
        <time>2024-02-02T13:14:21Z</time>
      </trkpt>
      <trkpt lat="46.48366" lon="6.11493">
        <ele>1545</ele>
        <time>2024-02-02T13:14:36Z</time>
      </trkpt>
      <trkpt lat="46.48361" lon="6.11482">
        <ele>1544.3</ele>
        <time>2024-02-02T13:14:47Z</time>
      </trkpt>
      <trkpt lat="46.48353" lon="6.11475">
        <ele>1542.4</ele>
        <time>2024-02-02T13:14:59Z</time>
      </trkpt>
      <trkpt lat="46.48355" lon="6.11461">
        <ele>1541.5</ele>
        <time>2024-02-02T13:15:18Z</time>
      </trkpt>
      <trkpt lat="46.48364" lon="6.11456">
        <ele>1541.8</ele>
        <time>2024-02-02T13:15:30Z</time>
      </trkpt>
      <trkpt lat="46.48363" lon="6.11443">
        <ele>1539.7</ele>
        <time>2024-02-02T13:15:44Z</time>
      </trkpt>
      <trkpt lat="46.48364" lon="6.11429">
        <ele>1537</ele>
        <time>2024-02-02T13:16:00Z</time>
      </trkpt>
      <trkpt lat="46.4836" lon="6.11417">
        <ele>1534.2</ele>
        <time>2024-02-02T13:16:10Z</time>
      </trkpt>
      <trkpt lat="46.48352" lon="6.11408">
        <ele>1533.1</ele>
        <time>2024-02-02T13:16:20Z</time>
      </trkpt>
      <trkpt lat="46.48346" lon="6.11397">
        <ele>1531.5</ele>
        <time>2024-02-02T13:16:29Z</time>
      </trkpt>
      <trkpt lat="46.4834" lon="6.11387">
        <ele>1529.5</ele>
        <time>2024-02-02T13:16:40Z</time>
      </trkpt>
      <trkpt lat="46.48333" lon="6.11378">
        <ele>1527.8</ele>
        <time>2024-02-02T13:16:50Z</time>
      </trkpt>
      <trkpt lat="46.48324" lon="6.11373">
        <ele>1526.9</ele>
        <time>2024-02-02T13:16:58Z</time>
      </trkpt>
      <trkpt lat="46.4832" lon="6.11361">
        <ele>1525</ele>
        <time>2024-02-02T13:17:11Z</time>
      </trkpt>
      <trkpt lat="46.48312" lon="6.11353">
        <ele>1525</ele>
        <time>2024-02-02T13:17:31Z</time>
      </trkpt>
      <trkpt lat="46.48303" lon="6.1135">
        <ele>1525.7</ele>
        <time>2024-02-02T13:17:43Z</time>
      </trkpt>
      <trkpt lat="46.48293" lon="6.1135">
        <ele>1527.3</ele>
        <time>2024-02-02T13:17:51Z</time>
      </trkpt>
      <trkpt lat="46.48284" lon="6.1135">
        <ele>1528.9</ele>
        <time>2024-02-02T13:18:03Z</time>
      </trkpt>
      <trkpt lat="46.48276" lon="6.11345">
        <ele>1530.4</ele>
        <time>2024-02-02T13:18:32Z</time>
      </trkpt>
      <trkpt lat="46.48278" lon="6.11332">
        <ele>1533.1</ele>
        <time>2024-02-02T13:18:47Z</time>
      </trkpt>
      <trkpt lat="46.48274" lon="6.1132">
        <ele>1533.6</ele>
        <time>2024-02-02T13:18:57Z</time>
      </trkpt>
      <trkpt lat="46.48268" lon="6.11309">
        <ele>1534.7</ele>
        <time>2024-02-02T13:19:11Z</time>
      </trkpt>
      <trkpt lat="46.48265" lon="6.11296">
        <ele>1536</ele>
        <time>2024-02-02T13:19:20Z</time>
      </trkpt>
      <trkpt lat="46.48257" lon="6.11287">
        <ele>1537.2</ele>
        <time>2024-02-02T13:19:30Z</time>
      </trkpt>
      <trkpt lat="46.4825" lon="6.11279">
        <ele>1538.8</ele>
        <time>2024-02-02T13:19:39Z</time>
      </trkpt>
      <trkpt lat="46.48245" lon="6.11268">
        <ele>1538.6</ele>
        <time>2024-02-02T13:19:49Z</time>
      </trkpt>
      <trkpt lat="46.48243" lon="6.11254">
        <ele>1539.6</ele>
        <time>2024-02-02T13:20:00Z</time>
      </trkpt>
      <trkpt lat="46.48242" lon="6.1124">
        <ele>1540</ele>
        <time>2024-02-02T13:20:12Z</time>
      </trkpt>
      <trkpt lat="46.48241" lon="6.11227">
        <ele>1539.7</ele>
        <time>2024-02-02T13:20:20Z</time>
      </trkpt>
      <trkpt lat="46.48235" lon="6.11218">
        <ele>1539.5</ele>
        <time>2024-02-02T13:20:31Z</time>
      </trkpt>
      <trkpt lat="46.48229" lon="6.11207">
        <ele>1540.1</ele>
        <time>2024-02-02T13:21:16Z</time>
      </trkpt>
      <trkpt lat="46.48227" lon="6.11195">
        <ele>1541.1</ele>
        <time>2024-02-02T13:21:24Z</time>
      </trkpt>
      <trkpt lat="46.48229" lon="6.11181">
        <ele>1540.8</ele>
        <time>2024-02-02T13:21:33Z</time>
      </trkpt>
      <trkpt lat="46.48228" lon="6.11168">
        <ele>1541</ele>
        <time>2024-02-02T13:21:44Z</time>
      </trkpt>
      <trkpt lat="46.48226" lon="6.11154">
        <ele>1541.2</ele>
        <time>2024-02-02T13:22:02Z</time>
      </trkpt>
      <trkpt lat="46.48224" lon="6.11141">
        <ele>1541.5</ele>
        <time>2024-02-02T13:22:19Z</time>
      </trkpt>
      <trkpt lat="46.48224" lon="6.11128">
        <ele>1541</ele>
        <time>2024-02-02T13:22:31Z</time>
      </trkpt>
      <trkpt lat="46.48227" lon="6.11115">
        <ele>1539.7</ele>
        <time>2024-02-02T13:22:40Z</time>
      </trkpt>
      <trkpt lat="46.4823" lon="6.11102">
        <ele>1538.5</ele>
        <time>2024-02-02T13:22:51Z</time>
      </trkpt>
      <trkpt lat="46.48233" lon="6.11088">
        <ele>1537.5</ele>
        <time>2024-02-02T13:23:03Z</time>
      </trkpt>
      <trkpt lat="46.48236" lon="6.11075">
        <ele>1536.1</ele>
        <time>2024-02-02T13:23:15Z</time>
      </trkpt>
      <trkpt lat="46.4824" lon="6.11063">
        <ele>1534.7</ele>
        <time>2024-02-02T13:23:27Z</time>
      </trkpt>
      <trkpt lat="46.48242" lon="6.1105">
        <ele>1533.1</ele>
        <time>2024-02-02T13:23:37Z</time>
      </trkpt>
      <trkpt lat="46.48242" lon="6.11036">
        <ele>1531.2</ele>
        <time>2024-02-02T13:23:48Z</time>
      </trkpt>
      <trkpt lat="46.48242" lon="6.11022">
        <ele>1529.6</ele>
        <time>2024-02-02T13:23:56Z</time>
      </trkpt>
      <trkpt lat="46.48241" lon="6.11009">
        <ele>1528.9</ele>
        <time>2024-02-02T13:24:05Z</time>
      </trkpt>
      <trkpt lat="46.48238" lon="6.10995">
        <ele>1528.5</ele>
        <time>2024-02-02T13:24:15Z</time>
      </trkpt>
      <trkpt lat="46.48234" lon="6.10984">
        <ele>1528.3</ele>
        <time>2024-02-02T13:24:26Z</time>
      </trkpt>
      <trkpt lat="46.48224" lon="6.10979">
        <ele>1528</ele>
        <time>2024-02-02T13:24:36Z</time>
      </trkpt>
      <trkpt lat="46.48214" lon="6.10976">
        <ele>1526.8</ele>
        <time>2024-02-02T13:24:46Z</time>
      </trkpt>
      <trkpt lat="46.48206" lon="6.10969">
        <ele>1525</ele>
        <time>2024-02-02T13:24:56Z</time>
      </trkpt>
      <trkpt lat="46.482" lon="6.10958">
        <ele>1523.6</ele>
        <time>2024-02-02T13:25:05Z</time>
      </trkpt>
      <trkpt lat="46.48192" lon="6.10951">
        <ele>1521.9</ele>
        <time>2024-02-02T13:25:14Z</time>
      </trkpt>
      <trkpt lat="46.48184" lon="6.10946">
        <ele>1519.1</ele>
        <time>2024-02-02T13:25:25Z</time>
      </trkpt>
      <trkpt lat="46.48191" lon="6.10956">
        <ele>1522</ele>
        <time>2024-02-02T13:26:11Z</time>
      </trkpt>
      <trkpt lat="46.48188" lon="6.10943">
        <ele>1520</ele>
        <time>2024-02-02T13:27:22Z</time>
      </trkpt>
      <trkpt lat="46.48179" lon="6.1094">
        <ele>1517.1</ele>
        <time>2024-02-02T13:27:30Z</time>
      </trkpt>
      <trkpt lat="46.48175" lon="6.10929">
        <ele>1514.6</ele>
        <time>2024-02-02T13:27:50Z</time>
      </trkpt>
      <trkpt lat="46.48167" lon="6.10922">
        <ele>1511.6</ele>
        <time>2024-02-02T13:28:04Z</time>
      </trkpt>
      <trkpt lat="46.48159" lon="6.10915">
        <ele>1509.3</ele>
        <time>2024-02-02T13:28:14Z</time>
      </trkpt>
      <trkpt lat="46.4815" lon="6.10912">
        <ele>1507.3</ele>
        <time>2024-02-02T13:28:24Z</time>
      </trkpt>
      <trkpt lat="46.48141" lon="6.10908">
        <ele>1505</ele>
        <time>2024-02-02T13:28:37Z</time>
      </trkpt>
      <trkpt lat="46.48132" lon="6.10905">
        <ele>1503.6</ele>
        <time>2024-02-02T13:28:44Z</time>
      </trkpt>
      <trkpt lat="46.48124" lon="6.10897">
        <ele>1501.4</ele>
        <time>2024-02-02T13:28:52Z</time>
      </trkpt>
      <trkpt lat="46.48115" lon="6.10893">
        <ele>1499.4</ele>
        <time>2024-02-02T13:28:59Z</time>
      </trkpt>
      <trkpt lat="46.48106" lon="6.10889">
        <ele>1498.2</ele>
        <time>2024-02-02T13:29:07Z</time>
      </trkpt>
      <trkpt lat="46.48098" lon="6.10881">
        <ele>1496.9</ele>
        <time>2024-02-02T13:29:16Z</time>
      </trkpt>
      <trkpt lat="46.4809" lon="6.10873">
        <ele>1495.4</ele>
        <time>2024-02-02T13:29:25Z</time>
      </trkpt>
      <trkpt lat="46.48084" lon="6.10862">
        <ele>1493.1</ele>
        <time>2024-02-02T13:29:35Z</time>
      </trkpt>
      <trkpt lat="46.48076" lon="6.10854">
        <ele>1492</ele>
        <time>2024-02-02T13:29:44Z</time>
      </trkpt>
      <trkpt lat="46.48069" lon="6.10844">
        <ele>1490.8</ele>
        <time>2024-02-02T13:29:53Z</time>
      </trkpt>
      <trkpt lat="46.4806" lon="6.10838">
        <ele>1490.3</ele>
        <time>2024-02-02T13:30:03Z</time>
      </trkpt>
      <trkpt lat="46.48051" lon="6.10836">
        <ele>1490.3</ele>
        <time>2024-02-02T13:30:43Z</time>
      </trkpt>
      <trkpt lat="46.48043" lon="6.10843">
        <ele>1490.7</ele>
        <time>2024-02-02T13:31:01Z</time>
      </trkpt>
      <trkpt lat="46.48035" lon="6.10851">
        <ele>1490.3</ele>
        <time>2024-02-02T13:31:15Z</time>
      </trkpt>
      <trkpt lat="46.48028" lon="6.1086">
        <ele>1489</ele>
        <time>2024-02-02T13:31:25Z</time>
      </trkpt>
      <trkpt lat="46.48022" lon="6.10872">
        <ele>1489.2</ele>
        <time>2024-02-02T13:31:35Z</time>
      </trkpt>
      <trkpt lat="46.48015" lon="6.1088">
        <ele>1488.9</ele>
        <time>2024-02-02T13:31:45Z</time>
      </trkpt>
      <trkpt lat="46.48015" lon="6.10895">
        <ele>1489.6</ele>
        <time>2024-02-02T13:31:58Z</time>
      </trkpt>
      <trkpt lat="46.48007" lon="6.10904">
        <ele>1488.9</ele>
        <time>2024-02-02T13:32:09Z</time>
      </trkpt>
      <trkpt lat="46.48006" lon="6.10917">
        <ele>1489.2</ele>
        <time>2024-02-02T13:32:17Z</time>
      </trkpt>
      <trkpt lat="46.48002" lon="6.10929">
        <ele>1487</ele>
        <time>2024-02-02T13:32:33Z</time>
      </trkpt>
      <trkpt lat="46.48002" lon="6.10943">
        <ele>1485.7</ele>
        <time>2024-02-02T13:32:51Z</time>
      </trkpt>
      <trkpt lat="46.47993" lon="6.10947">
        <ele>1482.5</ele>
        <time>2024-02-02T13:33:04Z</time>
      </trkpt>
      <trkpt lat="46.47991" lon="6.10961">
        <ele>1480.3</ele>
        <time>2024-02-02T13:33:24Z</time>
      </trkpt>
      <trkpt lat="46.47983" lon="6.10967">
        <ele>1476.2</ele>
        <time>2024-02-02T13:33:44Z</time>
      </trkpt>
      <trkpt lat="46.47973" lon="6.10966">
        <ele>1472.6</ele>
        <time>2024-02-02T13:34:00Z</time>
      </trkpt>
      <trkpt lat="46.47966" lon="6.10974">
        <ele>1468.6</ele>
        <time>2024-02-02T13:34:16Z</time>
      </trkpt>
      <trkpt lat="46.4797" lon="6.10987">
        <ele>1468.1</ele>
        <time>2024-02-02T13:34:25Z</time>
      </trkpt>
      <trkpt lat="46.47974" lon="6.11">
        <ele>1467.7</ele>
        <time>2024-02-02T13:34:34Z</time>
      </trkpt>
      <trkpt lat="46.47978" lon="6.11012">
        <ele>1469.1</ele>
        <time>2024-02-02T13:34:44Z</time>
      </trkpt>
      <trkpt lat="46.47981" lon="6.11026">
        <ele>1469.3</ele>
        <time>2024-02-02T13:34:54Z</time>
      </trkpt>
      <trkpt lat="46.47987" lon="6.11036">
        <ele>1470.3</ele>
        <time>2024-02-02T13:35:06Z</time>
      </trkpt>
      <trkpt lat="46.47986" lon="6.11049">
        <ele>1468.5</ele>
        <time>2024-02-02T13:35:35Z</time>
      </trkpt>
      <trkpt lat="46.47978" lon="6.11057">
        <ele>1465.1</ele>
        <time>2024-02-02T13:35:54Z</time>
      </trkpt>
      <trkpt lat="46.47968" lon="6.11058">
        <ele>1462</ele>
        <time>2024-02-02T13:36:07Z</time>
      </trkpt>
      <trkpt lat="46.47961" lon="6.11066">
        <ele>1459.9</ele>
        <time>2024-02-02T13:36:22Z</time>
      </trkpt>
      <trkpt lat="46.47963" lon="6.1108">
        <ele>1460.2</ele>
        <time>2024-02-02T13:36:38Z</time>
      </trkpt>
      <trkpt lat="46.47963" lon="6.11093">
        <ele>1458.7</ele>
        <time>2024-02-02T13:36:50Z</time>
      </trkpt>
      <trkpt lat="46.47962" lon="6.11107">
        <ele>1456.7</ele>
        <time>2024-02-02T13:37:03Z</time>
      </trkpt>
      <trkpt lat="46.47964" lon="6.11119">
        <ele>1455</ele>
        <time>2024-02-02T13:37:19Z</time>
      </trkpt>
      <trkpt lat="46.47961" lon="6.11132">
        <ele>1451.6</ele>
        <time>2024-02-02T13:37:31Z</time>
      </trkpt>
      <trkpt lat="46.47963" lon="6.11145">
        <ele>1449.3</ele>
        <time>2024-02-02T13:37:49Z</time>
      </trkpt>
      <trkpt lat="46.47967" lon="6.11157">
        <ele>1448.3</ele>
        <time>2024-02-02T13:38:06Z</time>
      </trkpt>
      <trkpt lat="46.47969" lon="6.1117">
        <ele>1446.4</ele>
        <time>2024-02-02T13:38:20Z</time>
      </trkpt>
      <trkpt lat="46.47975" lon="6.11181">
        <ele>1447.1</ele>
        <time>2024-02-02T13:38:28Z</time>
      </trkpt>
      <trkpt lat="46.4797" lon="6.11193">
        <ele>1443.7</ele>
        <time>2024-02-02T13:38:37Z</time>
      </trkpt>
      <trkpt lat="46.47963" lon="6.11202">
        <ele>1441.7</ele>
        <time>2024-02-02T13:39:00Z</time>
      </trkpt>
      <trkpt lat="46.47958" lon="6.11213">
        <ele>1439.6</ele>
        <time>2024-02-02T13:39:19Z</time>
      </trkpt>
      <trkpt lat="46.47958" lon="6.11226">
        <ele>1439.3</ele>
        <time>2024-02-02T13:39:31Z</time>
      </trkpt>
      <trkpt lat="46.47958" lon="6.1124">
        <ele>1439.3</ele>
        <time>2024-02-02T13:39:41Z</time>
      </trkpt>
      <trkpt lat="46.47951" lon="6.11251">
        <ele>1437.6</ele>
        <time>2024-02-02T13:39:50Z</time>
      </trkpt>
      <trkpt lat="46.47947" lon="6.11264">
        <ele>1434.8</ele>
        <time>2024-02-02T13:40:00Z</time>
      </trkpt>
      <trkpt lat="46.47948" lon="6.11277">
        <ele>1433.2</ele>
        <time>2024-02-02T13:40:13Z</time>
      </trkpt>
      <trkpt lat="46.47947" lon="6.11291">
        <ele>1431.5</ele>
        <time>2024-02-02T13:40:26Z</time>
      </trkpt>
      <trkpt lat="46.47949" lon="6.11305">
        <ele>1431</ele>
        <time>2024-02-02T13:40:35Z</time>
      </trkpt>
      <trkpt lat="46.47951" lon="6.11319">
        <ele>1431</ele>
        <time>2024-02-02T13:40:49Z</time>
      </trkpt>
      <trkpt lat="46.47954" lon="6.11332">
        <ele>1430.8</ele>
        <time>2024-02-02T13:41:01Z</time>
      </trkpt>
      <trkpt lat="46.47962" lon="6.11339">
        <ele>1431.8</ele>
        <time>2024-02-02T13:41:11Z</time>
      </trkpt>
      <trkpt lat="46.4797" lon="6.11347">
        <ele>1432.6</ele>
        <time>2024-02-02T13:41:21Z</time>
      </trkpt>
      <trkpt lat="46.47977" lon="6.11357">
        <ele>1433.3</ele>
        <time>2024-02-02T13:41:31Z</time>
      </trkpt>
      <trkpt lat="46.47984" lon="6.11365">
        <ele>1434</ele>
        <time>2024-02-02T13:41:40Z</time>
      </trkpt>
      <trkpt lat="46.47992" lon="6.11372">
        <ele>1434.7</ele>
        <time>2024-02-02T13:41:49Z</time>
      </trkpt>
      <trkpt lat="46.47999" lon="6.11381">
        <ele>1434.9</ele>
        <time>2024-02-02T13:41:58Z</time>
      </trkpt>
      <trkpt lat="46.48005" lon="6.11391">
        <ele>1435.5</ele>
        <time>2024-02-02T13:42:10Z</time>
      </trkpt>
      <trkpt lat="46.4801" lon="6.11402">
        <ele>1435.7</ele>
        <time>2024-02-02T13:42:21Z</time>
      </trkpt>
      <trkpt lat="46.48016" lon="6.11413">
        <ele>1435.7</ele>
        <time>2024-02-02T13:42:37Z</time>
      </trkpt>
      <trkpt lat="46.48023" lon="6.11423">
        <ele>1436</ele>
        <time>2024-02-02T13:42:49Z</time>
      </trkpt>
      <trkpt lat="46.48028" lon="6.11435">
        <ele>1434.5</ele>
        <time>2024-02-02T13:43:02Z</time>
      </trkpt>
      <trkpt lat="46.48033" lon="6.11447">
        <ele>1433.4</ele>
        <time>2024-02-02T13:43:13Z</time>
      </trkpt>
      <trkpt lat="46.48041" lon="6.11456">
        <ele>1434.4</ele>
        <time>2024-02-02T13:43:24Z</time>
      </trkpt>
      <trkpt lat="46.48048" lon="6.11464">
        <ele>1434.5</ele>
        <time>2024-02-02T13:43:33Z</time>
      </trkpt>
      <trkpt lat="46.48055" lon="6.11474">
        <ele>1433.8</ele>
        <time>2024-02-02T13:43:41Z</time>
      </trkpt>
      <trkpt lat="46.48062" lon="6.11484">
        <ele>1434.7</ele>
        <time>2024-02-02T13:43:49Z</time>
      </trkpt>
      <trkpt lat="46.48069" lon="6.11493">
        <ele>1435.5</ele>
        <time>2024-02-02T13:43:59Z</time>
      </trkpt>
      <trkpt lat="46.48073" lon="6.11504">
        <ele>1435.3</ele>
        <time>2024-02-02T13:44:09Z</time>
      </trkpt>
      <trkpt lat="46.48081" lon="6.11513">
        <ele>1435.4</ele>
        <time>2024-02-02T13:44:19Z</time>
      </trkpt>
      <trkpt lat="46.48088" lon="6.11523">
        <ele>1434.4</ele>
        <time>2024-02-02T13:44:28Z</time>
      </trkpt>
      <trkpt lat="46.48094" lon="6.11534">
        <ele>1433.7</ele>
        <time>2024-02-02T13:44:38Z</time>
      </trkpt>
      <trkpt lat="46.481" lon="6.11544">
        <ele>1433.2</ele>
        <time>2024-02-02T13:44:49Z</time>
      </trkpt>
      <trkpt lat="46.48108" lon="6.11551">
        <ele>1432.5</ele>
        <time>2024-02-02T13:44:58Z</time>
      </trkpt>
      <trkpt lat="46.48116" lon="6.11559">
        <ele>1432.8</ele>
        <time>2024-02-02T13:45:07Z</time>
      </trkpt>
      <trkpt lat="46.48122" lon="6.1157">
        <ele>1432.5</ele>
        <time>2024-02-02T13:45:16Z</time>
      </trkpt>
      <trkpt lat="46.48129" lon="6.1158">
        <ele>1431.6</ele>
        <time>2024-02-02T13:45:24Z</time>
      </trkpt>
      <trkpt lat="46.48136" lon="6.11589">
        <ele>1431.8</ele>
        <time>2024-02-02T13:45:33Z</time>
      </trkpt>
      <trkpt lat="46.48141" lon="6.11601">
        <ele>1433</ele>
        <time>2024-02-02T13:45:42Z</time>
      </trkpt>
      <trkpt lat="46.48148" lon="6.11608">
        <ele>1434.4</ele>
        <time>2024-02-02T13:45:53Z</time>
      </trkpt>
      <trkpt lat="46.48156" lon="6.11616">
        <ele>1435.8</ele>
        <time>2024-02-02T13:46:03Z</time>
      </trkpt>
      <trkpt lat="46.48162" lon="6.11626">
        <ele>1437</ele>
        <time>2024-02-02T13:46:14Z</time>
      </trkpt>
      <trkpt lat="46.48169" lon="6.11635">
        <ele>1438.6</ele>
        <time>2024-02-02T13:46:26Z</time>
      </trkpt>
      <trkpt lat="46.48174" lon="6.11647">
        <ele>1441.2</ele>
        <time>2024-02-02T13:46:38Z</time>
      </trkpt>
      <trkpt lat="46.48181" lon="6.11656">
        <ele>1443.8</ele>
        <time>2024-02-02T13:46:51Z</time>
      </trkpt>
      <trkpt lat="46.48186" lon="6.11666">
        <ele>1445.3</ele>
        <time>2024-02-02T13:47:04Z</time>
      </trkpt>
      <trkpt lat="46.48189" lon="6.11679">
        <ele>1446.5</ele>
        <time>2024-02-02T13:47:16Z</time>
      </trkpt>
      <trkpt lat="46.48193" lon="6.11691">
        <ele>1447.7</ele>
        <time>2024-02-02T13:47:28Z</time>
      </trkpt>
      <trkpt lat="46.48198" lon="6.11702">
        <ele>1450.1</ele>
        <time>2024-02-02T13:47:41Z</time>
      </trkpt>
      <trkpt lat="46.48204" lon="6.11714">
        <ele>1452.6</ele>
        <time>2024-02-02T13:47:53Z</time>
      </trkpt>
      <trkpt lat="46.48211" lon="6.11723">
        <ele>1454.5</ele>
        <time>2024-02-02T13:48:05Z</time>
      </trkpt>
      <trkpt lat="46.48215" lon="6.11735">
        <ele>1455.4</ele>
        <time>2024-02-02T13:48:17Z</time>
      </trkpt>
      <trkpt lat="46.4822" lon="6.11747">
        <ele>1455.8</ele>
        <time>2024-02-02T13:48:31Z</time>
      </trkpt>
      <trkpt lat="46.48223" lon="6.11759">
        <ele>1456.7</ele>
        <time>2024-02-02T13:48:44Z</time>
      </trkpt>
      <trkpt lat="46.48228" lon="6.1177">
        <ele>1458.7</ele>
        <time>2024-02-02T13:48:57Z</time>
      </trkpt>
      <trkpt lat="46.48236" lon="6.1178">
        <ele>1460.8</ele>
        <time>2024-02-02T13:49:08Z</time>
      </trkpt>
      <trkpt lat="46.48241" lon="6.1179">
        <ele>1461.8</ele>
        <time>2024-02-02T13:49:19Z</time>
      </trkpt>
      <trkpt lat="46.48249" lon="6.11797">
        <ele>1462.8</ele>
        <time>2024-02-02T13:49:29Z</time>
      </trkpt>
      <trkpt lat="46.48255" lon="6.11807">
        <ele>1463.8</ele>
        <time>2024-02-02T13:49:44Z</time>
      </trkpt>
      <trkpt lat="46.48263" lon="6.11814">
        <ele>1465.8</ele>
        <time>2024-02-02T13:49:59Z</time>
      </trkpt>
      <trkpt lat="46.48268" lon="6.11825">
        <ele>1465.6</ele>
        <time>2024-02-02T13:50:13Z</time>
      </trkpt>
      <trkpt lat="46.48276" lon="6.11833">
        <ele>1465</ele>
        <time>2024-02-02T13:50:23Z</time>
      </trkpt>
      <trkpt lat="46.48281" lon="6.11844">
        <ele>1466.1</ele>
        <time>2024-02-02T13:50:35Z</time>
      </trkpt>
      <trkpt lat="46.48288" lon="6.11853">
        <ele>1466.6</ele>
        <time>2024-02-02T13:50:43Z</time>
      </trkpt>
      <trkpt lat="46.48295" lon="6.11861">
        <ele>1466</ele>
        <time>2024-02-02T13:50:51Z</time>
      </trkpt>
      <trkpt lat="46.48297" lon="6.11874">
        <ele>1466.5</ele>
        <time>2024-02-02T13:51:01Z</time>
      </trkpt>
      <trkpt lat="46.48299" lon="6.11888">
        <ele>1467</ele>
        <time>2024-02-02T13:51:11Z</time>
      </trkpt>
      <trkpt lat="46.48304" lon="6.11899">
        <ele>1467.4</ele>
        <time>2024-02-02T13:51:23Z</time>
      </trkpt>
      <trkpt lat="46.48305" lon="6.11913">
        <ele>1467.8</ele>
        <time>2024-02-02T13:51:38Z</time>
      </trkpt>
      <trkpt lat="46.48311" lon="6.11923">
        <ele>1467.2</ele>
        <time>2024-02-02T13:51:52Z</time>
      </trkpt>
      <trkpt lat="46.4832" lon="6.11929">
        <ele>1466.6</ele>
        <time>2024-02-02T13:52:02Z</time>
      </trkpt>
      <trkpt lat="46.48329" lon="6.11933">
        <ele>1466.1</ele>
        <time>2024-02-02T13:52:13Z</time>
      </trkpt>
      <trkpt lat="46.48338" lon="6.11931">
        <ele>1465.8</ele>
        <time>2024-02-02T13:52:22Z</time>
      </trkpt>
      <trkpt lat="46.48347" lon="6.11934">
        <ele>1465.5</ele>
        <time>2024-02-02T13:52:32Z</time>
      </trkpt>
      <trkpt lat="46.48356" lon="6.11937">
        <ele>1465.2</ele>
        <time>2024-02-02T13:52:41Z</time>
      </trkpt>
      <trkpt lat="46.48366" lon="6.11937">
        <ele>1465.1</ele>
        <time>2024-02-02T13:52:51Z</time>
      </trkpt>
      <trkpt lat="46.48374" lon="6.11944">
        <ele>1464.6</ele>
        <time>2024-02-02T13:53:01Z</time>
      </trkpt>
      <trkpt lat="46.48383" lon="6.11951">
        <ele>1464</ele>
        <time>2024-02-02T13:53:11Z</time>
      </trkpt>
      <trkpt lat="46.48392" lon="6.11956">
        <ele>1463.8</ele>
        <time>2024-02-02T13:53:20Z</time>
      </trkpt>
      <trkpt lat="46.48387" lon="6.11967">
        <ele>1463.8</ele>
        <time>2024-02-02T13:53:41Z</time>
      </trkpt>
      <trkpt lat="46.48381" lon="6.11977">
        <ele>1462.6</ele>
        <time>2024-02-02T13:53:50Z</time>
      </trkpt>
      <trkpt lat="46.48375" lon="6.11989">
        <ele>1461.2</ele>
        <time>2024-02-02T13:54:04Z</time>
      </trkpt>
      <trkpt lat="46.48373" lon="6.12002">
        <ele>1460</ele>
        <time>2024-02-02T13:54:17Z</time>
      </trkpt>
      <trkpt lat="46.48364" lon="6.12006">
        <ele>1458.4</ele>
        <time>2024-02-02T13:54:28Z</time>
      </trkpt>
      <trkpt lat="46.48355" lon="6.12003">
        <ele>1456.7</ele>
        <time>2024-02-02T13:54:37Z</time>
      </trkpt>
      <trkpt lat="46.48346" lon="6.11998">
        <ele>1455.6</ele>
        <time>2024-02-02T13:54:47Z</time>
      </trkpt>
      <trkpt lat="46.48336" lon="6.11995">
        <ele>1454.4</ele>
        <time>2024-02-02T13:54:57Z</time>
      </trkpt>
      <trkpt lat="46.4833" lon="6.12005">
        <ele>1452.3</ele>
        <time>2024-02-02T13:55:07Z</time>
      </trkpt>
      <trkpt lat="46.48322" lon="6.12012">
        <ele>1451.2</ele>
        <time>2024-02-02T13:55:18Z</time>
      </trkpt>
      <trkpt lat="46.48312" lon="6.12013">
        <ele>1451.1</ele>
        <time>2024-02-02T13:55:28Z</time>
      </trkpt>
      <trkpt lat="46.48306" lon="6.12023">
        <ele>1450.3</ele>
        <time>2024-02-02T13:55:38Z</time>
      </trkpt>
      <trkpt lat="46.48296" lon="6.12024">
        <ele>1448</ele>
        <time>2024-02-02T13:55:54Z</time>
      </trkpt>
      <trkpt lat="46.48287" lon="6.12029">
        <ele>1445.4</ele>
        <time>2024-02-02T13:56:04Z</time>
      </trkpt>
      <trkpt lat="46.48279" lon="6.12034">
        <ele>1443.9</ele>
        <time>2024-02-02T13:56:22Z</time>
      </trkpt>
      <trkpt lat="46.48271" lon="6.12042">
        <ele>1444.5</ele>
        <time>2024-02-02T13:56:35Z</time>
      </trkpt>
      <trkpt lat="46.48265" lon="6.12052">
        <ele>1444.6</ele>
        <time>2024-02-02T13:56:47Z</time>
      </trkpt>
      <trkpt lat="46.48269" lon="6.12064">
        <ele>1446.8</ele>
        <time>2024-02-02T13:56:55Z</time>
      </trkpt>
      <trkpt lat="46.48272" lon="6.12077">
        <ele>1449.9</ele>
        <time>2024-02-02T13:57:09Z</time>
      </trkpt>
      <trkpt lat="46.48269" lon="6.1209">
        <ele>1451.1</ele>
        <time>2024-02-02T13:57:23Z</time>
      </trkpt>
      <trkpt lat="46.48275" lon="6.121">
        <ele>1452.3</ele>
        <time>2024-02-02T13:57:50Z</time>
      </trkpt>
      <trkpt lat="46.48279" lon="6.12113">
        <ele>1452.9</ele>
        <time>2024-02-02T13:58:03Z</time>
      </trkpt>
      <trkpt lat="46.48277" lon="6.12127">
        <ele>1451.8</ele>
        <time>2024-02-02T13:58:22Z</time>
      </trkpt>
      <trkpt lat="46.48283" lon="6.12137">
        <ele>1451.8</ele>
        <time>2024-02-02T13:58:52Z</time>
      </trkpt>
      <trkpt lat="46.48284" lon="6.12151">
        <ele>1449.3</ele>
        <time>2024-02-02T13:59:04Z</time>
      </trkpt>
      <trkpt lat="46.48288" lon="6.12164">
        <ele>1447</ele>
        <time>2024-02-02T13:59:19Z</time>
      </trkpt>
      <trkpt lat="46.48291" lon="6.12177">
        <ele>1445.2</ele>
        <time>2024-02-02T13:59:33Z</time>
      </trkpt>
      <trkpt lat="46.48296" lon="6.12188">
        <ele>1443.7</ele>
        <time>2024-02-02T13:59:50Z</time>
      </trkpt>
      <trkpt lat="46.483" lon="6.12199">
        <ele>1441.7</ele>
        <time>2024-02-02T14:00:01Z</time>
      </trkpt>
      <trkpt lat="46.483" lon="6.12214">
        <ele>1439.7</ele>
        <time>2024-02-02T14:00:13Z</time>
      </trkpt>
      <trkpt lat="46.48305" lon="6.12226">
        <ele>1439.1</ele>
        <time>2024-02-02T14:03:36Z</time>
      </trkpt>
      <trkpt lat="46.48313" lon="6.12233">
        <ele>1439.8</ele>
        <time>2024-02-02T14:03:46Z</time>
      </trkpt>
      <trkpt lat="46.48321" lon="6.12241">
        <ele>1440.6</ele>
        <time>2024-02-02T14:03:56Z</time>
      </trkpt>
      <trkpt lat="46.4833" lon="6.12244">
        <ele>1441.4</ele>
        <time>2024-02-02T14:04:06Z</time>
      </trkpt>
      <trkpt lat="46.48339" lon="6.12251">
        <ele>1442.9</ele>
        <time>2024-02-02T14:04:16Z</time>
      </trkpt>
      <trkpt lat="46.48347" lon="6.12257">
        <ele>1444.3</ele>
        <time>2024-02-02T14:04:25Z</time>
      </trkpt>
      <trkpt lat="46.48353" lon="6.12267">
        <ele>1445</ele>
        <time>2024-02-02T14:04:34Z</time>
      </trkpt>
      <trkpt lat="46.48363" lon="6.12272">
        <ele>1445.5</ele>
        <time>2024-02-02T14:04:45Z</time>
      </trkpt>
      <trkpt lat="46.48369" lon="6.12282">
        <ele>1446.4</ele>
        <time>2024-02-02T14:04:53Z</time>
      </trkpt>
      <trkpt lat="46.48378" lon="6.12289">
        <ele>1447.4</ele>
        <time>2024-02-02T14:05:01Z</time>
      </trkpt>
      <trkpt lat="46.48385" lon="6.12296">
        <ele>1447.7</ele>
        <time>2024-02-02T14:05:09Z</time>
      </trkpt>
      <trkpt lat="46.48393" lon="6.12305">
        <ele>1448.6</ele>
        <time>2024-02-02T14:05:17Z</time>
      </trkpt>
      <trkpt lat="46.48399" lon="6.12316">
        <ele>1451.1</ele>
        <time>2024-02-02T14:05:27Z</time>
      </trkpt>
      <trkpt lat="46.48404" lon="6.12327">
        <ele>1452.7</ele>
        <time>2024-02-02T14:05:36Z</time>
      </trkpt>
      <trkpt lat="46.48412" lon="6.12335">
        <ele>1454.4</ele>
        <time>2024-02-02T14:05:45Z</time>
      </trkpt>
      <trkpt lat="46.48419" lon="6.12344">
        <ele>1456</ele>
        <time>2024-02-02T14:05:55Z</time>
      </trkpt>
      <trkpt lat="46.48427" lon="6.1235">
        <ele>1458</ele>
        <time>2024-02-02T14:06:07Z</time>
      </trkpt>
      <trkpt lat="46.48435" lon="6.12359">
        <ele>1458.4</ele>
        <time>2024-02-02T14:06:20Z</time>
      </trkpt>
      <trkpt lat="46.48444" lon="6.12362">
        <ele>1459.9</ele>
        <time>2024-02-02T14:06:32Z</time>
      </trkpt>
      <trkpt lat="46.48453" lon="6.12366">
        <ele>1460.4</ele>
        <time>2024-02-02T14:06:44Z</time>
      </trkpt>
      <trkpt lat="46.48462" lon="6.12361">
        <ele>1461.3</ele>
        <time>2024-02-02T14:06:57Z</time>
      </trkpt>
      <trkpt lat="46.4847" lon="6.12354">
        <ele>1464.3</ele>
        <time>2024-02-02T14:07:06Z</time>
      </trkpt>
      <trkpt lat="46.48479" lon="6.12355">
        <ele>1467.1</ele>
        <time>2024-02-02T14:07:17Z</time>
      </trkpt>
      <trkpt lat="46.48487" lon="6.12361">
        <ele>1469.4</ele>
        <time>2024-02-02T14:07:25Z</time>
      </trkpt>
      <trkpt lat="46.48493" lon="6.12371">
        <ele>1471.3</ele>
        <time>2024-02-02T14:07:36Z</time>
      </trkpt>
      <trkpt lat="46.485" lon="6.12381">
        <ele>1473.1</ele>
        <time>2024-02-02T14:07:45Z</time>
      </trkpt>
      <trkpt lat="46.48504" lon="6.12393">
        <ele>1474.2</ele>
        <time>2024-02-02T14:07:56Z</time>
      </trkpt>
      <trkpt lat="46.48506" lon="6.12406">
        <ele>1474.8</ele>
        <time>2024-02-02T14:08:07Z</time>
      </trkpt>
      <trkpt lat="46.48512" lon="6.12418">
        <ele>1475.6</ele>
        <time>2024-02-02T14:08:18Z</time>
      </trkpt>
      <trkpt lat="46.48521" lon="6.12422">
        <ele>1477.1</ele>
        <time>2024-02-02T14:08:28Z</time>
      </trkpt>
      <trkpt lat="46.4853" lon="6.12427">
        <ele>1477.7</ele>
        <time>2024-02-02T14:08:37Z</time>
      </trkpt>
      <trkpt lat="46.48538" lon="6.12434">
        <ele>1477.3</ele>
        <time>2024-02-02T14:08:49Z</time>
      </trkpt>
      <trkpt lat="46.48547" lon="6.12439">
        <ele>1476.9</ele>
        <time>2024-02-02T14:08:58Z</time>
      </trkpt>
      <trkpt lat="46.48556" lon="6.12443">
        <ele>1476.4</ele>
        <time>2024-02-02T14:09:07Z</time>
      </trkpt>
      <trkpt lat="46.48565" lon="6.12449">
        <ele>1477.1</ele>
        <time>2024-02-02T14:09:15Z</time>
      </trkpt>
      <trkpt lat="46.48574" lon="6.12452">
        <ele>1477.6</ele>
        <time>2024-02-02T14:09:24Z</time>
      </trkpt>
      <trkpt lat="46.48584" lon="6.12455">
        <ele>1477.8</ele>
        <time>2024-02-02T14:09:32Z</time>
      </trkpt>
      <trkpt lat="46.48593" lon="6.12457">
        <ele>1477.8</ele>
        <time>2024-02-02T14:09:40Z</time>
      </trkpt>
      <trkpt lat="46.48602" lon="6.12465">
        <ele>1476.7</ele>
        <time>2024-02-02T14:09:48Z</time>
      </trkpt>
      <trkpt lat="46.48611" lon="6.12465">
        <ele>1476.5</ele>
        <time>2024-02-02T14:09:55Z</time>
      </trkpt>
      <trkpt lat="46.4862" lon="6.1247">
        <ele>1476.7</ele>
        <time>2024-02-02T14:10:04Z</time>
      </trkpt>
      <trkpt lat="46.48628" lon="6.12477">
        <ele>1477.3</ele>
        <time>2024-02-02T14:10:17Z</time>
      </trkpt>
      <trkpt lat="46.48637" lon="6.12482">
        <ele>1477.6</ele>
        <time>2024-02-02T14:10:28Z</time>
      </trkpt>
      <trkpt lat="46.48645" lon="6.12489">
        <ele>1477.1</ele>
        <time>2024-02-02T14:10:39Z</time>
      </trkpt>
      <trkpt lat="46.48654" lon="6.12496">
        <ele>1476</ele>
        <time>2024-02-02T14:10:49Z</time>
      </trkpt>
      <trkpt lat="46.48663" lon="6.12502">
        <ele>1474.8</ele>
        <time>2024-02-02T14:10:58Z</time>
      </trkpt>
      <trkpt lat="46.48671" lon="6.12508">
        <ele>1473.9</ele>
        <time>2024-02-02T14:11:07Z</time>
      </trkpt>
      <trkpt lat="46.4868" lon="6.12512">
        <ele>1472.8</ele>
        <time>2024-02-02T14:11:18Z</time>
      </trkpt>
      <trkpt lat="46.4869" lon="6.12515">
        <ele>1471.7</ele>
        <time>2024-02-02T14:11:28Z</time>
      </trkpt>
      <trkpt lat="46.48699" lon="6.12519">
        <ele>1470.9</ele>
        <time>2024-02-02T14:11:36Z</time>
      </trkpt>
      <trkpt lat="46.48707" lon="6.12525">
        <ele>1470.2</ele>
        <time>2024-02-02T14:11:45Z</time>
      </trkpt>
      <trkpt lat="46.48717" lon="6.12529">
        <ele>1469.8</ele>
        <time>2024-02-02T14:11:56Z</time>
      </trkpt>
      <trkpt lat="46.48726" lon="6.12533">
        <ele>1470.1</ele>
        <time>2024-02-02T14:12:03Z</time>
      </trkpt>
      <trkpt lat="46.48735" lon="6.12538">
        <ele>1469.9</ele>
        <time>2024-02-02T14:12:14Z</time>
      </trkpt>
      <trkpt lat="46.48745" lon="6.12545">
        <ele>1468.8</ele>
        <time>2024-02-02T14:12:22Z</time>
      </trkpt>
      <trkpt lat="46.48754" lon="6.1255">
        <ele>1467.2</ele>
        <time>2024-02-02T14:12:32Z</time>
      </trkpt>
      <trkpt lat="46.48762" lon="6.12554">
        <ele>1465.2</ele>
        <time>2024-02-02T14:12:40Z</time>
      </trkpt>
      <trkpt lat="46.48771" lon="6.12556">
        <ele>1463.7</ele>
        <time>2024-02-02T14:12:51Z</time>
      </trkpt>
      <trkpt lat="46.4878" lon="6.12558">
        <ele>1463</ele>
        <time>2024-02-02T14:12:58Z</time>
      </trkpt>
      <trkpt lat="46.4879" lon="6.12561">
        <ele>1462.7</ele>
        <time>2024-02-02T14:13:06Z</time>
      </trkpt>
      <trkpt lat="46.48798" lon="6.12565">
        <ele>1461.8</ele>
        <time>2024-02-02T14:13:13Z</time>
      </trkpt>
      <trkpt lat="46.48807" lon="6.12569">
        <ele>1460.7</ele>
        <time>2024-02-02T14:13:19Z</time>
      </trkpt>
      <trkpt lat="46.48816" lon="6.12575">
        <ele>1460.1</ele>
        <time>2024-02-02T14:13:29Z</time>
      </trkpt>
      <trkpt lat="46.48822" lon="6.12584">
        <ele>1458.5</ele>
        <time>2024-02-02T14:13:39Z</time>
      </trkpt>
      <trkpt lat="46.48829" lon="6.12593">
        <ele>1457.2</ele>
        <time>2024-02-02T14:13:49Z</time>
      </trkpt>
      <trkpt lat="46.48837" lon="6.12601">
        <ele>1456.1</ele>
        <time>2024-02-02T14:13:58Z</time>
      </trkpt>
      <trkpt lat="46.48844" lon="6.12611">
        <ele>1454.1</ele>
        <time>2024-02-02T14:14:08Z</time>
      </trkpt>
      <trkpt lat="46.48853" lon="6.12617">
        <ele>1453.2</ele>
        <time>2024-02-02T14:14:16Z</time>
      </trkpt>
      <trkpt lat="46.48861" lon="6.12622">
        <ele>1452</ele>
        <time>2024-02-02T14:14:24Z</time>
      </trkpt>
      <trkpt lat="46.48869" lon="6.12629">
        <ele>1451.3</ele>
        <time>2024-02-02T14:14:32Z</time>
      </trkpt>
      <trkpt lat="46.48877" lon="6.12637">
        <ele>1449.5</ele>
        <time>2024-02-02T14:14:40Z</time>
      </trkpt>
      <trkpt lat="46.48883" lon="6.12648">
        <ele>1447.7</ele>
        <time>2024-02-02T14:14:50Z</time>
      </trkpt>
      <trkpt lat="46.48891" lon="6.12655">
        <ele>1447.1</ele>
        <time>2024-02-02T14:14:58Z</time>
      </trkpt>
      <trkpt lat="46.48899" lon="6.12663">
        <ele>1446.3</ele>
        <time>2024-02-02T14:15:08Z</time>
      </trkpt>
      <trkpt lat="46.48907" lon="6.12672">
        <ele>1446.2</ele>
        <time>2024-02-02T14:15:19Z</time>
      </trkpt>
      <trkpt lat="46.48915" lon="6.12678">
        <ele>1446.5</ele>
        <time>2024-02-02T14:15:29Z</time>
      </trkpt>
      <trkpt lat="46.48924" lon="6.12684">
        <ele>1446.3</ele>
        <time>2024-02-02T14:15:40Z</time>
      </trkpt>
      <trkpt lat="46.48932" lon="6.12691">
        <ele>1445.4</ele>
        <time>2024-02-02T14:15:51Z</time>
      </trkpt>
      <trkpt lat="46.4894" lon="6.12697">
        <ele>1444.7</ele>
        <time>2024-02-02T14:16:01Z</time>
      </trkpt>
      <trkpt lat="46.48947" lon="6.12707">
        <ele>1446.4</ele>
        <time>2024-02-02T14:16:12Z</time>
      </trkpt>
      <trkpt lat="46.48955" lon="6.12715">
        <ele>1448.5</ele>
        <time>2024-02-02T14:16:23Z</time>
      </trkpt>
      <trkpt lat="46.48963" lon="6.12722">
        <ele>1449.3</ele>
        <time>2024-02-02T14:16:32Z</time>
      </trkpt>
      <trkpt lat="46.4897" lon="6.12731">
        <ele>1450.3</ele>
        <time>2024-02-02T14:16:45Z</time>
      </trkpt>
      <trkpt lat="46.48978" lon="6.12739">
        <ele>1451.6</ele>
        <time>2024-02-02T14:16:56Z</time>
      </trkpt>
      <trkpt lat="46.48986" lon="6.12745">
        <ele>1452.5</ele>
        <time>2024-02-02T14:17:05Z</time>
      </trkpt>
      <trkpt lat="46.48994" lon="6.12752">
        <ele>1452.7</ele>
        <time>2024-02-02T14:17:15Z</time>
      </trkpt>
      <trkpt lat="46.49001" lon="6.12762">
        <ele>1453.6</ele>
        <time>2024-02-02T14:17:28Z</time>
      </trkpt>
      <trkpt lat="46.49006" lon="6.12772">
        <ele>1456</ele>
        <time>2024-02-02T14:17:40Z</time>
      </trkpt>
      <trkpt lat="46.49012" lon="6.12783">
        <ele>1458.1</ele>
        <time>2024-02-02T14:17:57Z</time>
      </trkpt>
      <trkpt lat="46.49016" lon="6.12795">
        <ele>1459.4</ele>
        <time>2024-02-02T14:18:12Z</time>
      </trkpt>
      <trkpt lat="46.49024" lon="6.12802">
        <ele>1460.1</ele>
        <time>2024-02-02T14:18:27Z</time>
      </trkpt>
      <trkpt lat="46.49033" lon="6.12802">
        <ele>1460.7</ele>
        <time>2024-02-02T14:18:42Z</time>
      </trkpt>
      <trkpt lat="46.49042" lon="6.12808">
        <ele>1460.7</ele>
        <time>2024-02-02T14:18:52Z</time>
      </trkpt>
      <trkpt lat="46.4905" lon="6.12814">
        <ele>1461.2</ele>
        <time>2024-02-02T14:19:01Z</time>
      </trkpt>
      <trkpt lat="46.49059" lon="6.12819">
        <ele>1462.1</ele>
        <time>2024-02-02T14:19:11Z</time>
      </trkpt>
      <trkpt lat="46.49068" lon="6.12826">
        <ele>1463</ele>
        <time>2024-02-02T14:19:21Z</time>
      </trkpt>
      <trkpt lat="46.49075" lon="6.12833">
        <ele>1462.7</ele>
        <time>2024-02-02T14:19:32Z</time>
      </trkpt>
      <trkpt lat="46.49084" lon="6.12838">
        <ele>1463.3</ele>
        <time>2024-02-02T14:19:45Z</time>
      </trkpt>
      <trkpt lat="46.49092" lon="6.12845">
        <ele>1464.8</ele>
        <time>2024-02-02T14:19:58Z</time>
      </trkpt>
      <trkpt lat="46.49093" lon="6.12858">
        <ele>1464.5</ele>
        <time>2024-02-02T14:24:23Z</time>
      </trkpt>
      <trkpt lat="46.491" lon="6.12866">
        <ele>1465.1</ele>
        <time>2024-02-02T14:27:35Z</time>
      </trkpt>
      <trkpt lat="46.49109" lon="6.1287">
        <ele>1465.3</ele>
        <time>2024-02-02T14:27:45Z</time>
      </trkpt>
      <trkpt lat="46.49118" lon="6.12874">
        <ele>1465.8</ele>
        <time>2024-02-02T14:27:54Z</time>
      </trkpt>
      <trkpt lat="46.49127" lon="6.12878">
        <ele>1465.8</ele>
        <time>2024-02-02T14:28:04Z</time>
      </trkpt>
      <trkpt lat="46.49137" lon="6.12881">
        <ele>1465.5</ele>
        <time>2024-02-02T14:28:15Z</time>
      </trkpt>
      <trkpt lat="46.49146" lon="6.12885">
        <ele>1464.5</ele>
        <time>2024-02-02T14:28:26Z</time>
      </trkpt>
      <trkpt lat="46.49155" lon="6.12887">
        <ele>1463.8</ele>
        <time>2024-02-02T14:28:36Z</time>
      </trkpt>
      <trkpt lat="46.49164" lon="6.1289">
        <ele>1463.2</ele>
        <time>2024-02-02T14:28:48Z</time>
      </trkpt>
      <trkpt lat="46.49172" lon="6.12896">
        <ele>1464.6</ele>
        <time>2024-02-02T14:28:58Z</time>
      </trkpt>
      <trkpt lat="46.49181" lon="6.129">
        <ele>1465.7</ele>
        <time>2024-02-02T14:29:09Z</time>
      </trkpt>
      <trkpt lat="46.4919" lon="6.12907">
        <ele>1465.6</ele>
        <time>2024-02-02T14:29:21Z</time>
      </trkpt>
      <trkpt lat="46.49199" lon="6.12912">
        <ele>1464.1</ele>
        <time>2024-02-02T14:29:31Z</time>
      </trkpt>
      <trkpt lat="46.49209" lon="6.12915">
        <ele>1462.2</ele>
        <time>2024-02-02T14:29:41Z</time>
      </trkpt>
      <trkpt lat="46.49218" lon="6.12917">
        <ele>1460.6</ele>
        <time>2024-02-02T14:29:51Z</time>
      </trkpt>
      <trkpt lat="46.49228" lon="6.1292">
        <ele>1459.4</ele>
        <time>2024-02-02T14:30:00Z</time>
      </trkpt>
      <trkpt lat="46.49237" lon="6.12924">
        <ele>1458.6</ele>
        <time>2024-02-02T14:30:10Z</time>
      </trkpt>
      <trkpt lat="46.49246" lon="6.12925">
        <ele>1457.7</ele>
        <time>2024-02-02T14:30:21Z</time>
      </trkpt>
      <trkpt lat="46.49255" lon="6.12929">
        <ele>1457.3</ele>
        <time>2024-02-02T14:30:31Z</time>
      </trkpt>
      <trkpt lat="46.49264" lon="6.1293">
        <ele>1457.5</ele>
        <time>2024-02-02T14:30:41Z</time>
      </trkpt>
      <trkpt lat="46.49273" lon="6.12933">
        <ele>1457.5</ele>
        <time>2024-02-02T14:30:50Z</time>
      </trkpt>
      <trkpt lat="46.49282" lon="6.12936">
        <ele>1457.3</ele>
        <time>2024-02-02T14:31:00Z</time>
      </trkpt>
      <trkpt lat="46.49292" lon="6.12939">
        <ele>1457.1</ele>
        <time>2024-02-02T14:31:11Z</time>
      </trkpt>
      <trkpt lat="46.49301" lon="6.12942">
        <ele>1456.5</ele>
        <time>2024-02-02T14:31:21Z</time>
      </trkpt>
      <trkpt lat="46.49311" lon="6.12947">
        <ele>1456.3</ele>
        <time>2024-02-02T14:31:31Z</time>
      </trkpt>
      <trkpt lat="46.4932" lon="6.12949">
        <ele>1456.5</ele>
        <time>2024-02-02T14:31:40Z</time>
      </trkpt>
      <trkpt lat="46.49329" lon="6.12954">
        <ele>1456.2</ele>
        <time>2024-02-02T14:31:50Z</time>
      </trkpt>
      <trkpt lat="46.49338" lon="6.1296">
        <ele>1454.8</ele>
        <time>2024-02-02T14:31:59Z</time>
      </trkpt>
      <trkpt lat="46.49348" lon="6.1296">
        <ele>1453.6</ele>
        <time>2024-02-02T14:32:08Z</time>
      </trkpt>
      <trkpt lat="46.49357" lon="6.1296">
        <ele>1452.7</ele>
        <time>2024-02-02T14:32:15Z</time>
      </trkpt>
      <trkpt lat="46.49367" lon="6.12961">
        <ele>1451.2</ele>
        <time>2024-02-02T14:32:24Z</time>
      </trkpt>
      <trkpt lat="46.49376" lon="6.12962">
        <ele>1449.7</ele>
        <time>2024-02-02T14:32:33Z</time>
      </trkpt>
      <trkpt lat="46.49385" lon="6.12961">
        <ele>1448.3</ele>
        <time>2024-02-02T14:32:41Z</time>
      </trkpt>
      <trkpt lat="46.49395" lon="6.12964">
        <ele>1447.4</ele>
        <time>2024-02-02T14:32:48Z</time>
      </trkpt>
      <trkpt lat="46.49404" lon="6.12966">
        <ele>1447</ele>
        <time>2024-02-02T14:32:55Z</time>
      </trkpt>
      <trkpt lat="46.49412" lon="6.12969">
        <ele>1446.4</ele>
        <time>2024-02-02T14:33:02Z</time>
      </trkpt>
      <trkpt lat="46.49421" lon="6.12975">
        <ele>1445.3</ele>
        <time>2024-02-02T14:33:11Z</time>
      </trkpt>
      <trkpt lat="46.4943" lon="6.12982">
        <ele>1443.9</ele>
        <time>2024-02-02T14:33:21Z</time>
      </trkpt>
      <trkpt lat="46.49439" lon="6.12983">
        <ele>1442.7</ele>
        <time>2024-02-02T14:33:29Z</time>
      </trkpt>
      <trkpt lat="46.49449" lon="6.12985">
        <ele>1441.5</ele>
        <time>2024-02-02T14:33:38Z</time>
      </trkpt>
      <trkpt lat="46.49458" lon="6.12988">
        <ele>1440.4</ele>
        <time>2024-02-02T14:33:46Z</time>
      </trkpt>
      <trkpt lat="46.49468" lon="6.12991">
        <ele>1438.9</ele>
        <time>2024-02-02T14:33:56Z</time>
      </trkpt>
      <trkpt lat="46.49477" lon="6.12993">
        <ele>1437.7</ele>
        <time>2024-02-02T14:34:05Z</time>
      </trkpt>
      <trkpt lat="46.49486" lon="6.12998">
        <ele>1436.8</ele>
        <time>2024-02-02T14:34:14Z</time>
      </trkpt>
      <trkpt lat="46.49495" lon="6.13002">
        <ele>1436.4</ele>
        <time>2024-02-02T14:34:23Z</time>
      </trkpt>
      <trkpt lat="46.49503" lon="6.13009">
        <ele>1436.7</ele>
        <time>2024-02-02T14:34:32Z</time>
      </trkpt>
      <trkpt lat="46.49512" lon="6.13016">
        <ele>1437</ele>
        <time>2024-02-02T14:34:41Z</time>
      </trkpt>
      <trkpt lat="46.49521" lon="6.13021">
        <ele>1436.7</ele>
        <time>2024-02-02T14:34:49Z</time>
      </trkpt>
      <trkpt lat="46.4953" lon="6.13025">
        <ele>1435.9</ele>
        <time>2024-02-02T14:34:57Z</time>
      </trkpt>
      <trkpt lat="46.4954" lon="6.13026">
        <ele>1434.8</ele>
        <time>2024-02-02T14:35:05Z</time>
      </trkpt>
      <trkpt lat="46.4955" lon="6.13026">
        <ele>1433.7</ele>
        <time>2024-02-02T14:35:14Z</time>
      </trkpt>
      <trkpt lat="46.49559" lon="6.13028">
        <ele>1432.7</ele>
        <time>2024-02-02T14:35:37Z</time>
      </trkpt>
      <trkpt lat="46.49568" lon="6.1303">
        <ele>1432.1</ele>
        <time>2024-02-02T14:35:46Z</time>
      </trkpt>
      <trkpt lat="46.49576" lon="6.13037">
        <ele>1431.8</ele>
        <time>2024-02-02T14:36:42Z</time>
      </trkpt>
      <trkpt lat="46.49584" lon="6.13042">
        <ele>1431.5</ele>
        <time>2024-02-02T14:37:19Z</time>
      </trkpt>
      <trkpt lat="46.49594" lon="6.13043">
        <ele>1431.7</ele>
        <time>2024-02-02T14:37:57Z</time>
      </trkpt>
      <trkpt lat="46.49603" lon="6.13045">
        <ele>1431.7</ele>
        <time>2024-02-02T14:38:04Z</time>
      </trkpt>
      <trkpt lat="46.49613" lon="6.13044">
        <ele>1432.2</ele>
        <time>2024-02-02T14:38:13Z</time>
      </trkpt>
      <trkpt lat="46.49622" lon="6.13047">
        <ele>1433.4</ele>
        <time>2024-02-02T14:38:21Z</time>
      </trkpt>
      <trkpt lat="46.49631" lon="6.13048">
        <ele>1434.6</ele>
        <time>2024-02-02T14:38:30Z</time>
      </trkpt>
      <trkpt lat="46.4964" lon="6.1305">
        <ele>1435.7</ele>
        <time>2024-02-02T14:38:39Z</time>
      </trkpt>
      <trkpt lat="46.49649" lon="6.13055">
        <ele>1436.6</ele>
        <time>2024-02-02T14:38:49Z</time>
      </trkpt>
      <trkpt lat="46.49658" lon="6.1306">
        <ele>1438.3</ele>
        <time>2024-02-02T14:39:00Z</time>
      </trkpt>
      <trkpt lat="46.49668" lon="6.13066">
        <ele>1438.8</ele>
        <time>2024-02-02T14:39:11Z</time>
      </trkpt>
      <trkpt lat="46.49677" lon="6.13072">
        <ele>1437.1</ele>
        <time>2024-02-02T14:39:22Z</time>
      </trkpt>
      <trkpt lat="46.49685" lon="6.13075">
        <ele>1436.4</ele>
        <time>2024-02-02T14:39:32Z</time>
      </trkpt>
      <trkpt lat="46.49694" lon="6.13081">
        <ele>1435.4</ele>
        <time>2024-02-02T14:39:41Z</time>
      </trkpt>
      <trkpt lat="46.49704" lon="6.13082">
        <ele>1435.2</ele>
        <time>2024-02-02T14:39:50Z</time>
      </trkpt>
      <trkpt lat="46.49713" lon="6.13084">
        <ele>1435</ele>
        <time>2024-02-02T14:39:59Z</time>
      </trkpt>
      <trkpt lat="46.49722" lon="6.1309">
        <ele>1435</ele>
        <time>2024-02-02T14:40:10Z</time>
      </trkpt>
      <trkpt lat="46.49728" lon="6.131">
        <ele>1436.5</ele>
        <time>2024-02-02T14:40:28Z</time>
      </trkpt>
      <trkpt lat="46.49732" lon="6.13112">
        <ele>1437.5</ele>
        <time>2024-02-02T14:40:48Z</time>
      </trkpt>
      <trkpt lat="46.49741" lon="6.13116">
        <ele>1439.7</ele>
        <time>2024-02-02T14:40:56Z</time>
      </trkpt>
      <trkpt lat="46.49744" lon="6.1313">
        <ele>1439.8</ele>
        <time>2024-02-02T14:41:06Z</time>
      </trkpt>
      <trkpt lat="46.4975" lon="6.1314">
        <ele>1440.1</ele>
        <time>2024-02-02T14:41:21Z</time>
      </trkpt>
      <trkpt lat="46.49752" lon="6.13153">
        <ele>1443.5</ele>
        <time>2024-02-02T14:41:38Z</time>
      </trkpt>
      <trkpt lat="46.4976" lon="6.13161">
        <ele>1447.6</ele>
        <time>2024-02-02T14:42:01Z</time>
      </trkpt>
      <trkpt lat="46.49769" lon="6.13166">
        <ele>1451.2</ele>
        <time>2024-02-02T14:42:16Z</time>
      </trkpt>
      <trkpt lat="46.49778" lon="6.13171">
        <ele>1454.1</ele>
        <time>2024-02-02T14:42:31Z</time>
      </trkpt>
      <trkpt lat="46.49784" lon="6.13182">
        <ele>1456.4</ele>
        <time>2024-02-02T14:42:45Z</time>
      </trkpt>
      <trkpt lat="46.4979" lon="6.13191">
        <ele>1458.9</ele>
        <time>2024-02-02T14:43:04Z</time>
      </trkpt>
      <trkpt lat="46.49799" lon="6.13196">
        <ele>1461.9</ele>
        <time>2024-02-02T14:43:19Z</time>
      </trkpt>
      <trkpt lat="46.49808" lon="6.13199">
        <ele>1464.9</ele>
        <time>2024-02-02T14:43:36Z</time>
      </trkpt>
      <trkpt lat="46.49813" lon="6.1321">
        <ele>1466.4</ele>
        <time>2024-02-02T14:43:50Z</time>
      </trkpt>
      <trkpt lat="46.49822" lon="6.13212">
        <ele>1469.5</ele>
        <time>2024-02-02T14:44:09Z</time>
      </trkpt>
      <trkpt lat="46.49829" lon="6.13221">
        <ele>1471</ele>
        <time>2024-02-02T14:44:21Z</time>
      </trkpt>
      <trkpt lat="46.49834" lon="6.13232">
        <ele>1471.7</ele>
        <time>2024-02-02T14:44:35Z</time>
      </trkpt>
      <trkpt lat="46.49837" lon="6.13245">
        <ele>1472.2</ele>
        <time>2024-02-02T14:44:48Z</time>
      </trkpt>
      <trkpt lat="46.49841" lon="6.13257">
        <ele>1473.1</ele>
        <time>2024-02-02T14:44:59Z</time>
      </trkpt>
      <trkpt lat="46.49841" lon="6.13271">
        <ele>1472.4</ele>
        <time>2024-02-02T14:45:09Z</time>
      </trkpt>
      <trkpt lat="46.4984" lon="6.13285">
        <ele>1471.9</ele>
        <time>2024-02-02T14:45:18Z</time>
      </trkpt>
      <trkpt lat="46.49842" lon="6.13299">
        <ele>1472.2</ele>
        <time>2024-02-02T14:45:28Z</time>
      </trkpt>
      <trkpt lat="46.49844" lon="6.13313">
        <ele>1472.9</ele>
        <time>2024-02-02T14:45:36Z</time>
      </trkpt>
      <trkpt lat="46.49843" lon="6.13327">
        <ele>1473.5</ele>
        <time>2024-02-02T14:45:44Z</time>
      </trkpt>
      <trkpt lat="46.49839" lon="6.13339">
        <ele>1473.5</ele>
        <time>2024-02-02T14:45:52Z</time>
      </trkpt>
      <trkpt lat="46.49838" lon="6.13353">
        <ele>1474.2</ele>
        <time>2024-02-02T14:46:02Z</time>
      </trkpt>
      <trkpt lat="46.49834" lon="6.13366">
        <ele>1474.7</ele>
        <time>2024-02-02T14:46:11Z</time>
      </trkpt>
      <trkpt lat="46.49827" lon="6.13375">
        <ele>1475.2</ele>
        <time>2024-02-02T14:46:20Z</time>
      </trkpt>
      <trkpt lat="46.4982" lon="6.13384">
        <ele>1475.9</ele>
        <time>2024-02-02T14:46:29Z</time>
      </trkpt>
      <trkpt lat="46.49812" lon="6.13392">
        <ele>1476.6</ele>
        <time>2024-02-02T14:46:39Z</time>
      </trkpt>
      <trkpt lat="46.49804" lon="6.13398">
        <ele>1477.4</ele>
        <time>2024-02-02T14:46:49Z</time>
      </trkpt>
      <trkpt lat="46.49796" lon="6.13406">
        <ele>1478.5</ele>
        <time>2024-02-02T14:46:57Z</time>
      </trkpt>
      <trkpt lat="46.4979" lon="6.13416">
        <ele>1479.9</ele>
        <time>2024-02-02T14:47:07Z</time>
      </trkpt>
      <trkpt lat="46.49798" lon="6.13421">
        <ele>1480.6</ele>
        <time>2024-02-02T14:47:28Z</time>
      </trkpt>
      <trkpt lat="46.49805" lon="6.1343">
        <ele>1480.9</ele>
        <time>2024-02-02T14:47:40Z</time>
      </trkpt>
      <trkpt lat="46.49814" lon="6.13435">
        <ele>1480.8</ele>
        <time>2024-02-02T14:47:52Z</time>
      </trkpt>
      <trkpt lat="46.49823" lon="6.13441">
        <ele>1480.6</ele>
        <time>2024-02-02T14:48:02Z</time>
      </trkpt>
      <trkpt lat="46.49831" lon="6.1345">
        <ele>1481</ele>
        <time>2024-02-02T14:48:11Z</time>
      </trkpt>
      <trkpt lat="46.49839" lon="6.13458">
        <ele>1481.9</ele>
        <time>2024-02-02T14:48:20Z</time>
      </trkpt>
      <trkpt lat="46.49846" lon="6.13467">
        <ele>1483</ele>
        <time>2024-02-02T14:48:29Z</time>
      </trkpt>
      <trkpt lat="46.49854" lon="6.13474">
        <ele>1483.3</ele>
        <time>2024-02-02T14:48:38Z</time>
      </trkpt>
      <trkpt lat="46.49862" lon="6.13481">
        <ele>1483.1</ele>
        <time>2024-02-02T14:48:48Z</time>
      </trkpt>
      <trkpt lat="46.4987" lon="6.13489">
        <ele>1483.9</ele>
        <time>2024-02-02T14:48:58Z</time>
      </trkpt>
      <trkpt lat="46.49877" lon="6.13499">
        <ele>1484.7</ele>
        <time>2024-02-02T14:49:09Z</time>
      </trkpt>
      <trkpt lat="46.49882" lon="6.1351">
        <ele>1485.7</ele>
        <time>2024-02-02T14:49:24Z</time>
      </trkpt>
      <trkpt lat="46.49887" lon="6.13521">
        <ele>1486.6</ele>
        <time>2024-02-02T14:49:36Z</time>
      </trkpt>
      <trkpt lat="46.49892" lon="6.13534">
        <ele>1487.9</ele>
        <time>2024-02-02T14:49:47Z</time>
      </trkpt>
      <trkpt lat="46.49896" lon="6.13546">
        <ele>1489.1</ele>
        <time>2024-02-02T14:49:57Z</time>
      </trkpt>
      <trkpt lat="46.499" lon="6.1356">
        <ele>1490</ele>
        <time>2024-02-02T14:50:07Z</time>
      </trkpt>
      <trkpt lat="46.49903" lon="6.13573">
        <ele>1490.9</ele>
        <time>2024-02-02T14:50:16Z</time>
      </trkpt>
      <trkpt lat="46.49907" lon="6.13584">
        <ele>1492</ele>
        <time>2024-02-02T14:50:26Z</time>
      </trkpt>
      <trkpt lat="46.49907" lon="6.13599">
        <ele>1492.5</ele>
        <time>2024-02-02T14:50:38Z</time>
      </trkpt>
      <trkpt lat="46.49911" lon="6.13611">
        <ele>1493.4</ele>
        <time>2024-02-02T14:50:46Z</time>
      </trkpt>
      <trkpt lat="46.49916" lon="6.13623">
        <ele>1494.4</ele>
        <time>2024-02-02T14:50:55Z</time>
      </trkpt>
      <trkpt lat="46.49921" lon="6.13635">
        <ele>1495.3</ele>
        <time>2024-02-02T14:51:04Z</time>
      </trkpt>
      <trkpt lat="46.49926" lon="6.13648">
        <ele>1496.5</ele>
        <time>2024-02-02T14:51:15Z</time>
      </trkpt>
      <trkpt lat="46.49932" lon="6.13658">
        <ele>1497.6</ele>
        <time>2024-02-02T14:51:24Z</time>
      </trkpt>
      <trkpt lat="46.49934" lon="6.13671">
        <ele>1498.5</ele>
        <time>2024-02-02T14:51:34Z</time>
      </trkpt>
      <trkpt lat="46.49938" lon="6.13684">
        <ele>1499.5</ele>
        <time>2024-02-02T14:51:45Z</time>
      </trkpt>
      <trkpt lat="46.49944" lon="6.13695">
        <ele>1501</ele>
        <time>2024-02-02T14:51:56Z</time>
      </trkpt>
      <trkpt lat="46.49952" lon="6.13705">
        <ele>1502</ele>
        <time>2024-02-02T14:52:05Z</time>
      </trkpt>
      <trkpt lat="46.4996" lon="6.13713">
        <ele>1502.2</ele>
        <time>2024-02-02T14:52:13Z</time>
      </trkpt>
      <trkpt lat="46.4997" lon="6.13716">
        <ele>1501.9</ele>
        <time>2024-02-02T14:52:21Z</time>
      </trkpt>
      <trkpt lat="46.49979" lon="6.13718">
        <ele>1502</ele>
        <time>2024-02-02T14:52:29Z</time>
      </trkpt>
      <trkpt lat="46.49988" lon="6.13721">
        <ele>1502.4</ele>
        <time>2024-02-02T14:52:38Z</time>
      </trkpt>
      <trkpt lat="46.49996" lon="6.13729">
        <ele>1503</ele>
        <time>2024-02-02T14:52:46Z</time>
      </trkpt>
      <trkpt lat="46.50001" lon="6.13741">
        <ele>1503</ele>
        <time>2024-02-02T14:52:55Z</time>
      </trkpt>
      <trkpt lat="46.50005" lon="6.13754">
        <ele>1503.1</ele>
        <time>2024-02-02T14:53:02Z</time>
      </trkpt>
      <trkpt lat="46.50007" lon="6.13768">
        <ele>1503.7</ele>
        <time>2024-02-02T14:53:11Z</time>
      </trkpt>
      <trkpt lat="46.5001" lon="6.13782">
        <ele>1504.4</ele>
        <time>2024-02-02T14:53:20Z</time>
      </trkpt>
      <trkpt lat="46.50014" lon="6.13794">
        <ele>1505.4</ele>
        <time>2024-02-02T14:53:28Z</time>
      </trkpt>
      <trkpt lat="46.50021" lon="6.13804">
        <ele>1506.1</ele>
        <time>2024-02-02T14:53:36Z</time>
      </trkpt>
      <trkpt lat="46.50027" lon="6.13815">
        <ele>1507</ele>
        <time>2024-02-02T14:53:44Z</time>
      </trkpt>
      <trkpt lat="46.50032" lon="6.13826">
        <ele>1507.9</ele>
        <time>2024-02-02T14:53:54Z</time>
      </trkpt>
      <trkpt lat="46.50036" lon="6.1384">
        <ele>1508.9</ele>
        <time>2024-02-02T14:54:03Z</time>
      </trkpt>
      <trkpt lat="46.50042" lon="6.1385">
        <ele>1509</ele>
        <time>2024-02-02T14:54:10Z</time>
      </trkpt>
      <trkpt lat="46.50047" lon="6.13862">
        <ele>1508.8</ele>
        <time>2024-02-02T14:54:18Z</time>
      </trkpt>
      <trkpt lat="46.50048" lon="6.13877">
        <ele>1507.8</ele>
        <time>2024-02-02T14:54:26Z</time>
      </trkpt>
      <trkpt lat="46.50052" lon="6.1389">
        <ele>1505.9</ele>
        <time>2024-02-02T14:54:34Z</time>
      </trkpt>
      <trkpt lat="46.50056" lon="6.13901">
        <ele>1505</ele>
        <time>2024-02-02T14:54:41Z</time>
      </trkpt>
      <trkpt lat="46.50059" lon="6.13916">
        <ele>1505</ele>
        <time>2024-02-02T14:54:49Z</time>
      </trkpt>
      <trkpt lat="46.50063" lon="6.13929">
        <ele>1505.3</ele>
        <time>2024-02-02T14:54:56Z</time>
      </trkpt>
      <trkpt lat="46.50068" lon="6.13942">
        <ele>1505.5</ele>
        <time>2024-02-02T14:55:04Z</time>
      </trkpt>
      <trkpt lat="46.50073" lon="6.13952">
        <ele>1505.5</ele>
        <time>2024-02-02T14:55:13Z</time>
      </trkpt>
      <trkpt lat="46.50076" lon="6.13965">
        <ele>1505.3</ele>
        <time>2024-02-02T14:55:21Z</time>
      </trkpt>
      <trkpt lat="46.5008" lon="6.13979">
        <ele>1505.5</ele>
        <time>2024-02-02T14:55:29Z</time>
      </trkpt>
      <trkpt lat="46.50083" lon="6.13993">
        <ele>1507.1</ele>
        <time>2024-02-02T14:55:37Z</time>
      </trkpt>
      <trkpt lat="46.50087" lon="6.14006">
        <ele>1507.7</ele>
        <time>2024-02-02T14:55:44Z</time>
      </trkpt>
      <trkpt lat="46.50089" lon="6.1402">
        <ele>1507.4</ele>
        <time>2024-02-02T14:55:52Z</time>
      </trkpt>
      <trkpt lat="46.50092" lon="6.14032">
        <ele>1507.8</ele>
        <time>2024-02-02T14:55:59Z</time>
      </trkpt>
      <trkpt lat="46.50092" lon="6.14046">
        <ele>1509</ele>
        <time>2024-02-02T14:56:08Z</time>
      </trkpt>
      <trkpt lat="46.5009" lon="6.1406">
        <ele>1510.4</ele>
        <time>2024-02-02T14:56:16Z</time>
      </trkpt>
      <trkpt lat="46.50092" lon="6.14074">
        <ele>1512.3</ele>
        <time>2024-02-02T14:56:24Z</time>
      </trkpt>
      <trkpt lat="46.50094" lon="6.14087">
        <ele>1513.5</ele>
        <time>2024-02-02T14:56:32Z</time>
      </trkpt>
      <trkpt lat="46.50095" lon="6.141">
        <ele>1512.7</ele>
        <time>2024-02-02T14:56:39Z</time>
      </trkpt>
      <trkpt lat="46.50095" lon="6.14113">
        <ele>1511.8</ele>
        <time>2024-02-02T14:56:47Z</time>
      </trkpt>
      <trkpt lat="46.50097" lon="6.14127">
        <ele>1510.9</ele>
        <time>2024-02-02T14:56:57Z</time>
      </trkpt>
      <trkpt lat="46.50104" lon="6.14136">
        <ele>1509.8</ele>
        <time>2024-02-02T14:57:05Z</time>
      </trkpt>
      <trkpt lat="46.50109" lon="6.14148">
        <ele>1509.5</ele>
        <time>2024-02-02T14:57:14Z</time>
      </trkpt>
      <trkpt lat="46.50115" lon="6.1416">
        <ele>1510</ele>
        <time>2024-02-02T14:57:33Z</time>
      </trkpt>
      <trkpt lat="46.50121" lon="6.14171">
        <ele>1510.9</ele>
        <time>2024-02-02T14:57:44Z</time>
      </trkpt>
      <trkpt lat="46.50124" lon="6.14183">
        <ele>1512.3</ele>
        <time>2024-02-02T14:57:55Z</time>
      </trkpt>
      <trkpt lat="46.50128" lon="6.14195">
        <ele>1513.3</ele>
        <time>2024-02-02T14:58:03Z</time>
      </trkpt>
      <trkpt lat="46.50132" lon="6.14209">
        <ele>1514.6</ele>
        <time>2024-02-02T14:58:13Z</time>
      </trkpt>
      <trkpt lat="46.50138" lon="6.14219">
        <ele>1515.5</ele>
        <time>2024-02-02T14:58:24Z</time>
      </trkpt>
      <trkpt lat="46.50143" lon="6.14232">
        <ele>1517.4</ele>
        <time>2024-02-02T14:58:36Z</time>
      </trkpt>
      <trkpt lat="46.50148" lon="6.14243">
        <ele>1519.1</ele>
        <time>2024-02-02T14:58:48Z</time>
      </trkpt>
      <trkpt lat="46.50146" lon="6.14257">
        <ele>1520.4</ele>
        <time>2024-02-02T14:59:00Z</time>
      </trkpt>
      <trkpt lat="46.50145" lon="6.1427">
        <ele>1521</ele>
        <time>2024-02-02T14:59:08Z</time>
      </trkpt>
      <trkpt lat="46.50143" lon="6.14284">
        <ele>1521.9</ele>
        <time>2024-02-02T14:59:20Z</time>
      </trkpt>
      <trkpt lat="46.50148" lon="6.14296">
        <ele>1523.2</ele>
        <time>2024-02-02T14:59:29Z</time>
      </trkpt>
      <trkpt lat="46.50151" lon="6.14309">
        <ele>1524.3</ele>
        <time>2024-02-02T14:59:41Z</time>
      </trkpt>
      <trkpt lat="46.5016" lon="6.14314">
        <ele>1524.7</ele>
        <time>2024-02-02T14:59:50Z</time>
      </trkpt>
      <trkpt lat="46.50168" lon="6.14318">
        <ele>1524.8</ele>
        <time>2024-02-02T14:59:58Z</time>
      </trkpt>
      <trkpt lat="46.50178" lon="6.14319">
        <ele>1523.9</ele>
        <time>2024-02-02T15:00:10Z</time>
      </trkpt>
      <trkpt lat="46.50188" lon="6.14316">
        <ele>1523</ele>
        <time>2024-02-02T15:00:20Z</time>
      </trkpt>
      <trkpt lat="46.50197" lon="6.14319">
        <ele>1522.1</ele>
        <time>2024-02-02T15:00:27Z</time>
      </trkpt>
      <trkpt lat="46.50207" lon="6.14318">
        <ele>1520.9</ele>
        <time>2024-02-02T15:00:34Z</time>
      </trkpt>
      <trkpt lat="46.50216" lon="6.14315">
        <ele>1519.6</ele>
        <time>2024-02-02T15:00:43Z</time>
      </trkpt>
      <trkpt lat="46.50225" lon="6.14316">
        <ele>1518.5</ele>
        <time>2024-02-02T15:00:50Z</time>
      </trkpt>
      <trkpt lat="46.50234" lon="6.14316">
        <ele>1517.2</ele>
        <time>2024-02-02T15:00:59Z</time>
      </trkpt>
      <trkpt lat="46.50243" lon="6.14315">
        <ele>1516.1</ele>
        <time>2024-02-02T15:01:07Z</time>
      </trkpt>
      <trkpt lat="46.50253" lon="6.14314">
        <ele>1515.2</ele>
        <time>2024-02-02T15:01:16Z</time>
      </trkpt>
      <trkpt lat="46.50262" lon="6.14308">
        <ele>1515</ele>
        <time>2024-02-02T15:01:25Z</time>
      </trkpt>
      <trkpt lat="46.50271" lon="6.14308">
        <ele>1514.2</ele>
        <time>2024-02-02T15:01:33Z</time>
      </trkpt>
      <trkpt lat="46.5028" lon="6.14311">
        <ele>1513</ele>
        <time>2024-02-02T15:01:39Z</time>
      </trkpt>
      <trkpt lat="46.50291" lon="6.14315">
        <ele>1511.2</ele>
        <time>2024-02-02T15:01:45Z</time>
      </trkpt>
      <trkpt lat="46.50301" lon="6.14314">
        <ele>1509.7</ele>
        <time>2024-02-02T15:01:52Z</time>
      </trkpt>
      <trkpt lat="46.5031" lon="6.14311">
        <ele>1508.2</ele>
        <time>2024-02-02T15:02:02Z</time>
      </trkpt>
      <trkpt lat="46.50318" lon="6.14303">
        <ele>1507.1</ele>
        <time>2024-02-02T15:02:12Z</time>
      </trkpt>
      <trkpt lat="46.50326" lon="6.14307">
        <ele>1506</ele>
        <time>2024-02-02T15:02:22Z</time>
      </trkpt>
      <trkpt lat="46.50334" lon="6.14316">
        <ele>1504.3</ele>
        <time>2024-02-02T15:02:30Z</time>
      </trkpt>
      <trkpt lat="46.50343" lon="6.14316">
        <ele>1504.9</ele>
        <time>2024-02-02T15:02:36Z</time>
      </trkpt>
      <trkpt lat="46.50353" lon="6.1432">
        <ele>1505</ele>
        <time>2024-02-02T15:02:47Z</time>
      </trkpt>
      <trkpt lat="46.50356" lon="6.14333">
        <ele>1503.9</ele>
        <time>2024-02-02T15:03:13Z</time>
      </trkpt>
      <trkpt lat="46.50348" lon="6.14341">
        <ele>1503.7</ele>
        <time>2024-02-02T15:07:50Z</time>
      </trkpt>
      <trkpt lat="46.50347" lon="6.14355">
        <ele>1503.8</ele>
        <time>2024-02-02T15:08:02Z</time>
      </trkpt>
      <trkpt lat="46.50349" lon="6.14369">
        <ele>1504.6</ele>
        <time>2024-02-02T15:08:12Z</time>
      </trkpt>
      <trkpt lat="46.50349" lon="6.14384">
        <ele>1505.2</ele>
        <time>2024-02-02T15:08:20Z</time>
      </trkpt>
      <trkpt lat="46.50345" lon="6.14397">
        <ele>1504.6</ele>
        <time>2024-02-02T15:08:28Z</time>
      </trkpt>
      <trkpt lat="46.50345" lon="6.14411">
        <ele>1504.3</ele>
        <time>2024-02-02T15:08:36Z</time>
      </trkpt>
      <trkpt lat="46.50345" lon="6.14425">
        <ele>1504</ele>
        <time>2024-02-02T15:08:46Z</time>
      </trkpt>
      <trkpt lat="46.50348" lon="6.14438">
        <ele>1504.1</ele>
        <time>2024-02-02T15:08:54Z</time>
      </trkpt>
      <trkpt lat="46.50351" lon="6.14451">
        <ele>1504.4</ele>
        <time>2024-02-02T15:09:01Z</time>
      </trkpt>
      <trkpt lat="46.50349" lon="6.14464">
        <ele>1504.1</ele>
        <time>2024-02-02T15:09:08Z</time>
      </trkpt>
      <trkpt lat="46.50347" lon="6.14477">
        <ele>1504</ele>
        <time>2024-02-02T15:09:16Z</time>
      </trkpt>
      <trkpt lat="46.50343" lon="6.1449">
        <ele>1503.7</ele>
        <time>2024-02-02T15:09:24Z</time>
      </trkpt>
      <trkpt lat="46.50343" lon="6.14504">
        <ele>1503.3</ele>
        <time>2024-02-02T15:09:31Z</time>
      </trkpt>
      <trkpt lat="46.50341" lon="6.14518">
        <ele>1501</ele>
        <time>2024-02-02T15:09:40Z</time>
      </trkpt>
      <trkpt lat="46.50342" lon="6.14532">
        <ele>1499.4</ele>
        <time>2024-02-02T15:09:47Z</time>
      </trkpt>
      <trkpt lat="46.50339" lon="6.14544">
        <ele>1497.8</ele>
        <time>2024-02-02T15:09:55Z</time>
      </trkpt>
      <trkpt lat="46.50336" lon="6.14557">
        <ele>1496.2</ele>
        <time>2024-02-02T15:10:02Z</time>
      </trkpt>
      <trkpt lat="46.50335" lon="6.14571">
        <ele>1494.6</ele>
        <time>2024-02-02T15:10:11Z</time>
      </trkpt>
      <trkpt lat="46.50335" lon="6.14584">
        <ele>1493.2</ele>
        <time>2024-02-02T15:10:18Z</time>
      </trkpt>
      <trkpt lat="46.50334" lon="6.14598">
        <ele>1491.5</ele>
        <time>2024-02-02T15:10:26Z</time>
      </trkpt>
      <trkpt lat="46.50332" lon="6.14613">
        <ele>1489.7</ele>
        <time>2024-02-02T15:10:35Z</time>
      </trkpt>
      <trkpt lat="46.50333" lon="6.14627">
        <ele>1488.8</ele>
        <time>2024-02-02T15:10:42Z</time>
      </trkpt>
      <trkpt lat="46.5033" lon="6.1464">
        <ele>1487.5</ele>
        <time>2024-02-02T15:10:47Z</time>
      </trkpt>
      <trkpt lat="46.50329" lon="6.14654">
        <ele>1487</ele>
        <time>2024-02-02T15:10:53Z</time>
      </trkpt>
      <trkpt lat="46.50328" lon="6.14667">
        <ele>1486.6</ele>
        <time>2024-02-02T15:11:00Z</time>
      </trkpt>
      <trkpt lat="46.50325" lon="6.1468">
        <ele>1487.1</ele>
        <time>2024-02-02T15:11:08Z</time>
      </trkpt>
      <trkpt lat="46.50321" lon="6.14693">
        <ele>1487.2</ele>
        <time>2024-02-02T15:11:16Z</time>
      </trkpt>
      <trkpt lat="46.50319" lon="6.14707">
        <ele>1487.3</ele>
        <time>2024-02-02T15:11:24Z</time>
      </trkpt>
      <trkpt lat="46.50314" lon="6.1472">
        <ele>1486.8</ele>
        <time>2024-02-02T15:11:32Z</time>
      </trkpt>
      <trkpt lat="46.50315" lon="6.14734">
        <ele>1486.3</ele>
        <time>2024-02-02T15:11:37Z</time>
      </trkpt>
      <trkpt lat="46.50318" lon="6.14748">
        <ele>1486.4</ele>
        <time>2024-02-02T15:11:44Z</time>
      </trkpt>
      <trkpt lat="46.50313" lon="6.14759">
        <ele>1483.9</ele>
        <time>2024-02-02T15:11:51Z</time>
      </trkpt>
      <trkpt lat="46.5031" lon="6.14772">
        <ele>1482</ele>
        <time>2024-02-02T15:12:00Z</time>
      </trkpt>
      <trkpt lat="46.50307" lon="6.14786">
        <ele>1480.3</ele>
        <time>2024-02-02T15:12:08Z</time>
      </trkpt>
      <trkpt lat="46.50302" lon="6.14799">
        <ele>1479.3</ele>
        <time>2024-02-02T15:12:19Z</time>
      </trkpt>
      <trkpt lat="46.50298" lon="6.14811">
        <ele>1478.8</ele>
        <time>2024-02-02T15:12:26Z</time>
      </trkpt>
      <trkpt lat="46.50295" lon="6.14824">
        <ele>1478.8</ele>
        <time>2024-02-02T15:12:36Z</time>
      </trkpt>
      <trkpt lat="46.50293" lon="6.14838">
        <ele>1478.5</ele>
        <time>2024-02-02T15:12:47Z</time>
      </trkpt>
      <trkpt lat="46.50291" lon="6.14851">
        <ele>1477.7</ele>
        <time>2024-02-02T15:12:54Z</time>
      </trkpt>
      <trkpt lat="46.50286" lon="6.14862">
        <ele>1476.5</ele>
        <time>2024-02-02T15:13:01Z</time>
      </trkpt>
      <trkpt lat="46.50284" lon="6.14875">
        <ele>1476.2</ele>
        <time>2024-02-02T15:13:09Z</time>
      </trkpt>
      <trkpt lat="46.50282" lon="6.14889">
        <ele>1475.8</ele>
        <time>2024-02-02T15:13:16Z</time>
      </trkpt>
      <trkpt lat="46.50278" lon="6.14902">
        <ele>1475.4</ele>
        <time>2024-02-02T15:13:24Z</time>
      </trkpt>
      <trkpt lat="46.50273" lon="6.14914">
        <ele>1474.6</ele>
        <time>2024-02-02T15:13:31Z</time>
      </trkpt>
      <trkpt lat="46.5027" lon="6.14927">
        <ele>1473</ele>
        <time>2024-02-02T15:13:40Z</time>
      </trkpt>
      <trkpt lat="46.50267" lon="6.1494">
        <ele>1471</ele>
        <time>2024-02-02T15:13:48Z</time>
      </trkpt>
      <trkpt lat="46.50262" lon="6.14952">
        <ele>1468.5</ele>
        <time>2024-02-02T15:13:56Z</time>
      </trkpt>
      <trkpt lat="46.50261" lon="6.14965">
        <ele>1467.5</ele>
        <time>2024-02-02T15:14:04Z</time>
      </trkpt>
      <trkpt lat="46.50261" lon="6.1498">
        <ele>1466.4</ele>
        <time>2024-02-02T15:14:15Z</time>
      </trkpt>
      <trkpt lat="46.50263" lon="6.14992">
        <ele>1465.2</ele>
        <time>2024-02-02T15:14:22Z</time>
      </trkpt>
      <trkpt lat="46.50271" lon="6.15003">
        <ele>1464</ele>
        <time>2024-02-02T15:14:33Z</time>
      </trkpt>
      <trkpt lat="46.50277" lon="6.15012">
        <ele>1464</ele>
        <time>2024-02-02T15:14:42Z</time>
      </trkpt>
      <trkpt lat="46.50284" lon="6.15022">
        <ele>1465.4</ele>
        <time>2024-02-02T15:14:52Z</time>
      </trkpt>
      <trkpt lat="46.5029" lon="6.15032">
        <ele>1466.3</ele>
        <time>2024-02-02T15:15:02Z</time>
      </trkpt>
      <trkpt lat="46.50294" lon="6.15046">
        <ele>1466.7</ele>
        <time>2024-02-02T15:15:12Z</time>
      </trkpt>
      <trkpt lat="46.50297" lon="6.15059">
        <ele>1466.7</ele>
        <time>2024-02-02T15:15:21Z</time>
      </trkpt>
      <trkpt lat="46.503" lon="6.15072">
        <ele>1466.4</ele>
        <time>2024-02-02T15:15:30Z</time>
      </trkpt>
      <trkpt lat="46.50303" lon="6.15085">
        <ele>1466.1</ele>
        <time>2024-02-02T15:15:40Z</time>
      </trkpt>
      <trkpt lat="46.50305" lon="6.15098">
        <ele>1466</ele>
        <time>2024-02-02T15:15:50Z</time>
      </trkpt>
      <trkpt lat="46.50307" lon="6.15111">
        <ele>1466</ele>
        <time>2024-02-02T15:16:00Z</time>
      </trkpt>
      <trkpt lat="46.50311" lon="6.15123">
        <ele>1467.1</ele>
        <time>2024-02-02T15:16:12Z</time>
      </trkpt>
      <trkpt lat="46.50316" lon="6.15135">
        <ele>1467.9</ele>
        <time>2024-02-02T15:16:24Z</time>
      </trkpt>
      <trkpt lat="46.50322" lon="6.15146">
        <ele>1468.7</ele>
        <time>2024-02-02T15:16:34Z</time>
      </trkpt>
      <trkpt lat="46.50327" lon="6.15156">
        <ele>1469</ele>
        <time>2024-02-02T15:16:45Z</time>
      </trkpt>
      <trkpt lat="46.50334" lon="6.15164">
        <ele>1468</ele>
        <time>2024-02-02T15:16:55Z</time>
      </trkpt>
      <trkpt lat="46.50342" lon="6.15173">
        <ele>1469.5</ele>
        <time>2024-02-02T15:17:05Z</time>
      </trkpt>
      <trkpt lat="46.50349" lon="6.15183">
        <ele>1470.7</ele>
        <time>2024-02-02T15:17:15Z</time>
      </trkpt>
      <trkpt lat="46.50354" lon="6.15194">
        <ele>1471.5</ele>
        <time>2024-02-02T15:17:24Z</time>
      </trkpt>
      <trkpt lat="46.5036" lon="6.15204">
        <ele>1472.6</ele>
        <time>2024-02-02T15:17:34Z</time>
      </trkpt>
      <trkpt lat="46.50367" lon="6.15213">
        <ele>1474.6</ele>
        <time>2024-02-02T15:17:44Z</time>
      </trkpt>
      <trkpt lat="46.50373" lon="6.15223">
        <ele>1476</ele>
        <time>2024-02-02T15:17:53Z</time>
      </trkpt>
      <trkpt lat="46.50378" lon="6.15235">
        <ele>1476.7</ele>
        <time>2024-02-02T15:18:03Z</time>
      </trkpt>
      <trkpt lat="46.50383" lon="6.15246">
        <ele>1476.6</ele>
        <time>2024-02-02T15:18:13Z</time>
      </trkpt>
      <trkpt lat="46.50389" lon="6.15257">
        <ele>1476</ele>
        <time>2024-02-02T15:18:22Z</time>
      </trkpt>
      <trkpt lat="46.50393" lon="6.15269">
        <ele>1476</ele>
        <time>2024-02-02T15:18:34Z</time>
      </trkpt>
      <trkpt lat="46.50402" lon="6.15274">
        <ele>1475.7</ele>
        <time>2024-02-02T15:18:52Z</time>
      </trkpt>
      <trkpt lat="46.50409" lon="6.15265">
        <ele>1476.3</ele>
        <time>2024-02-02T15:19:33Z</time>
      </trkpt>
      <trkpt lat="46.50418" lon="6.15261">
        <ele>1476.8</ele>
        <time>2024-02-02T15:19:44Z</time>
      </trkpt>
      <trkpt lat="46.50428" lon="6.15261">
        <ele>1476.3</ele>
        <time>2024-02-02T15:19:55Z</time>
      </trkpt>
      <trkpt lat="46.50437" lon="6.15259">
        <ele>1476.1</ele>
        <time>2024-02-02T15:20:05Z</time>
      </trkpt>
      <trkpt lat="46.50446" lon="6.15258">
        <ele>1475.8</ele>
        <time>2024-02-02T15:20:14Z</time>
      </trkpt>
      <trkpt lat="46.50455" lon="6.15258">
        <ele>1475.5</ele>
        <time>2024-02-02T15:20:23Z</time>
      </trkpt>
      <trkpt lat="46.50465" lon="6.1526">
        <ele>1474.8</ele>
        <time>2024-02-02T15:20:34Z</time>
      </trkpt>
      <trkpt lat="46.50474" lon="6.15263">
        <ele>1474.2</ele>
        <time>2024-02-02T15:20:43Z</time>
      </trkpt>
      <trkpt lat="46.50483" lon="6.15268">
        <ele>1474.5</ele>
        <time>2024-02-02T15:20:51Z</time>
      </trkpt>
      <trkpt lat="46.50492" lon="6.15275">
        <ele>1473.8</ele>
        <time>2024-02-02T15:21:00Z</time>
      </trkpt>
      <trkpt lat="46.50498" lon="6.15285">
        <ele>1472.7</ele>
        <time>2024-02-02T15:21:09Z</time>
      </trkpt>
      <trkpt lat="46.50504" lon="6.15294">
        <ele>1472.3</ele>
        <time>2024-02-02T15:21:18Z</time>
      </trkpt>
      <trkpt lat="46.50511" lon="6.15304">
        <ele>1471.5</ele>
        <time>2024-02-02T15:21:27Z</time>
      </trkpt>
      <trkpt lat="46.50518" lon="6.15312">
        <ele>1471.3</ele>
        <time>2024-02-02T15:21:34Z</time>
      </trkpt>
      <trkpt lat="46.50527" lon="6.15319">
        <ele>1471.1</ele>
        <time>2024-02-02T15:21:42Z</time>
      </trkpt>
      <trkpt lat="46.50535" lon="6.15325">
        <ele>1469.8</ele>
        <time>2024-02-02T15:21:51Z</time>
      </trkpt>
      <trkpt lat="46.50545" lon="6.15326">
        <ele>1469</ele>
        <time>2024-02-02T15:22:01Z</time>
      </trkpt>
      <trkpt lat="46.50554" lon="6.15324">
        <ele>1468.7</ele>
        <time>2024-02-02T15:22:10Z</time>
      </trkpt>
      <trkpt lat="46.50564" lon="6.15322">
        <ele>1467.8</ele>
        <time>2024-02-02T15:22:19Z</time>
      </trkpt>
      <trkpt lat="46.50572" lon="6.15314">
        <ele>1467.5</ele>
        <time>2024-02-02T15:22:27Z</time>
      </trkpt>
      <trkpt lat="46.5058" lon="6.15305">
        <ele>1466.8</ele>
        <time>2024-02-02T15:22:36Z</time>
      </trkpt>
      <trkpt lat="46.50588" lon="6.15299">
        <ele>1467.1</ele>
        <time>2024-02-02T15:22:44Z</time>
      </trkpt>
      <trkpt lat="46.50597" lon="6.15296">
        <ele>1466.6</ele>
        <time>2024-02-02T15:22:52Z</time>
      </trkpt>
      <trkpt lat="46.50607" lon="6.15294">
        <ele>1465.4</ele>
        <time>2024-02-02T15:23:00Z</time>
      </trkpt>
      <trkpt lat="46.50616" lon="6.15293">
        <ele>1464.1</ele>
        <time>2024-02-02T15:23:08Z</time>
      </trkpt>
      <trkpt lat="46.50625" lon="6.15287">
        <ele>1463.6</ele>
        <time>2024-02-02T15:23:16Z</time>
      </trkpt>
      <trkpt lat="46.50633" lon="6.15279">
        <ele>1463.6</ele>
        <time>2024-02-02T15:23:23Z</time>
      </trkpt>
      <trkpt lat="46.50642" lon="6.15273">
        <ele>1463.1</ele>
        <time>2024-02-02T15:23:30Z</time>
      </trkpt>
      <trkpt lat="46.5065" lon="6.15265">
        <ele>1463.2</ele>
        <time>2024-02-02T15:23:38Z</time>
      </trkpt>
      <trkpt lat="46.50659" lon="6.15262">
        <ele>1462.4</ele>
        <time>2024-02-02T15:23:48Z</time>
      </trkpt>
      <trkpt lat="46.50669" lon="6.15264">
        <ele>1461.4</ele>
        <time>2024-02-02T15:23:57Z</time>
      </trkpt>
      <trkpt lat="46.50678" lon="6.15268">
        <ele>1461.8</ele>
        <time>2024-02-02T15:24:05Z</time>
      </trkpt>
      <trkpt lat="46.50685" lon="6.15277">
        <ele>1460.1</ele>
        <time>2024-02-02T15:24:13Z</time>
      </trkpt>
      <trkpt lat="46.50692" lon="6.15285">
        <ele>1460</ele>
        <time>2024-02-02T15:24:21Z</time>
      </trkpt>
      <trkpt lat="46.50701" lon="6.15291">
        <ele>1459.3</ele>
        <time>2024-02-02T15:24:30Z</time>
      </trkpt>
      <trkpt lat="46.50711" lon="6.15292">
        <ele>1458.9</ele>
        <time>2024-02-02T15:24:40Z</time>
      </trkpt>
      <trkpt lat="46.5072" lon="6.1529">
        <ele>1458.9</ele>
        <time>2024-02-02T15:24:49Z</time>
      </trkpt>
      <trkpt lat="46.50729" lon="6.1529">
        <ele>1458.3</ele>
        <time>2024-02-02T15:24:56Z</time>
      </trkpt>
      <trkpt lat="46.50739" lon="6.15288">
        <ele>1457.7</ele>
        <time>2024-02-02T15:25:03Z</time>
      </trkpt>
      <trkpt lat="46.50748" lon="6.15285">
        <ele>1457</ele>
        <time>2024-02-02T15:25:11Z</time>
      </trkpt>
      <trkpt lat="46.50758" lon="6.1528">
        <ele>1455.9</ele>
        <time>2024-02-02T15:25:20Z</time>
      </trkpt>
      <trkpt lat="46.50766" lon="6.15274">
        <ele>1456.1</ele>
        <time>2024-02-02T15:25:28Z</time>
      </trkpt>
      <trkpt lat="46.50775" lon="6.1527">
        <ele>1455.8</ele>
        <time>2024-02-02T15:25:37Z</time>
      </trkpt>
      <trkpt lat="46.50784" lon="6.15264">
        <ele>1455.4</ele>
        <time>2024-02-02T15:25:45Z</time>
      </trkpt>
      <trkpt lat="46.50792" lon="6.15256">
        <ele>1454.6</ele>
        <time>2024-02-02T15:25:54Z</time>
      </trkpt>
      <trkpt lat="46.50801" lon="6.1525">
        <ele>1452</ele>
        <time>2024-02-02T15:26:01Z</time>
      </trkpt>
      <trkpt lat="46.50808" lon="6.1524">
        <ele>1452.8</ele>
        <time>2024-02-02T15:26:09Z</time>
      </trkpt>
      <trkpt lat="46.50815" lon="6.1523">
        <ele>1455</ele>
        <time>2024-02-02T15:26:17Z</time>
      </trkpt>
      <trkpt lat="46.5082" lon="6.15219">
        <ele>1455.5</ele>
        <time>2024-02-02T15:26:24Z</time>
      </trkpt>
      <trkpt lat="46.50827" lon="6.15208">
        <ele>1454</ele>
        <time>2024-02-02T15:26:32Z</time>
      </trkpt>
      <trkpt lat="46.50831" lon="6.15196">
        <ele>1452</ele>
        <time>2024-02-02T15:26:38Z</time>
      </trkpt>
      <trkpt lat="46.50837" lon="6.15185">
        <ele>1452.3</ele>
        <time>2024-02-02T15:26:46Z</time>
      </trkpt>
      <trkpt lat="46.50846" lon="6.15178">
        <ele>1451.4</ele>
        <time>2024-02-02T15:26:54Z</time>
      </trkpt>
      <trkpt lat="46.50855" lon="6.15171">
        <ele>1449.3</ele>
        <time>2024-02-02T15:27:02Z</time>
      </trkpt>
      <trkpt lat="46.50864" lon="6.15167">
        <ele>1446.8</ele>
        <time>2024-02-02T15:27:10Z</time>
      </trkpt>
      <trkpt lat="46.50873" lon="6.15161">
        <ele>1446.7</ele>
        <time>2024-02-02T15:27:18Z</time>
      </trkpt>
      <trkpt lat="46.50882" lon="6.15157">
        <ele>1446.3</ele>
        <time>2024-02-02T15:27:28Z</time>
      </trkpt>
      <trkpt lat="46.50891" lon="6.15152">
        <ele>1445.9</ele>
        <time>2024-02-02T15:27:36Z</time>
      </trkpt>
      <trkpt lat="46.509" lon="6.15145">
        <ele>1445.7</ele>
        <time>2024-02-02T15:27:44Z</time>
      </trkpt>
      <trkpt lat="46.50909" lon="6.15138">
        <ele>1444.5</ele>
        <time>2024-02-02T15:27:52Z</time>
      </trkpt>
      <trkpt lat="46.50917" lon="6.1513">
        <ele>1443.9</ele>
        <time>2024-02-02T15:28:01Z</time>
      </trkpt>
      <trkpt lat="46.50925" lon="6.1512">
        <ele>1444.5</ele>
        <time>2024-02-02T15:28:08Z</time>
      </trkpt>
      <trkpt lat="46.50932" lon="6.15113">
        <ele>1444.3</ele>
        <time>2024-02-02T15:28:15Z</time>
      </trkpt>
      <trkpt lat="46.5094" lon="6.15106">
        <ele>1444.2</ele>
        <time>2024-02-02T15:28:23Z</time>
      </trkpt>
      <trkpt lat="46.50949" lon="6.151">
        <ele>1444.9</ele>
        <time>2024-02-02T15:28:38Z</time>
      </trkpt>
      <trkpt lat="46.50958" lon="6.15094">
        <ele>1445.4</ele>
        <time>2024-02-02T15:28:49Z</time>
      </trkpt>
      <trkpt lat="46.50964" lon="6.15085">
        <ele>1444.3</ele>
        <time>2024-02-02T15:28:57Z</time>
      </trkpt>
      <trkpt lat="46.50969" lon="6.15073">
        <ele>1442.4</ele>
        <time>2024-02-02T15:29:04Z</time>
      </trkpt>
      <trkpt lat="46.50974" lon="6.15059">
        <ele>1440.6</ele>
        <time>2024-02-02T15:29:13Z</time>
      </trkpt>
      <trkpt lat="46.50975" lon="6.15046">
        <ele>1440.9</ele>
        <time>2024-02-02T15:29:20Z</time>
      </trkpt>
      <trkpt lat="46.50977" lon="6.15032">
        <ele>1441.6</ele>
        <time>2024-02-02T15:29:29Z</time>
      </trkpt>
      <trkpt lat="46.50979" lon="6.15018">
        <ele>1441.1</ele>
        <time>2024-02-02T15:29:40Z</time>
      </trkpt>
      <trkpt lat="46.50984" lon="6.15006">
        <ele>1440.1</ele>
        <time>2024-02-02T15:29:49Z</time>
      </trkpt>
      <trkpt lat="46.50986" lon="6.14994">
        <ele>1439.6</ele>
        <time>2024-02-02T15:29:57Z</time>
      </trkpt>
      <trkpt lat="46.50992" lon="6.14983">
        <ele>1439.5</ele>
        <time>2024-02-02T15:30:07Z</time>
      </trkpt>
      <trkpt lat="46.51" lon="6.14974">
        <ele>1439</ele>
        <time>2024-02-02T15:30:16Z</time>
      </trkpt>
      <trkpt lat="46.51005" lon="6.14963">
        <ele>1439.8</ele>
        <time>2024-02-02T15:30:25Z</time>
      </trkpt>
      <trkpt lat="46.51014" lon="6.1496">
        <ele>1439.5</ele>
        <time>2024-02-02T15:30:34Z</time>
      </trkpt>
      <trkpt lat="46.51024" lon="6.14959">
        <ele>1438.8</ele>
        <time>2024-02-02T15:30:43Z</time>
      </trkpt>
      <trkpt lat="46.51033" lon="6.14962">
        <ele>1439</ele>
        <time>2024-02-02T15:30:52Z</time>
      </trkpt>
      <trkpt lat="46.51042" lon="6.14965">
        <ele>1439.8</ele>
        <time>2024-02-02T15:31:01Z</time>
      </trkpt>
      <trkpt lat="46.51051" lon="6.14961">
        <ele>1440.3</ele>
        <time>2024-02-02T15:31:10Z</time>
      </trkpt>
      <trkpt lat="46.51057" lon="6.14951">
        <ele>1440.5</ele>
        <time>2024-02-02T15:31:19Z</time>
      </trkpt>
      <trkpt lat="46.51063" lon="6.1494">
        <ele>1441.1</ele>
        <time>2024-02-02T15:31:31Z</time>
      </trkpt>
      <trkpt lat="46.51068" lon="6.14929">
        <ele>1441.6</ele>
        <time>2024-02-02T15:31:44Z</time>
      </trkpt>
      <trkpt lat="46.51077" lon="6.14922">
        <ele>1442</ele>
        <time>2024-02-02T15:31:53Z</time>
      </trkpt>
      <trkpt lat="46.51082" lon="6.14911">
        <ele>1442</ele>
        <time>2024-02-02T15:32:02Z</time>
      </trkpt>
      <trkpt lat="46.51088" lon="6.149">
        <ele>1442.4</ele>
        <time>2024-02-02T15:32:11Z</time>
      </trkpt>
      <trkpt lat="46.51095" lon="6.14891">
        <ele>1442.5</ele>
        <time>2024-02-02T15:32:20Z</time>
      </trkpt>
      <trkpt lat="46.51099" lon="6.14879">
        <ele>1442.4</ele>
        <time>2024-02-02T15:32:28Z</time>
      </trkpt>
      <trkpt lat="46.51103" lon="6.14867">
        <ele>1442.4</ele>
        <time>2024-02-02T15:32:37Z</time>
      </trkpt>
      <trkpt lat="46.5111" lon="6.14858">
        <ele>1443</ele>
        <time>2024-02-02T15:32:45Z</time>
      </trkpt>
      <trkpt lat="46.51115" lon="6.14847">
        <ele>1443.2</ele>
        <time>2024-02-02T15:32:57Z</time>
      </trkpt>
      <trkpt lat="46.51125" lon="6.14842">
        <ele>1442.3</ele>
        <time>2024-02-02T15:33:06Z</time>
      </trkpt>
      <trkpt lat="46.51131" lon="6.14831">
        <ele>1441.2</ele>
        <time>2024-02-02T15:33:12Z</time>
      </trkpt>
      <trkpt lat="46.51135" lon="6.14818">
        <ele>1441.3</ele>
        <time>2024-02-02T15:33:22Z</time>
      </trkpt>
      <trkpt lat="46.5114" lon="6.14807">
        <ele>1440.7</ele>
        <time>2024-02-02T15:33:34Z</time>
      </trkpt>
      <trkpt lat="46.51141" lon="6.14793">
        <ele>1441.1</ele>
        <time>2024-02-02T15:33:45Z</time>
      </trkpt>
      <trkpt lat="46.51144" lon="6.14781">
        <ele>1441</ele>
        <time>2024-02-02T15:33:55Z</time>
      </trkpt>
      <trkpt lat="46.51151" lon="6.14771">
        <ele>1439.5</ele>
        <time>2024-02-02T15:34:05Z</time>
      </trkpt>
      <trkpt lat="46.51159" lon="6.14763">
        <ele>1437.5</ele>
        <time>2024-02-02T15:34:13Z</time>
      </trkpt>
      <trkpt lat="46.51167" lon="6.14755">
        <ele>1435.3</ele>
        <time>2024-02-02T15:34:22Z</time>
      </trkpt>
      <trkpt lat="46.51176" lon="6.14751">
        <ele>1432.8</ele>
        <time>2024-02-02T15:34:29Z</time>
      </trkpt>
      <trkpt lat="46.51182" lon="6.14741">
        <ele>1430.4</ele>
        <time>2024-02-02T15:34:39Z</time>
      </trkpt>
      <trkpt lat="46.51188" lon="6.14731">
        <ele>1428.7</ele>
        <time>2024-02-02T15:34:49Z</time>
      </trkpt>
      <trkpt lat="46.51191" lon="6.14718">
        <ele>1427</ele>
        <time>2024-02-02T15:34:55Z</time>
      </trkpt>
      <trkpt lat="46.51196" lon="6.14706">
        <ele>1424.4</ele>
        <time>2024-02-02T15:35:06Z</time>
      </trkpt>
      <trkpt lat="46.512" lon="6.14693">
        <ele>1421.9</ele>
        <time>2024-02-02T15:35:14Z</time>
      </trkpt>
      <trkpt lat="46.51206" lon="6.14682">
        <ele>1420</ele>
        <time>2024-02-02T15:35:23Z</time>
      </trkpt>
      <trkpt lat="46.51215" lon="6.14678">
        <ele>1418.2</ele>
        <time>2024-02-02T15:35:39Z</time>
      </trkpt>
      <trkpt lat="46.51224" lon="6.14679">
        <ele>1416.7</ele>
        <time>2024-02-02T15:35:51Z</time>
      </trkpt>
      <trkpt lat="46.51226" lon="6.14666">
        <ele>1415.7</ele>
        <time>2024-02-02T15:36:02Z</time>
      </trkpt>
      <trkpt lat="46.51235" lon="6.14662">
        <ele>1414.8</ele>
        <time>2024-02-02T15:36:16Z</time>
      </trkpt>
      <trkpt lat="46.51244" lon="6.14657">
        <ele>1413.5</ele>
        <time>2024-02-02T15:36:24Z</time>
      </trkpt>
      <trkpt lat="46.51247" lon="6.14644">
        <ele>1411.9</ele>
        <time>2024-02-02T15:36:35Z</time>
      </trkpt>
      <trkpt lat="46.51255" lon="6.14637">
        <ele>1410.4</ele>
        <time>2024-02-02T15:36:52Z</time>
      </trkpt>
      <trkpt lat="46.51263" lon="6.14631">
        <ele>1408.9</ele>
        <time>2024-02-02T15:37:05Z</time>
      </trkpt>
      <trkpt lat="46.51269" lon="6.14621">
        <ele>1407</ele>
        <time>2024-02-02T15:37:22Z</time>
      </trkpt>
      <trkpt lat="46.51277" lon="6.14615">
        <ele>1405.7</ele>
        <time>2024-02-02T15:37:35Z</time>
      </trkpt>
      <trkpt lat="46.51278" lon="6.14602">
        <ele>1403.7</ele>
        <time>2024-02-02T15:40:23Z</time>
      </trkpt>
      <trkpt lat="46.51283" lon="6.1459">
        <ele>1401.2</ele>
        <time>2024-02-02T15:40:30Z</time>
      </trkpt>
      <trkpt lat="46.51291" lon="6.14582">
        <ele>1398.9</ele>
        <time>2024-02-02T15:40:39Z</time>
      </trkpt>
      <trkpt lat="46.51301" lon="6.1458">
        <ele>1397.3</ele>
        <time>2024-02-02T15:40:48Z</time>
      </trkpt>
      <trkpt lat="46.5131" lon="6.14578">
        <ele>1397</ele>
        <time>2024-02-02T15:40:55Z</time>
      </trkpt>
      <trkpt lat="46.51319" lon="6.14578">
        <ele>1398.2</ele>
        <time>2024-02-02T15:41:05Z</time>
      </trkpt>
      <trkpt lat="46.51327" lon="6.14572">
        <ele>1398.2</ele>
        <time>2024-02-02T15:41:14Z</time>
      </trkpt>
      <trkpt lat="46.51336" lon="6.14565">
        <ele>1397.8</ele>
        <time>2024-02-02T15:41:23Z</time>
      </trkpt>
      <trkpt lat="46.51345" lon="6.14558">
        <ele>1397.3</ele>
        <time>2024-02-02T15:41:33Z</time>
      </trkpt>
      <trkpt lat="46.51351" lon="6.14547">
        <ele>1396.5</ele>
        <time>2024-02-02T15:41:42Z</time>
      </trkpt>
      <trkpt lat="46.51357" lon="6.14537">
        <ele>1396.1</ele>
        <time>2024-02-02T15:41:52Z</time>
      </trkpt>
      <trkpt lat="46.51366" lon="6.14533">
        <ele>1396.2</ele>
        <time>2024-02-02T15:42:00Z</time>
      </trkpt>
      <trkpt lat="46.51375" lon="6.14531">
        <ele>1395.8</ele>
        <time>2024-02-02T15:42:11Z</time>
      </trkpt>
      <trkpt lat="46.51383" lon="6.14524">
        <ele>1394.9</ele>
        <time>2024-02-02T15:42:19Z</time>
      </trkpt>
      <trkpt lat="46.51392" lon="6.14519">
        <ele>1394.3</ele>
        <time>2024-02-02T15:42:29Z</time>
      </trkpt>
      <trkpt lat="46.514" lon="6.14514">
        <ele>1393.6</ele>
        <time>2024-02-02T15:42:39Z</time>
      </trkpt>
      <trkpt lat="46.51408" lon="6.14506">
        <ele>1392.4</ele>
        <time>2024-02-02T15:42:47Z</time>
      </trkpt>
      <trkpt lat="46.51411" lon="6.14492">
        <ele>1390.6</ele>
        <time>2024-02-02T15:42:56Z</time>
      </trkpt>
      <trkpt lat="46.51413" lon="6.14479">
        <ele>1389.1</ele>
        <time>2024-02-02T15:43:03Z</time>
      </trkpt>
      <trkpt lat="46.51413" lon="6.14465">
        <ele>1387.4</ele>
        <time>2024-02-02T15:43:11Z</time>
      </trkpt>
      <trkpt lat="46.51413" lon="6.14451">
        <ele>1385.7</ele>
        <time>2024-02-02T15:43:21Z</time>
      </trkpt>
      <trkpt lat="46.51412" lon="6.14437">
        <ele>1383.7</ele>
        <time>2024-02-02T15:43:31Z</time>
      </trkpt>
      <trkpt lat="46.51412" lon="6.14424">
        <ele>1381.4</ele>
        <time>2024-02-02T15:43:39Z</time>
      </trkpt>
      <trkpt lat="46.51417" lon="6.14412">
        <ele>1379.4</ele>
        <time>2024-02-02T15:43:45Z</time>
      </trkpt>
      <trkpt lat="46.51426" lon="6.14409">
        <ele>1378.6</ele>
        <time>2024-02-02T15:43:55Z</time>
      </trkpt>
      <trkpt lat="46.51431" lon="6.14398">
        <ele>1376.8</ele>
        <time>2024-02-02T15:44:02Z</time>
      </trkpt>
      <trkpt lat="46.51436" lon="6.14387">
        <ele>1375</ele>
        <time>2024-02-02T15:44:10Z</time>
      </trkpt>
      <trkpt lat="46.51441" lon="6.14374">
        <ele>1373</ele>
        <time>2024-02-02T15:44:20Z</time>
      </trkpt>
      <trkpt lat="46.51447" lon="6.14362">
        <ele>1371.2</ele>
        <time>2024-02-02T15:44:29Z</time>
      </trkpt>
      <trkpt lat="46.51453" lon="6.14352">
        <ele>1370.4</ele>
        <time>2024-02-02T15:44:39Z</time>
      </trkpt>
      <trkpt lat="46.5146" lon="6.14342">
        <ele>1369</ele>
        <time>2024-02-02T15:44:49Z</time>
      </trkpt>
      <trkpt lat="46.51467" lon="6.14333">
        <ele>1367.4</ele>
        <time>2024-02-02T15:44:57Z</time>
      </trkpt>
      <trkpt lat="46.51475" lon="6.14326">
        <ele>1366.5</ele>
        <time>2024-02-02T15:45:09Z</time>
      </trkpt>
      <trkpt lat="46.5148" lon="6.14314">
        <ele>1365.4</ele>
        <time>2024-02-02T15:45:23Z</time>
      </trkpt>
      <trkpt lat="46.51488" lon="6.14308">
        <ele>1363.9</ele>
        <time>2024-02-02T15:45:31Z</time>
      </trkpt>
      <trkpt lat="46.51497" lon="6.14308">
        <ele>1362.7</ele>
        <time>2024-02-02T15:45:38Z</time>
      </trkpt>
      <trkpt lat="46.51505" lon="6.14318">
        <ele>1362.9</ele>
        <time>2024-02-02T15:45:46Z</time>
      </trkpt>
      <trkpt lat="46.51513" lon="6.14323">
        <ele>1362.5</ele>
        <time>2024-02-02T15:45:54Z</time>
      </trkpt>
      <trkpt lat="46.51522" lon="6.14328">
        <ele>1361.7</ele>
        <time>2024-02-02T15:46:03Z</time>
      </trkpt>
      <trkpt lat="46.51531" lon="6.14326">
        <ele>1360.9</ele>
        <time>2024-02-02T15:46:13Z</time>
      </trkpt>
      <trkpt lat="46.5154" lon="6.14324">
        <ele>1360.6</ele>
        <time>2024-02-02T15:47:09Z</time>
      </trkpt>
      <trkpt lat="46.51549" lon="6.14316">
        <ele>1360.2</ele>
        <time>2024-02-02T15:47:20Z</time>
      </trkpt>
      <trkpt lat="46.51554" lon="6.14305">
        <ele>1360</ele>
        <time>2024-02-02T15:47:28Z</time>
      </trkpt>
      <trkpt lat="46.51559" lon="6.14293">
        <ele>1358.3</ele>
        <time>2024-02-02T15:47:38Z</time>
      </trkpt>
      <trkpt lat="46.51566" lon="6.14284">
        <ele>1356.6</ele>
        <time>2024-02-02T15:47:46Z</time>
      </trkpt>
      <trkpt lat="46.51575" lon="6.1428">
        <ele>1355.1</ele>
        <time>2024-02-02T15:47:54Z</time>
      </trkpt>
      <trkpt lat="46.51584" lon="6.14274">
        <ele>1353.3</ele>
        <time>2024-02-02T15:48:03Z</time>
      </trkpt>
      <trkpt lat="46.51593" lon="6.14267">
        <ele>1351.7</ele>
        <time>2024-02-02T15:48:11Z</time>
      </trkpt>
      <trkpt lat="46.51602" lon="6.14267">
        <ele>1351.1</ele>
        <time>2024-02-02T15:48:21Z</time>
      </trkpt>
      <trkpt lat="46.5161" lon="6.14274">
        <ele>1351.6</ele>
        <time>2024-02-02T15:48:30Z</time>
      </trkpt>
      <trkpt lat="46.51618" lon="6.1427">
        <ele>1349.8</ele>
        <time>2024-02-02T15:48:41Z</time>
      </trkpt>
      <trkpt lat="46.51628" lon="6.14266">
        <ele>1347.9</ele>
        <time>2024-02-02T15:48:53Z</time>
      </trkpt>
      <trkpt lat="46.51635" lon="6.14258">
        <ele>1345.7</ele>
        <time>2024-02-02T15:49:03Z</time>
      </trkpt>
      <trkpt lat="46.51644" lon="6.14254">
        <ele>1344</ele>
        <time>2024-02-02T15:49:11Z</time>
      </trkpt>
      <trkpt lat="46.51652" lon="6.14245">
        <ele>1341.7</ele>
        <time>2024-02-02T15:49:20Z</time>
      </trkpt>
      <trkpt lat="46.51662" lon="6.14242">
        <ele>1340.2</ele>
        <time>2024-02-02T15:49:28Z</time>
      </trkpt>
      <trkpt lat="46.51671" lon="6.14244">
        <ele>1340.4</ele>
        <time>2024-02-02T15:49:37Z</time>
      </trkpt>
      <trkpt lat="46.51681" lon="6.14239">
        <ele>1340.2</ele>
        <time>2024-02-02T15:49:48Z</time>
      </trkpt>
      <trkpt lat="46.51685" lon="6.14228">
        <ele>1339</ele>
        <time>2024-02-02T15:49:58Z</time>
      </trkpt>
      <trkpt lat="46.51691" lon="6.14216">
        <ele>1337.5</ele>
        <time>2024-02-02T15:50:09Z</time>
      </trkpt>
      <trkpt lat="46.51695" lon="6.14204">
        <ele>1335.1</ele>
        <time>2024-02-02T15:50:20Z</time>
      </trkpt>
      <trkpt lat="46.51701" lon="6.14195">
        <ele>1332.6</ele>
        <time>2024-02-02T15:50:29Z</time>
      </trkpt>
      <trkpt lat="46.51707" lon="6.14185">
        <ele>1330.1</ele>
        <time>2024-02-02T15:50:41Z</time>
      </trkpt>
      <trkpt lat="46.51714" lon="6.14176">
        <ele>1328.1</ele>
        <time>2024-02-02T15:50:52Z</time>
      </trkpt>
      <trkpt lat="46.51722" lon="6.1417">
        <ele>1326.6</ele>
        <time>2024-02-02T15:51:02Z</time>
      </trkpt>
      <trkpt lat="46.51731" lon="6.14165">
        <ele>1324.9</ele>
        <time>2024-02-02T15:51:09Z</time>
      </trkpt>
      <trkpt lat="46.5174" lon="6.14157">
        <ele>1323.1</ele>
        <time>2024-02-02T15:51:17Z</time>
      </trkpt>
      <trkpt lat="46.51749" lon="6.14151">
        <ele>1321.5</ele>
        <time>2024-02-02T15:51:27Z</time>
      </trkpt>
      <trkpt lat="46.51758" lon="6.1415">
        <ele>1320.8</ele>
        <time>2024-02-02T15:51:36Z</time>
      </trkpt>
      <trkpt lat="46.51767" lon="6.14144">
        <ele>1319.9</ele>
        <time>2024-02-02T15:51:45Z</time>
      </trkpt>
      <trkpt lat="46.51774" lon="6.14137">
        <ele>1319.1</ele>
        <time>2024-02-02T15:51:51Z</time>
      </trkpt>
      <trkpt lat="46.51781" lon="6.14127">
        <ele>1318.7</ele>
        <time>2024-02-02T15:52:00Z</time>
      </trkpt>
      <trkpt lat="46.51789" lon="6.14121">
        <ele>1318</ele>
        <time>2024-02-02T15:52:16Z</time>
      </trkpt>
      <trkpt lat="46.51798" lon="6.14125">
        <ele>1317.1</ele>
        <time>2024-02-02T15:52:59Z</time>
      </trkpt>
      <trkpt lat="46.51808" lon="6.1413">
        <ele>1316.2</ele>
        <time>2024-02-02T15:53:08Z</time>
      </trkpt>
      <trkpt lat="46.51816" lon="6.14136">
        <ele>1315.3</ele>
        <time>2024-02-02T15:53:16Z</time>
      </trkpt>
      <trkpt lat="46.51822" lon="6.14146">
        <ele>1315</ele>
        <time>2024-02-02T15:53:25Z</time>
      </trkpt>
      <trkpt lat="46.51831" lon="6.14151">
        <ele>1314.3</ele>
        <time>2024-02-02T15:53:35Z</time>
      </trkpt>
      <trkpt lat="46.51839" lon="6.1416">
        <ele>1313.6</ele>
        <time>2024-02-02T15:53:44Z</time>
      </trkpt>
      <trkpt lat="46.51847" lon="6.14166">
        <ele>1313</ele>
        <time>2024-02-02T15:53:53Z</time>
      </trkpt>
      <trkpt lat="46.51857" lon="6.14166">
        <ele>1312.3</ele>
        <time>2024-02-02T15:54:01Z</time>
      </trkpt>
      <trkpt lat="46.51866" lon="6.14161">
        <ele>1311.5</ele>
        <time>2024-02-02T15:54:12Z</time>
      </trkpt>
      <trkpt lat="46.51876" lon="6.14157">
        <ele>1310.4</ele>
        <time>2024-02-02T15:54:20Z</time>
      </trkpt>
      <trkpt lat="46.51885" lon="6.14151">
        <ele>1309.4</ele>
        <time>2024-02-02T15:54:31Z</time>
      </trkpt>
      <trkpt lat="46.51894" lon="6.14147">
        <ele>1308.3</ele>
        <time>2024-02-02T15:54:40Z</time>
      </trkpt>
      <trkpt lat="46.51903" lon="6.14142">
        <ele>1307</ele>
        <time>2024-02-02T15:54:50Z</time>
      </trkpt>
      <trkpt lat="46.51911" lon="6.14134">
        <ele>1305.6</ele>
        <time>2024-02-02T15:55:00Z</time>
      </trkpt>
      <trkpt lat="46.5192" lon="6.14129">
        <ele>1304.5</ele>
        <time>2024-02-02T15:55:10Z</time>
      </trkpt>
      <trkpt lat="46.51928" lon="6.14122">
        <ele>1304</ele>
        <time>2024-02-02T15:55:18Z</time>
      </trkpt>
      <trkpt lat="46.51936" lon="6.14115">
        <ele>1303.4</ele>
        <time>2024-02-02T15:55:27Z</time>
      </trkpt>
      <trkpt lat="46.51944" lon="6.1411">
        <ele>1302.9</ele>
        <time>2024-02-02T15:55:35Z</time>
      </trkpt>
      <trkpt lat="46.51954" lon="6.14107">
        <ele>1302.3</ele>
        <time>2024-02-02T15:55:43Z</time>
      </trkpt>
      <trkpt lat="46.51963" lon="6.14102">
        <ele>1301.4</ele>
        <time>2024-02-02T15:55:52Z</time>
      </trkpt>
      <trkpt lat="46.51971" lon="6.14095">
        <ele>1300.3</ele>
        <time>2024-02-02T15:56:00Z</time>
      </trkpt>
      <trkpt lat="46.51981" lon="6.14093">
        <ele>1299.9</ele>
        <time>2024-02-02T15:56:08Z</time>
      </trkpt>
      <trkpt lat="46.5199" lon="6.14091">
        <ele>1299.7</ele>
        <time>2024-02-02T15:56:16Z</time>
      </trkpt>
      <trkpt lat="46.52" lon="6.14089">
        <ele>1299.4</ele>
        <time>2024-02-02T15:56:25Z</time>
      </trkpt>
      <trkpt lat="46.52009" lon="6.14086">
        <ele>1298.9</ele>
        <time>2024-02-02T15:56:33Z</time>
      </trkpt>
      <trkpt lat="46.52019" lon="6.14084">
        <ele>1298.4</ele>
        <time>2024-02-02T15:56:42Z</time>
      </trkpt>
      <trkpt lat="46.52029" lon="6.14084">
        <ele>1298</ele>
        <time>2024-02-02T15:56:50Z</time>
      </trkpt>
      <trkpt lat="46.52038" lon="6.14084">
        <ele>1297.3</ele>
        <time>2024-02-02T15:56:58Z</time>
      </trkpt>
      <trkpt lat="46.52048" lon="6.14086">
        <ele>1296.8</ele>
        <time>2024-02-02T15:57:07Z</time>
      </trkpt>
      <trkpt lat="46.52058" lon="6.14085">
        <ele>1295.9</ele>
        <time>2024-02-02T15:57:15Z</time>
      </trkpt>
      <trkpt lat="46.52068" lon="6.14085">
        <ele>1295.3</ele>
        <time>2024-02-02T15:57:23Z</time>
      </trkpt>
      <trkpt lat="46.52078" lon="6.14083">
        <ele>1294.4</ele>
        <time>2024-02-02T15:57:31Z</time>
      </trkpt>
      <trkpt lat="46.52087" lon="6.14086">
        <ele>1293.7</ele>
        <time>2024-02-02T15:57:40Z</time>
      </trkpt>
      <trkpt lat="46.52096" lon="6.14085">
        <ele>1292.3</ele>
        <time>2024-02-02T15:57:49Z</time>
      </trkpt>
      <trkpt lat="46.52105" lon="6.14082">
        <ele>1290.8</ele>
        <time>2024-02-02T15:57:58Z</time>
      </trkpt>
      <trkpt lat="46.52114" lon="6.14075">
        <ele>1289.6</ele>
        <time>2024-02-02T15:58:08Z</time>
      </trkpt>
      <trkpt lat="46.52122" lon="6.14068">
        <ele>1289.1</ele>
        <time>2024-02-02T15:58:18Z</time>
      </trkpt>
      <trkpt lat="46.52131" lon="6.14064">
        <ele>1288.6</ele>
        <time>2024-02-02T15:58:26Z</time>
      </trkpt>
      <trkpt lat="46.5214" lon="6.1406">
        <ele>1288.1</ele>
        <time>2024-02-02T15:58:35Z</time>
      </trkpt>
      <trkpt lat="46.52149" lon="6.1406">
        <ele>1287.5</ele>
        <time>2024-02-02T15:58:43Z</time>
      </trkpt>
      <trkpt lat="46.5216" lon="6.14058">
        <ele>1286.7</ele>
        <time>2024-02-02T15:58:51Z</time>
      </trkpt>
      <trkpt lat="46.52169" lon="6.14058">
        <ele>1286.2</ele>
        <time>2024-02-02T15:58:58Z</time>
      </trkpt>
      <trkpt lat="46.52178" lon="6.14053">
        <ele>1286.3</ele>
        <time>2024-02-02T15:59:06Z</time>
      </trkpt>
      <trkpt lat="46.52186" lon="6.14046">
        <ele>1286.3</ele>
        <time>2024-02-02T15:59:15Z</time>
      </trkpt>
      <trkpt lat="46.52194" lon="6.14038">
        <ele>1286.3</ele>
        <time>2024-02-02T15:59:23Z</time>
      </trkpt>
      <trkpt lat="46.52202" lon="6.14031">
        <ele>1286.7</ele>
        <time>2024-02-02T15:59:32Z</time>
      </trkpt>
      <trkpt lat="46.52209" lon="6.14022">
        <ele>1287.1</ele>
        <time>2024-02-02T15:59:41Z</time>
      </trkpt>
      <trkpt lat="46.52217" lon="6.14028">
        <ele>1287.7</ele>
        <time>2024-02-02T15:59:55Z</time>
      </trkpt>
      <trkpt lat="46.52222" lon="6.1404">
        <ele>1288.4</ele>
        <time>2024-02-02T16:01:55Z</time>
      </trkpt>
      <trkpt lat="46.5223" lon="6.14049">
        <ele>1289.7</ele>
        <time>2024-02-02T16:04:47Z</time>
      </trkpt>
      <trkpt lat="46.52235" lon="6.1406">
        <ele>1290.6</ele>
        <time>2024-02-02T16:04:57Z</time>
      </trkpt>
      <trkpt lat="46.52241" lon="6.1407">
        <ele>1291.7</ele>
        <time>2024-02-02T16:05:07Z</time>
      </trkpt>
      <trkpt lat="46.52246" lon="6.14082">
        <ele>1292.7</ele>
        <time>2024-02-02T16:05:17Z</time>
      </trkpt>
      <trkpt lat="46.52252" lon="6.14094">
        <ele>1293.6</ele>
        <time>2024-02-02T16:05:27Z</time>
      </trkpt>
      <trkpt lat="46.52257" lon="6.14105">
        <ele>1294.6</ele>
        <time>2024-02-02T16:05:35Z</time>
      </trkpt>
      <trkpt lat="46.52263" lon="6.14117">
        <ele>1295.5</ele>
        <time>2024-02-02T16:05:44Z</time>
      </trkpt>
      <trkpt lat="46.52266" lon="6.1413">
        <ele>1296.1</ele>
        <time>2024-02-02T16:05:54Z</time>
      </trkpt>
      <trkpt lat="46.52268" lon="6.14143">
        <ele>1296.7</ele>
        <time>2024-02-02T16:06:03Z</time>
      </trkpt>
      <trkpt lat="46.5227" lon="6.14156">
        <ele>1297</ele>
        <time>2024-02-02T16:06:12Z</time>
      </trkpt>
      <trkpt lat="46.52273" lon="6.14169">
        <ele>1297.5</ele>
        <time>2024-02-02T16:06:21Z</time>
      </trkpt>
      <trkpt lat="46.52278" lon="6.14181">
        <ele>1298.1</ele>
        <time>2024-02-02T16:06:30Z</time>
      </trkpt>
      <trkpt lat="46.52281" lon="6.14195">
        <ele>1298.7</ele>
        <time>2024-02-02T16:06:39Z</time>
      </trkpt>
      <trkpt lat="46.52286" lon="6.14206">
        <ele>1299.7</ele>
        <time>2024-02-02T16:06:47Z</time>
      </trkpt>
      <trkpt lat="46.52292" lon="6.14218">
        <ele>1300.2</ele>
        <time>2024-02-02T16:06:55Z</time>
      </trkpt>
      <trkpt lat="46.52298" lon="6.14229">
        <ele>1300.6</ele>
        <time>2024-02-02T16:07:03Z</time>
      </trkpt>
      <trkpt lat="46.52303" lon="6.14242">
        <ele>1300.9</ele>
        <time>2024-02-02T16:07:10Z</time>
      </trkpt>
      <trkpt lat="46.52307" lon="6.14254">
        <ele>1301.7</ele>
        <time>2024-02-02T16:07:18Z</time>
      </trkpt>
      <trkpt lat="46.52313" lon="6.14266">
        <ele>1303.5</ele>
        <time>2024-02-02T16:07:27Z</time>
      </trkpt>
      <trkpt lat="46.52315" lon="6.1428">
        <ele>1304.8</ele>
        <time>2024-02-02T16:07:37Z</time>
      </trkpt>
      <trkpt lat="46.52319" lon="6.14293">
        <ele>1305.5</ele>
        <time>2024-02-02T16:07:45Z</time>
      </trkpt>
      <trkpt lat="46.52322" lon="6.14306">
        <ele>1306</ele>
        <time>2024-02-02T16:07:53Z</time>
      </trkpt>
      <trkpt lat="46.52326" lon="6.14318">
        <ele>1306.2</ele>
        <time>2024-02-02T16:08:01Z</time>
      </trkpt>
      <trkpt lat="46.52328" lon="6.14332">
        <ele>1306.6</ele>
        <time>2024-02-02T16:08:09Z</time>
      </trkpt>
      <trkpt lat="46.52332" lon="6.14344">
        <ele>1307.7</ele>
        <time>2024-02-02T16:08:16Z</time>
      </trkpt>
      <trkpt lat="46.52336" lon="6.14357">
        <ele>1308.9</ele>
        <time>2024-02-02T16:08:24Z</time>
      </trkpt>
      <trkpt lat="46.52339" lon="6.1437">
        <ele>1309.7</ele>
        <time>2024-02-02T16:08:33Z</time>
      </trkpt>
      <trkpt lat="46.52342" lon="6.14384">
        <ele>1310.2</ele>
        <time>2024-02-02T16:08:42Z</time>
      </trkpt>
      <trkpt lat="46.52345" lon="6.14398">
        <ele>1310.7</ele>
        <time>2024-02-02T16:08:51Z</time>
      </trkpt>
      <trkpt lat="46.52346" lon="6.14412">
        <ele>1311.3</ele>
        <time>2024-02-02T16:09:01Z</time>
      </trkpt>
      <trkpt lat="46.52353" lon="6.14422">
        <ele>1311.9</ele>
        <time>2024-02-02T16:09:09Z</time>
      </trkpt>
      <trkpt lat="46.5236" lon="6.14431">
        <ele>1312</ele>
        <time>2024-02-02T16:09:18Z</time>
      </trkpt>
      <trkpt lat="46.52365" lon="6.14443">
        <ele>1312.5</ele>
        <time>2024-02-02T16:09:27Z</time>
      </trkpt>
      <trkpt lat="46.52372" lon="6.14454">
        <ele>1313.4</ele>
        <time>2024-02-02T16:09:36Z</time>
      </trkpt>
      <trkpt lat="46.52379" lon="6.14463">
        <ele>1314</ele>
        <time>2024-02-02T16:09:44Z</time>
      </trkpt>
      <trkpt lat="46.52386" lon="6.14473">
        <ele>1314</ele>
        <time>2024-02-02T16:09:52Z</time>
      </trkpt>
      <trkpt lat="46.52391" lon="6.14486">
        <ele>1314</ele>
        <time>2024-02-02T16:10:01Z</time>
      </trkpt>
      <trkpt lat="46.52396" lon="6.14497">
        <ele>1314</ele>
        <time>2024-02-02T16:10:09Z</time>
      </trkpt>
      <trkpt lat="46.52401" lon="6.14509">
        <ele>1314.7</ele>
        <time>2024-02-02T16:10:18Z</time>
      </trkpt>
      <trkpt lat="46.52409" lon="6.14519">
        <ele>1315.1</ele>
        <time>2024-02-02T16:10:25Z</time>
      </trkpt>
      <trkpt lat="46.52415" lon="6.1453">
        <ele>1315.2</ele>
        <time>2024-02-02T16:10:33Z</time>
      </trkpt>
      <trkpt lat="46.52423" lon="6.14537">
        <ele>1315.8</ele>
        <time>2024-02-02T16:10:40Z</time>
      </trkpt>
      <trkpt lat="46.5243" lon="6.14547">
        <ele>1316.6</ele>
        <time>2024-02-02T16:10:49Z</time>
      </trkpt>
      <trkpt lat="46.52437" lon="6.14557">
        <ele>1317.4</ele>
        <time>2024-02-02T16:10:57Z</time>
      </trkpt>
      <trkpt lat="46.52442" lon="6.14568">
        <ele>1317.1</ele>
        <time>2024-02-02T16:11:05Z</time>
      </trkpt>
      <trkpt lat="46.52448" lon="6.1458">
        <ele>1316.3</ele>
        <time>2024-02-02T16:11:13Z</time>
      </trkpt>
      <trkpt lat="46.52454" lon="6.1459">
        <ele>1316</ele>
        <time>2024-02-02T16:11:21Z</time>
      </trkpt>
      <trkpt lat="46.52463" lon="6.14595">
        <ele>1315.6</ele>
        <time>2024-02-02T16:11:29Z</time>
      </trkpt>
      <trkpt lat="46.52471" lon="6.14601">
        <ele>1314.8</ele>
        <time>2024-02-02T16:11:37Z</time>
      </trkpt>
      <trkpt lat="46.5248" lon="6.14606">
        <ele>1314.5</ele>
        <time>2024-02-02T16:11:46Z</time>
      </trkpt>
      <trkpt lat="46.52489" lon="6.14613">
        <ele>1314.7</ele>
        <time>2024-02-02T16:11:56Z</time>
      </trkpt>
      <trkpt lat="46.52497" lon="6.14619">
        <ele>1314.6</ele>
        <time>2024-02-02T16:12:03Z</time>
      </trkpt>
      <trkpt lat="46.52505" lon="6.14625">
        <ele>1313.3</ele>
        <time>2024-02-02T16:12:10Z</time>
      </trkpt>
      <trkpt lat="46.52513" lon="6.14634">
        <ele>1312.2</ele>
        <time>2024-02-02T16:12:17Z</time>
      </trkpt>
      <trkpt lat="46.52522" lon="6.14637">
        <ele>1311.4</ele>
        <time>2024-02-02T16:12:25Z</time>
      </trkpt>
      <trkpt lat="46.52531" lon="6.14639">
        <ele>1310.8</ele>
        <time>2024-02-02T16:12:33Z</time>
      </trkpt>
      <trkpt lat="46.52541" lon="6.14639">
        <ele>1310.1</ele>
        <time>2024-02-02T16:12:43Z</time>
      </trkpt>
      <trkpt lat="46.5255" lon="6.14633">
        <ele>1308.9</ele>
        <time>2024-02-02T16:12:51Z</time>
      </trkpt>
      <trkpt lat="46.52559" lon="6.14627">
        <ele>1307.5</ele>
        <time>2024-02-02T16:13:01Z</time>
      </trkpt>
      <trkpt lat="46.52567" lon="6.1462">
        <ele>1306</ele>
        <time>2024-02-02T16:13:09Z</time>
      </trkpt>
      <trkpt lat="46.52576" lon="6.14619">
        <ele>1305.2</ele>
        <time>2024-02-02T16:13:17Z</time>
      </trkpt>
      <trkpt lat="46.52586" lon="6.14618">
        <ele>1304</ele>
        <time>2024-02-02T16:13:25Z</time>
      </trkpt>
      <trkpt lat="46.52596" lon="6.14623">
        <ele>1303.1</ele>
        <time>2024-02-02T16:13:33Z</time>
      </trkpt>
      <trkpt lat="46.52605" lon="6.14623">
        <ele>1301.6</ele>
        <time>2024-02-02T16:13:39Z</time>
      </trkpt>
      <trkpt lat="46.52614" lon="6.14629">
        <ele>1301.5</ele>
        <time>2024-02-02T16:13:49Z</time>
      </trkpt>
      <trkpt lat="46.52623" lon="6.14634">
        <ele>1301.9</ele>
        <time>2024-02-02T16:13:57Z</time>
      </trkpt>
      <trkpt lat="46.52633" lon="6.14631">
        <ele>1301.3</ele>
        <time>2024-02-02T16:14:05Z</time>
      </trkpt>
      <trkpt lat="46.52642" lon="6.14628">
        <ele>1300.9</ele>
        <time>2024-02-02T16:14:12Z</time>
      </trkpt>
      <trkpt lat="46.52652" lon="6.14631">
        <ele>1301.3</ele>
        <time>2024-02-02T16:14:19Z</time>
      </trkpt>
      <trkpt lat="46.52661" lon="6.14636">
        <ele>1301.8</ele>
        <time>2024-02-02T16:14:26Z</time>
      </trkpt>
      <trkpt lat="46.52671" lon="6.1464">
        <ele>1301.6</ele>
        <time>2024-02-02T16:14:33Z</time>
      </trkpt>
      <trkpt lat="46.52679" lon="6.14647">
        <ele>1301.1</ele>
        <time>2024-02-02T16:14:40Z</time>
      </trkpt>
      <trkpt lat="46.52688" lon="6.14653">
        <ele>1300.6</ele>
        <time>2024-02-02T16:14:48Z</time>
      </trkpt>
      <trkpt lat="46.52696" lon="6.14662">
        <ele>1300.5</ele>
        <time>2024-02-02T16:14:56Z</time>
      </trkpt>
      <trkpt lat="46.52703" lon="6.14671">
        <ele>1300.3</ele>
        <time>2024-02-02T16:15:04Z</time>
      </trkpt>
      <trkpt lat="46.52713" lon="6.14673">
        <ele>1299.4</ele>
        <time>2024-02-02T16:15:12Z</time>
      </trkpt>
      <trkpt lat="46.52722" lon="6.14678">
        <ele>1298.9</ele>
        <time>2024-02-02T16:15:20Z</time>
      </trkpt>
      <trkpt lat="46.52731" lon="6.14683">
        <ele>1298.4</ele>
        <time>2024-02-02T16:15:28Z</time>
      </trkpt>
      <trkpt lat="46.5274" lon="6.14685">
        <ele>1297.6</ele>
        <time>2024-02-02T16:15:37Z</time>
      </trkpt>
      <trkpt lat="46.5275" lon="6.14683">
        <ele>1296.6</ele>
        <time>2024-02-02T16:15:45Z</time>
      </trkpt>
      <trkpt lat="46.52759" lon="6.14677">
        <ele>1296.6</ele>
        <time>2024-02-02T16:15:53Z</time>
      </trkpt>
      <trkpt lat="46.52768" lon="6.14674">
        <ele>1296.7</ele>
        <time>2024-02-02T16:16:01Z</time>
      </trkpt>
      <trkpt lat="46.52778" lon="6.14676">
        <ele>1297</ele>
        <time>2024-02-02T16:16:08Z</time>
      </trkpt>
      <trkpt lat="46.52786" lon="6.14683">
        <ele>1296.5</ele>
        <time>2024-02-02T16:16:15Z</time>
      </trkpt>
      <trkpt lat="46.52795" lon="6.1469">
        <ele>1295.9</ele>
        <time>2024-02-02T16:16:23Z</time>
      </trkpt>
      <trkpt lat="46.52804" lon="6.14695">
        <ele>1295.1</ele>
        <time>2024-02-02T16:16:31Z</time>
      </trkpt>
      <trkpt lat="46.52813" lon="6.14701">
        <ele>1295.1</ele>
        <time>2024-02-02T16:16:39Z</time>
      </trkpt>
      <trkpt lat="46.52821" lon="6.1471">
        <ele>1295.6</ele>
        <time>2024-02-02T16:16:48Z</time>
      </trkpt>
      <trkpt lat="46.52828" lon="6.14721">
        <ele>1296.5</ele>
        <time>2024-02-02T16:16:56Z</time>
      </trkpt>
      <trkpt lat="46.52834" lon="6.14732">
        <ele>1297</ele>
        <time>2024-02-02T16:17:05Z</time>
      </trkpt>
      <trkpt lat="46.52838" lon="6.14745">
        <ele>1297</ele>
        <time>2024-02-02T16:17:13Z</time>
      </trkpt>
      <trkpt lat="46.52843" lon="6.14758">
        <ele>1296.9</ele>
        <time>2024-02-02T16:17:21Z</time>
      </trkpt>
      <trkpt lat="46.52849" lon="6.14768">
        <ele>1296.6</ele>
        <time>2024-02-02T16:17:28Z</time>
      </trkpt>
      <trkpt lat="46.52855" lon="6.14779">
        <ele>1296.2</ele>
        <time>2024-02-02T16:17:36Z</time>
      </trkpt>
      <trkpt lat="46.52862" lon="6.14788">
        <ele>1295.6</ele>
        <time>2024-02-02T16:17:43Z</time>
      </trkpt>
      <trkpt lat="46.52871" lon="6.14796">
        <ele>1295</ele>
        <time>2024-02-02T16:17:50Z</time>
      </trkpt>
      <trkpt lat="46.52879" lon="6.14803">
        <ele>1294.9</ele>
        <time>2024-02-02T16:17:57Z</time>
      </trkpt>
      <trkpt lat="46.52887" lon="6.1481">
        <ele>1295.1</ele>
        <time>2024-02-02T16:18:05Z</time>
      </trkpt>
      <trkpt lat="46.52896" lon="6.14818">
        <ele>1295.7</ele>
        <time>2024-02-02T16:18:14Z</time>
      </trkpt>
      <trkpt lat="46.52902" lon="6.14827">
        <ele>1296.3</ele>
        <time>2024-02-02T16:18:22Z</time>
      </trkpt>
      <trkpt lat="46.52909" lon="6.14838">
        <ele>1296.6</ele>
        <time>2024-02-02T16:18:30Z</time>
      </trkpt>
      <trkpt lat="46.52915" lon="6.14847">
        <ele>1296.4</ele>
        <time>2024-02-02T16:18:37Z</time>
      </trkpt>
      <trkpt lat="46.52921" lon="6.14859">
        <ele>1296.1</ele>
        <time>2024-02-02T16:18:45Z</time>
      </trkpt>
      <trkpt lat="46.52926" lon="6.14871">
        <ele>1296.4</ele>
        <time>2024-02-02T16:18:53Z</time>
      </trkpt>
      <trkpt lat="46.52931" lon="6.14884">
        <ele>1296.8</ele>
        <time>2024-02-02T16:19:01Z</time>
      </trkpt>
      <trkpt lat="46.52934" lon="6.14896">
        <ele>1296.9</ele>
        <time>2024-02-02T16:19:08Z</time>
      </trkpt>
      <trkpt lat="46.52936" lon="6.1491">
        <ele>1296.8</ele>
        <time>2024-02-02T16:19:15Z</time>
      </trkpt>
      <trkpt lat="46.5294" lon="6.14922">
        <ele>1296.7</ele>
        <time>2024-02-02T16:19:22Z</time>
      </trkpt>
      <trkpt lat="46.52946" lon="6.14933">
        <ele>1296.5</ele>
        <time>2024-02-02T16:19:29Z</time>
      </trkpt>
      <trkpt lat="46.5295" lon="6.14945">
        <ele>1296.2</ele>
        <time>2024-02-02T16:19:38Z</time>
      </trkpt>
      <trkpt lat="46.52954" lon="6.14957">
        <ele>1296.9</ele>
        <time>2024-02-02T16:19:46Z</time>
      </trkpt>
      <trkpt lat="46.5296" lon="6.14968">
        <ele>1297.3</ele>
        <time>2024-02-02T16:19:57Z</time>
      </trkpt>
      <trkpt lat="46.52969" lon="6.14969">
        <ele>1297.1</ele>
        <time>2024-02-02T16:20:16Z</time>
      </trkpt>
      <trkpt lat="46.52978" lon="6.14963">
        <ele>1297.1</ele>
        <time>2024-02-02T16:20:27Z</time>
      </trkpt>
      <trkpt lat="46.52983" lon="6.14952">
        <ele>1297.1</ele>
        <time>2024-02-02T16:20:37Z</time>
      </trkpt>
      <trkpt lat="46.52992" lon="6.14948">
        <ele>1297.1</ele>
        <time>2024-02-02T16:20:47Z</time>
      </trkpt>
      <trkpt lat="46.53" lon="6.1494">
        <ele>1297</ele>
        <time>2024-02-02T16:20:56Z</time>
      </trkpt>
      <trkpt lat="46.53006" lon="6.14931">
        <ele>1297.2</ele>
        <time>2024-02-02T16:21:04Z</time>
      </trkpt>
      <trkpt lat="46.53013" lon="6.14922">
        <ele>1297.2</ele>
        <time>2024-02-02T16:21:12Z</time>
      </trkpt>
      <trkpt lat="46.5302" lon="6.14912">
        <ele>1297</ele>
        <time>2024-02-02T16:21:20Z</time>
      </trkpt>
      <trkpt lat="46.53025" lon="6.14902">
        <ele>1297</ele>
        <time>2024-02-02T16:21:27Z</time>
      </trkpt>
      <trkpt lat="46.5303" lon="6.1489">
        <ele>1297.1</ele>
        <time>2024-02-02T16:21:34Z</time>
      </trkpt>
      <trkpt lat="46.53034" lon="6.14878">
        <ele>1297.3</ele>
        <time>2024-02-02T16:21:43Z</time>
      </trkpt>
      <trkpt lat="46.53038" lon="6.14865">
        <ele>1297.1</ele>
        <time>2024-02-02T16:21:53Z</time>
      </trkpt>
      <trkpt lat="46.53038" lon="6.14852">
        <ele>1296.4</ele>
        <time>2024-02-02T16:22:02Z</time>
      </trkpt>
      <trkpt lat="46.53038" lon="6.14838">
        <ele>1295.5</ele>
        <time>2024-02-02T16:22:11Z</time>
      </trkpt>
      <trkpt lat="46.53038" lon="6.14824">
        <ele>1294.3</ele>
        <time>2024-02-02T16:22:20Z</time>
      </trkpt>
      <trkpt lat="46.53037" lon="6.1481">
        <ele>1293.1</ele>
        <time>2024-02-02T16:22:28Z</time>
      </trkpt>
      <trkpt lat="46.53039" lon="6.14795">
        <ele>1291.7</ele>
        <time>2024-02-02T16:22:36Z</time>
      </trkpt>
      <trkpt lat="46.5304" lon="6.14781">
        <ele>1290.4</ele>
        <time>2024-02-02T16:22:43Z</time>
      </trkpt>
      <trkpt lat="46.53038" lon="6.14769">
        <ele>1289.9</ele>
        <time>2024-02-02T16:22:49Z</time>
      </trkpt>
      <trkpt lat="46.53037" lon="6.14755">
        <ele>1289.5</ele>
        <time>2024-02-02T16:22:58Z</time>
      </trkpt>
      <trkpt lat="46.53036" lon="6.14741">
        <ele>1289.5</ele>
        <time>2024-02-02T16:23:06Z</time>
      </trkpt>
      <trkpt lat="46.53034" lon="6.14728">
        <ele>1289.7</ele>
        <time>2024-02-02T16:23:14Z</time>
      </trkpt>
      <trkpt lat="46.53032" lon="6.14714">
        <ele>1290.1</ele>
        <time>2024-02-02T16:23:22Z</time>
      </trkpt>
      <trkpt lat="46.53032" lon="6.147">
        <ele>1290.5</ele>
        <time>2024-02-02T16:23:31Z</time>
      </trkpt>
      <trkpt lat="46.53035" lon="6.14687">
        <ele>1291.6</ele>
        <time>2024-02-02T16:23:42Z</time>
      </trkpt>
      <trkpt lat="46.53037" lon="6.14674">
        <ele>1292.8</ele>
        <time>2024-02-02T16:23:56Z</time>
      </trkpt>
      <trkpt lat="46.53041" lon="6.14661">
        <ele>1294</ele>
        <time>2024-02-02T16:24:12Z</time>
      </trkpt>
      <trkpt lat="46.53034" lon="6.14652">
        <ele>1293.6</ele>
        <time>2024-02-02T16:24:30Z</time>
      </trkpt>
      <trkpt lat="46.53028" lon="6.14642">
        <ele>1293.8</ele>
        <time>2024-02-02T16:24:43Z</time>
      </trkpt>
      <trkpt lat="46.53024" lon="6.1463">
        <ele>1293.5</ele>
        <time>2024-02-02T16:24:53Z</time>
      </trkpt>
      <trkpt lat="46.53019" lon="6.14619">
        <ele>1293.3</ele>
        <time>2024-02-02T16:25:02Z</time>
      </trkpt>
      <trkpt lat="46.53017" lon="6.14604">
        <ele>1293.1</ele>
        <time>2024-02-02T16:25:12Z</time>
      </trkpt>
      <trkpt lat="46.53019" lon="6.1459">
        <ele>1292.6</ele>
        <time>2024-02-02T16:25:19Z</time>
      </trkpt>
      <trkpt lat="46.53019" lon="6.14576">
        <ele>1292.4</ele>
        <time>2024-02-02T16:25:26Z</time>
      </trkpt>
      <trkpt lat="46.53023" lon="6.14564">
        <ele>1292.6</ele>
        <time>2024-02-02T16:25:35Z</time>
      </trkpt>
      <trkpt lat="46.53025" lon="6.14552">
        <ele>1292.8</ele>
        <time>2024-02-02T16:25:42Z</time>
      </trkpt>
      <trkpt lat="46.53028" lon="6.14539">
        <ele>1293</ele>
        <time>2024-02-02T16:25:50Z</time>
      </trkpt>
      <trkpt lat="46.53031" lon="6.14526">
        <ele>1293.4</ele>
        <time>2024-02-02T16:25:58Z</time>
      </trkpt>
      <trkpt lat="46.53034" lon="6.14513">
        <ele>1294.4</ele>
        <time>2024-02-02T16:26:07Z</time>
      </trkpt>
      <trkpt lat="46.53037" lon="6.14499">
        <ele>1295.4</ele>
        <time>2024-02-02T16:26:16Z</time>
      </trkpt>
      <trkpt lat="46.53038" lon="6.14485">
        <ele>1296.3</ele>
        <time>2024-02-02T16:26:25Z</time>
      </trkpt>
      <trkpt lat="46.53038" lon="6.14471">
        <ele>1297.1</ele>
        <time>2024-02-02T16:26:35Z</time>
      </trkpt>
      <trkpt lat="46.53038" lon="6.14457">
        <ele>1297.5</ele>
        <time>2024-02-02T16:26:48Z</time>
      </trkpt>
      <trkpt lat="46.53043" lon="6.14446">
        <ele>1296.7</ele>
        <time>2024-02-02T16:27:04Z</time>
      </trkpt>
      <trkpt lat="46.53052" lon="6.14439">
        <ele>1293</ele>
        <time>2024-02-02T16:27:36Z</time>
      </trkpt>
      <trkpt lat="46.53061" lon="6.14438">
        <ele>1289.3</ele>
        <time>2024-02-02T16:27:49Z</time>
      </trkpt>
      <trkpt lat="46.53068" lon="6.14449">
        <ele>1290.4</ele>
        <time>2024-02-02T16:28:02Z</time>
      </trkpt>
      <trkpt lat="46.53073" lon="6.14459">
        <ele>1292.5</ele>
        <time>2024-02-02T16:28:11Z</time>
      </trkpt>
      <trkpt lat="46.53071" lon="6.14445">
        <ele>1288.1</ele>
        <time>2024-02-02T16:28:27Z</time>
      </trkpt>
      <trkpt lat="46.53068" lon="6.14433">
        <ele>1285</ele>
        <time>2024-02-02T16:28:34Z</time>
      </trkpt>
      <trkpt lat="46.53063" lon="6.14421">
        <ele>1282.5</ele>
        <time>2024-02-02T16:28:42Z</time>
      </trkpt>
      <trkpt lat="46.53065" lon="6.14408">
        <ele>1278.2</ele>
        <time>2024-02-02T16:28:53Z</time>
      </trkpt>
      <trkpt lat="46.53061" lon="6.14395">
        <ele>1276.5</ele>
        <time>2024-02-02T16:29:03Z</time>
      </trkpt>
      <trkpt lat="46.53054" lon="6.14386">
        <ele>1276.1</ele>
        <time>2024-02-02T16:29:11Z</time>
      </trkpt>
      <trkpt lat="46.53052" lon="6.14373">
        <ele>1273.9</ele>
        <time>2024-02-02T16:29:22Z</time>
      </trkpt>
      <trkpt lat="46.53049" lon="6.1436">
        <ele>1271.8</ele>
        <time>2024-02-02T16:29:39Z</time>
      </trkpt>
      <trkpt lat="46.53046" lon="6.14346">
        <ele>1270</ele>
        <time>2024-02-02T16:29:50Z</time>
      </trkpt>
      <trkpt lat="46.53038" lon="6.14337">
        <ele>1270</ele>
        <time>2024-02-02T16:29:59Z</time>
      </trkpt>
      <trkpt lat="46.5303" lon="6.1433">
        <ele>1269.9</ele>
        <time>2024-02-02T16:30:07Z</time>
      </trkpt>
      <trkpt lat="46.53022" lon="6.14323">
        <ele>1270.7</ele>
        <time>2024-02-02T16:30:16Z</time>
      </trkpt>
      <trkpt lat="46.53016" lon="6.14314">
        <ele>1270.3</ele>
        <time>2024-02-02T16:30:23Z</time>
      </trkpt>
      <trkpt lat="46.53008" lon="6.14306">
        <ele>1270.4</ele>
        <time>2024-02-02T16:30:31Z</time>
      </trkpt>
      <trkpt lat="46.53002" lon="6.14295">
        <ele>1269.6</ele>
        <time>2024-02-02T16:30:38Z</time>
      </trkpt>
      <trkpt lat="46.52995" lon="6.14285">
        <ele>1269.5</ele>
        <time>2024-02-02T16:30:46Z</time>
      </trkpt>
      <trkpt lat="46.52989" lon="6.14274">
        <ele>1269</ele>
        <time>2024-02-02T16:30:54Z</time>
      </trkpt>
      <trkpt lat="46.5298" lon="6.14268">
        <ele>1269.7</ele>
        <time>2024-02-02T16:31:02Z</time>
      </trkpt>
      <trkpt lat="46.52973" lon="6.1426">
        <ele>1270</ele>
        <time>2024-02-02T16:31:08Z</time>
      </trkpt>
      <trkpt lat="46.52967" lon="6.14248">
        <ele>1269.1</ele>
        <time>2024-02-02T16:31:16Z</time>
      </trkpt>
      <trkpt lat="46.52963" lon="6.14235">
        <ele>1267.6</ele>
        <time>2024-02-02T16:31:23Z</time>
      </trkpt>
      <trkpt lat="46.52958" lon="6.14223">
        <ele>1266.4</ele>
        <time>2024-02-02T16:31:30Z</time>
      </trkpt>
      <trkpt lat="46.52951" lon="6.14213">
        <ele>1265.4</ele>
        <time>2024-02-02T16:31:38Z</time>
      </trkpt>
      <trkpt lat="46.52944" lon="6.14203">
        <ele>1264.9</ele>
        <time>2024-02-02T16:31:47Z</time>
      </trkpt>
      <trkpt lat="46.52938" lon="6.14192">
        <ele>1263.9</ele>
        <time>2024-02-02T16:31:54Z</time>
      </trkpt>
      <trkpt lat="46.5293" lon="6.14183">
        <ele>1263.7</ele>
        <time>2024-02-02T16:32:01Z</time>
      </trkpt>
      <trkpt lat="46.52923" lon="6.14174">
        <ele>1262.7</ele>
        <time>2024-02-02T16:32:09Z</time>
      </trkpt>
      <trkpt lat="46.52914" lon="6.1417">
        <ele>1263.6</ele>
        <time>2024-02-02T16:32:17Z</time>
      </trkpt>
      <trkpt lat="46.52908" lon="6.14158">
        <ele>1262.6</ele>
        <time>2024-02-02T16:32:24Z</time>
      </trkpt>
      <trkpt lat="46.52904" lon="6.14146">
        <ele>1260.7</ele>
        <time>2024-02-02T16:32:32Z</time>
      </trkpt>
      <trkpt lat="46.52896" lon="6.14137">
        <ele>1260.4</ele>
        <time>2024-02-02T16:32:42Z</time>
      </trkpt>
      <trkpt lat="46.5289" lon="6.14128">
        <ele>1259.8</ele>
        <time>2024-02-02T16:32:50Z</time>
      </trkpt>
      <trkpt lat="46.52882" lon="6.14119">
        <ele>1259.8</ele>
        <time>2024-02-02T16:32:58Z</time>
      </trkpt>
      <trkpt lat="46.52877" lon="6.14107">
        <ele>1258.3</ele>
        <time>2024-02-02T16:33:05Z</time>
      </trkpt>
      <trkpt lat="46.52869" lon="6.14097">
        <ele>1257.8</ele>
        <time>2024-02-02T16:33:13Z</time>
      </trkpt>
      <trkpt lat="46.52863" lon="6.14088">
        <ele>1257.4</ele>
        <time>2024-02-02T16:33:20Z</time>
      </trkpt>
      <trkpt lat="46.52856" lon="6.14079">
        <ele>1257.3</ele>
        <time>2024-02-02T16:33:29Z</time>
      </trkpt>
      <trkpt lat="46.52847" lon="6.14072">
        <ele>1257.6</ele>
        <time>2024-02-02T16:33:57Z</time>
      </trkpt>
      <trkpt lat="46.52841" lon="6.14062">
        <ele>1257.1</ele>
        <time>2024-02-02T16:34:05Z</time>
      </trkpt>
      <trkpt lat="46.52839" lon="6.14049">
        <ele>1254.8</ele>
        <time>2024-02-02T16:34:26Z</time>
      </trkpt>
      <trkpt lat="46.5284" lon="6.14036">
        <ele>1252</ele>
        <time>2024-02-02T16:34:42Z</time>
      </trkpt>
      <trkpt lat="46.52833" lon="6.14027">
        <ele>1251.9</ele>
        <time>2024-02-02T16:34:52Z</time>
      </trkpt>
      <trkpt lat="46.52825" lon="6.14021">
        <ele>1252.5</ele>
        <time>2024-02-02T16:34:59Z</time>
      </trkpt>
      <trkpt lat="46.52819" lon="6.1401">
        <ele>1251.6</ele>
        <time>2024-02-02T16:35:07Z</time>
      </trkpt>
      <trkpt lat="46.52813" lon="6.13999">
        <ele>1250.7</ele>
        <time>2024-02-02T16:35:15Z</time>
      </trkpt>
      <trkpt lat="46.52808" lon="6.13988">
        <ele>1250.2</ele>
        <time>2024-02-02T16:35:22Z</time>
      </trkpt>
      <trkpt lat="46.52802" lon="6.13976">
        <ele>1250</ele>
        <time>2024-02-02T16:35:30Z</time>
      </trkpt>
      <trkpt lat="46.52797" lon="6.13964">
        <ele>1248.5</ele>
        <time>2024-02-02T16:35:37Z</time>
      </trkpt>
      <trkpt lat="46.52792" lon="6.13952">
        <ele>1246.5</ele>
        <time>2024-02-02T16:35:45Z</time>
      </trkpt>
      <trkpt lat="46.52787" lon="6.13939">
        <ele>1244.5</ele>
        <time>2024-02-02T16:35:53Z</time>
      </trkpt>
      <trkpt lat="46.52783" lon="6.13926">
        <ele>1242.6</ele>
        <time>2024-02-02T16:36:01Z</time>
      </trkpt>
      <trkpt lat="46.52777" lon="6.13915">
        <ele>1241.8</ele>
        <time>2024-02-02T16:36:08Z</time>
      </trkpt>
      <trkpt lat="46.52768" lon="6.1391">
        <ele>1242.1</ele>
        <time>2024-02-02T16:36:16Z</time>
      </trkpt>
      <trkpt lat="46.52764" lon="6.13898">
        <ele>1240.1</ele>
        <time>2024-02-02T16:36:26Z</time>
      </trkpt>
      <trkpt lat="46.52762" lon="6.13884">
        <ele>1237</ele>
        <time>2024-02-02T16:36:35Z</time>
      </trkpt>
      <trkpt lat="46.52758" lon="6.13872">
        <ele>1234.9</ele>
        <time>2024-02-02T16:36:45Z</time>
      </trkpt>
      <trkpt lat="46.52757" lon="6.13858">
        <ele>1231.9</ele>
        <time>2024-02-02T16:36:57Z</time>
      </trkpt>
      <trkpt lat="46.52748" lon="6.13852">
        <ele>1231.9</ele>
        <time>2024-02-02T16:37:08Z</time>
      </trkpt>
      <trkpt lat="46.52743" lon="6.13841">
        <ele>1230.1</ele>
        <time>2024-02-02T16:37:17Z</time>
      </trkpt>
      <trkpt lat="46.5274" lon="6.13828">
        <ele>1227.4</ele>
        <time>2024-02-02T16:37:27Z</time>
      </trkpt>
      <trkpt lat="46.52731" lon="6.13825">
        <ele>1228.3</ele>
        <time>2024-02-02T16:37:38Z</time>
      </trkpt>
      <trkpt lat="46.52731" lon="6.13812">
        <ele>1224.7</ele>
        <time>2024-02-02T16:37:49Z</time>
      </trkpt>
      <trkpt lat="46.52736" lon="6.13801">
        <ele>1220.4</ele>
        <time>2024-02-02T16:37:59Z</time>
      </trkpt>
      <trkpt lat="46.52746" lon="6.13799">
        <ele>1217.8</ele>
        <time>2024-02-02T16:38:09Z</time>
      </trkpt>
      <trkpt lat="46.52752" lon="6.13788">
        <ele>1212.8</ele>
        <time>2024-02-02T16:38:18Z</time>
      </trkpt>
      <trkpt lat="46.52762" lon="6.13787">
        <ele>1209.9</ele>
        <time>2024-02-02T16:38:26Z</time>
      </trkpt>
      <trkpt lat="46.52771" lon="6.13792">
        <ele>1209.6</ele>
        <time>2024-02-02T16:38:34Z</time>
      </trkpt>
      <trkpt lat="46.52778" lon="6.13799">
        <ele>1209.8</ele>
        <time>2024-02-02T16:38:42Z</time>
      </trkpt>
      <trkpt lat="46.52787" lon="6.13806">
        <ele>1210.3</ele>
        <time>2024-02-02T16:38:51Z</time>
      </trkpt>
      <trkpt lat="46.52795" lon="6.1381">
        <ele>1209.5</ele>
        <time>2024-02-02T16:39:03Z</time>
      </trkpt>
      <trkpt lat="46.52804" lon="6.13806">
        <ele>1206.4</ele>
        <time>2024-02-02T16:39:17Z</time>
      </trkpt>
      <trkpt lat="46.52813" lon="6.13808">
        <ele>1204.4</ele>
        <time>2024-02-02T16:39:29Z</time>
      </trkpt>
      <trkpt lat="46.52821" lon="6.13815">
        <ele>1203.8</ele>
        <time>2024-02-02T16:39:38Z</time>
      </trkpt>
      <trkpt lat="46.5283" lon="6.13816">
        <ele>1201.2</ele>
        <time>2024-02-02T16:39:51Z</time>
      </trkpt>
      <trkpt lat="46.52838" lon="6.13825">
        <ele>1201.7</ele>
        <time>2024-02-02T16:39:59Z</time>
      </trkpt>
      <trkpt lat="46.52844" lon="6.13835">
        <ele>1202.2</ele>
        <time>2024-02-02T16:40:07Z</time>
      </trkpt>
      <trkpt lat="46.52853" lon="6.13834">
        <ele>1198.2</ele>
        <time>2024-02-02T16:40:16Z</time>
      </trkpt>
      <trkpt lat="46.52863" lon="6.13838">
        <ele>1195.9</ele>
        <time>2024-02-02T16:40:28Z</time>
      </trkpt>
      <trkpt lat="46.5287" lon="6.13845">
        <ele>1195.3</ele>
        <time>2024-02-02T16:40:36Z</time>
      </trkpt>
      <trkpt lat="46.52878" lon="6.13852">
        <ele>1194.6</ele>
        <time>2024-02-02T16:40:44Z</time>
      </trkpt>
      <trkpt lat="46.52888" lon="6.1385">
        <ele>1191.1</ele>
        <time>2024-02-02T16:40:55Z</time>
      </trkpt>
      <trkpt lat="46.52896" lon="6.13858">
        <ele>1190.4</ele>
        <time>2024-02-02T16:41:05Z</time>
      </trkpt>
      <trkpt lat="46.52903" lon="6.13865">
        <ele>1190</ele>
        <time>2024-02-02T16:41:13Z</time>
      </trkpt>
      <trkpt lat="46.52912" lon="6.13872">
        <ele>1188.6</ele>
        <time>2024-02-02T16:41:37Z</time>
      </trkpt>
      <trkpt lat="46.5292" lon="6.13879">
        <ele>1187.8</ele>
        <time>2024-02-02T16:41:47Z</time>
      </trkpt>
      <trkpt lat="46.52929" lon="6.13879">
        <ele>1184</ele>
        <time>2024-02-02T16:41:58Z</time>
      </trkpt>
      <trkpt lat="46.52939" lon="6.13881">
        <ele>1180.5</ele>
        <time>2024-02-02T16:42:08Z</time>
      </trkpt>
      <trkpt lat="46.52947" lon="6.13885">
        <ele>1177.8</ele>
        <time>2024-02-02T16:42:17Z</time>
      </trkpt>
      <trkpt lat="46.52955" lon="6.13891">
        <ele>1176</ele>
        <time>2024-02-02T16:42:28Z</time>
      </trkpt>
      <trkpt lat="46.52964" lon="6.13898">
        <ele>1174.3</ele>
        <time>2024-02-02T16:42:37Z</time>
      </trkpt>
      <trkpt lat="46.5297" lon="6.13907">
        <ele>1174.1</ele>
        <time>2024-02-02T16:42:54Z</time>
      </trkpt>
      <trkpt lat="46.52979" lon="6.13904">
        <ele>1169.7</ele>
        <time>2024-02-02T16:43:02Z</time>
      </trkpt>
      <trkpt lat="46.52988" lon="6.13908">
        <ele>1167.4</ele>
        <time>2024-02-02T16:43:11Z</time>
      </trkpt>
      <trkpt lat="46.52998" lon="6.1391">
        <ele>1164.2</ele>
        <time>2024-02-02T16:43:22Z</time>
      </trkpt>
      <trkpt lat="46.53005" lon="6.1392">
        <ele>1164.3</ele>
        <time>2024-02-02T16:43:38Z</time>
      </trkpt>
      <trkpt lat="46.53011" lon="6.1393">
        <ele>1164.7</ele>
        <time>2024-02-02T16:43:50Z</time>
      </trkpt>
      <trkpt lat="46.53018" lon="6.13938">
        <ele>1164.5</ele>
        <time>2024-02-02T16:44:01Z</time>
      </trkpt>
      <trkpt lat="46.53027" lon="6.13939">
        <ele>1161.5</ele>
        <time>2024-02-02T16:44:14Z</time>
      </trkpt>
      <trkpt lat="46.53036" lon="6.13934">
        <ele>1157.8</ele>
        <time>2024-02-02T16:44:29Z</time>
      </trkpt>
      <trkpt lat="46.53045" lon="6.1394">
        <ele>1157.1</ele>
        <time>2024-02-02T16:44:38Z</time>
      </trkpt>
      <trkpt lat="46.53053" lon="6.13945">
        <ele>1155.8</ele>
        <time>2024-02-02T16:44:47Z</time>
      </trkpt>
      <trkpt lat="46.53063" lon="6.13946">
        <ele>1152.8</ele>
        <time>2024-02-02T16:44:56Z</time>
      </trkpt>
      <trkpt lat="46.53069" lon="6.13957">
        <ele>1153.4</ele>
        <time>2024-02-02T16:45:11Z</time>
      </trkpt>
      <trkpt lat="46.53078" lon="6.13958">
        <ele>1150.2</ele>
        <time>2024-02-02T16:45:25Z</time>
      </trkpt>
      <trkpt lat="46.53088" lon="6.13961">
        <ele>1148</ele>
        <time>2024-02-02T16:45:35Z</time>
      </trkpt>
      <trkpt lat="46.53097" lon="6.13959">
        <ele>1144.8</ele>
        <time>2024-02-02T16:45:45Z</time>
      </trkpt>
      <trkpt lat="46.53107" lon="6.13961">
        <ele>1142.8</ele>
        <time>2024-02-02T16:45:59Z</time>
      </trkpt>
      <trkpt lat="46.53113" lon="6.1395">
        <ele>1138.7</ele>
        <time>2024-02-02T16:46:20Z</time>
      </trkpt>
      <trkpt lat="46.53121" lon="6.13943">
        <ele>1135.3</ele>
        <time>2024-02-02T16:46:33Z</time>
      </trkpt>
      <trkpt lat="46.5313" lon="6.13943">
        <ele>1132.9</ele>
        <time>2024-02-02T16:46:45Z</time>
      </trkpt>
      <trkpt lat="46.5314" lon="6.13944">
        <ele>1130.7</ele>
        <time>2024-02-02T16:47:00Z</time>
      </trkpt>
      <trkpt lat="46.53149" lon="6.13942">
        <ele>1127.8</ele>
        <time>2024-02-02T16:47:12Z</time>
      </trkpt>
      <trkpt lat="46.53158" lon="6.13943">
        <ele>1125.6</ele>
        <time>2024-02-02T16:47:23Z</time>
      </trkpt>
      <trkpt lat="46.53165" lon="6.13934">
        <ele>1120.1</ele>
        <time>2024-02-02T16:47:30Z</time>
      </trkpt>
      <trkpt lat="46.53174" lon="6.13935">
        <ele>1116.1</ele>
        <time>2024-02-02T16:47:42Z</time>
      </trkpt>
      <trkpt lat="46.53181" lon="6.13945">
        <ele>1116.2</ele>
        <time>2024-02-02T16:47:53Z</time>
      </trkpt>
      <trkpt lat="46.53188" lon="6.13954">
        <ele>1115</ele>
        <time>2024-02-02T16:48:03Z</time>
      </trkpt>
      <trkpt lat="46.53196" lon="6.1396">
        <ele>1113.5</ele>
        <time>2024-02-02T16:48:15Z</time>
      </trkpt>
      <trkpt lat="46.53205" lon="6.13965">
        <ele>1111.3</ele>
        <time>2024-02-02T16:48:28Z</time>
      </trkpt>
      <trkpt lat="46.53214" lon="6.1397">
        <ele>1108.7</ele>
        <time>2024-02-02T16:48:37Z</time>
      </trkpt>
      <trkpt lat="46.53222" lon="6.13974">
        <ele>1105.7</ele>
        <time>2024-02-02T16:48:49Z</time>
      </trkpt>
      <trkpt lat="46.5323" lon="6.13981">
        <ele>1105.2</ele>
        <time>2024-02-02T16:49:02Z</time>
      </trkpt>
      <trkpt lat="46.53239" lon="6.13989">
        <ele>1104.2</ele>
        <time>2024-02-02T16:49:12Z</time>
      </trkpt>
      <trkpt lat="46.53245" lon="6.13999">
        <ele>1104.1</ele>
        <time>2024-02-02T16:49:31Z</time>
      </trkpt>
      <trkpt lat="46.53254" lon="6.14001">
        <ele>1101.5</ele>
        <time>2024-02-02T16:49:42Z</time>
      </trkpt>
      <trkpt lat="46.53263" lon="6.14006">
        <ele>1100.4</ele>
        <time>2024-02-02T16:49:57Z</time>
      </trkpt>
      <trkpt lat="46.53263" lon="6.13993">
        <ele>1097.8</ele>
        <time>2024-02-02T16:50:35Z</time>
      </trkpt>
      <trkpt lat="46.53269" lon="6.13983">
        <ele>1094.8</ele>
        <time>2024-02-02T16:50:45Z</time>
      </trkpt>
      <trkpt lat="46.53271" lon="6.1397">
        <ele>1092.1</ele>
        <time>2024-02-02T16:50:55Z</time>
      </trkpt>
      <trkpt lat="46.53278" lon="6.1396">
        <ele>1088.8</ele>
        <time>2024-02-02T16:51:06Z</time>
      </trkpt>
      <trkpt lat="46.53284" lon="6.13951">
        <ele>1086.1</ele>
        <time>2024-02-02T16:51:14Z</time>
      </trkpt>
      <trkpt lat="46.53291" lon="6.13941">
        <ele>1083.7</ele>
        <time>2024-02-02T16:51:28Z</time>
      </trkpt>
      <trkpt lat="46.53298" lon="6.13932">
        <ele>1081.5</ele>
        <time>2024-02-02T16:51:37Z</time>
      </trkpt>
      <trkpt lat="46.53303" lon="6.1392">
        <ele>1079.6</ele>
        <time>2024-02-02T16:51:45Z</time>
      </trkpt>
      <trkpt lat="46.53311" lon="6.13913">
        <ele>1078.4</ele>
        <time>2024-02-02T16:51:56Z</time>
      </trkpt>
      <trkpt lat="46.5332" lon="6.13914">
        <ele>1077.8</ele>
        <time>2024-02-02T16:52:03Z</time>
      </trkpt>
      <trkpt lat="46.53329" lon="6.1392">
        <ele>1077.6</ele>
        <time>2024-02-02T16:52:10Z</time>
      </trkpt>
      <trkpt lat="46.53337" lon="6.13913">
        <ele>1076.6</ele>
        <time>2024-02-02T16:52:19Z</time>
      </trkpt>
      <trkpt lat="46.53345" lon="6.13922">
        <ele>1076.5</ele>
        <time>2024-02-02T16:52:27Z</time>
      </trkpt>
      <trkpt lat="46.53354" lon="6.13926">
        <ele>1076.2</ele>
        <time>2024-02-02T16:52:34Z</time>
      </trkpt>
      <trkpt lat="46.53361" lon="6.13935">
        <ele>1076.4</ele>
        <time>2024-02-02T16:52:41Z</time>
      </trkpt>
      <trkpt lat="46.53368" lon="6.13945">
        <ele>1076.8</ele>
        <time>2024-02-02T16:52:50Z</time>
      </trkpt>
      <trkpt lat="46.53377" lon="6.13952">
        <ele>1076.7</ele>
        <time>2024-02-02T16:52:56Z</time>
      </trkpt>
      <trkpt lat="46.53385" lon="6.1396">
        <ele>1076.7</ele>
        <time>2024-02-02T16:53:05Z</time>
      </trkpt>
      <trkpt lat="46.53391" lon="6.13972">
        <ele>1076.9</ele>
        <time>2024-02-02T16:53:15Z</time>
      </trkpt>
      <trkpt lat="46.53397" lon="6.13981">
        <ele>1076.7</ele>
        <time>2024-02-02T16:53:22Z</time>
      </trkpt>
      <trkpt lat="46.53405" lon="6.13987">
        <ele>1076.4</ele>
        <time>2024-02-02T16:53:29Z</time>
      </trkpt>
      <trkpt lat="46.53412" lon="6.13997">
        <ele>1076.2</ele>
        <time>2024-02-02T16:53:36Z</time>
      </trkpt>
      <trkpt lat="46.53419" lon="6.14005">
        <ele>1076.2</ele>
        <time>2024-02-02T16:53:44Z</time>
      </trkpt>
      <trkpt lat="46.53427" lon="6.14015">
        <ele>1076.1</ele>
        <time>2024-02-02T16:53:53Z</time>
      </trkpt>
      <trkpt lat="46.53435" lon="6.14022">
        <ele>1075.8</ele>
        <time>2024-02-02T16:54:00Z</time>
      </trkpt>
      <trkpt lat="46.53442" lon="6.14031">
        <ele>1075.6</ele>
        <time>2024-02-02T16:54:09Z</time>
      </trkpt>
      <trkpt lat="46.53449" lon="6.14042">
        <ele>1076.2</ele>
        <time>2024-02-02T16:54:17Z</time>
      </trkpt>
      <trkpt lat="46.53455" lon="6.14051">
        <ele>1076.5</ele>
        <time>2024-02-02T16:54:23Z</time>
      </trkpt>
      <trkpt lat="46.53462" lon="6.1406">
        <ele>1076.3</ele>
        <time>2024-02-02T16:54:30Z</time>
      </trkpt>
      <trkpt lat="46.53469" lon="6.1407">
        <ele>1076.2</ele>
        <time>2024-02-02T16:54:37Z</time>
      </trkpt>
      <trkpt lat="46.53476" lon="6.14079">
        <ele>1076.5</ele>
        <time>2024-02-02T16:54:44Z</time>
      </trkpt>
      <trkpt lat="46.53484" lon="6.14088">
        <ele>1076.4</ele>
        <time>2024-02-02T16:54:52Z</time>
      </trkpt>
      <trkpt lat="46.53491" lon="6.14097">
        <ele>1076.5</ele>
        <time>2024-02-02T16:54:59Z</time>
      </trkpt>
      <trkpt lat="46.53497" lon="6.14107">
        <ele>1076.8</ele>
        <time>2024-02-02T16:55:07Z</time>
      </trkpt>
      <trkpt lat="46.53505" lon="6.14117">
        <ele>1076.9</ele>
        <time>2024-02-02T16:55:15Z</time>
      </trkpt>
      <trkpt lat="46.53511" lon="6.14107">
        <ele>1075.9</ele>
        <time>2024-02-02T16:55:24Z</time>
      </trkpt>
      <trkpt lat="46.53516" lon="6.14095">
        <ele>1074.7</ele>
        <time>2024-02-02T16:55:32Z</time>
      </trkpt>
      <trkpt lat="46.53522" lon="6.14084">
        <ele>1073.5</ele>
        <time>2024-02-02T16:55:40Z</time>
      </trkpt>
      <trkpt lat="46.53526" lon="6.14071">
        <ele>1072.7</ele>
        <time>2024-02-02T16:55:48Z</time>
      </trkpt>
      <trkpt lat="46.53531" lon="6.14059">
        <ele>1071.9</ele>
        <time>2024-02-02T16:55:57Z</time>
      </trkpt>
      <trkpt lat="46.53538" lon="6.1405">
        <ele>1070.9</ele>
        <time>2024-02-02T16:56:05Z</time>
      </trkpt>
      <trkpt lat="46.53544" lon="6.14039">
        <ele>1070</ele>
        <time>2024-02-02T16:56:13Z</time>
      </trkpt>
      <trkpt lat="46.53548" lon="6.14026">
        <ele>1069.2</ele>
        <time>2024-02-02T16:56:20Z</time>
      </trkpt>
      <trkpt lat="46.53554" lon="6.14016">
        <ele>1068.2</ele>
        <time>2024-02-02T16:56:27Z</time>
      </trkpt>
      <trkpt lat="46.53559" lon="6.14005">
        <ele>1067.2</ele>
        <time>2024-02-02T16:56:33Z</time>
      </trkpt>
      <trkpt lat="46.53566" lon="6.13995">
        <ele>1066.3</ele>
        <time>2024-02-02T16:56:40Z</time>
      </trkpt>
      <trkpt lat="46.53572" lon="6.13985">
        <ele>1065.3</ele>
        <time>2024-02-02T16:56:49Z</time>
      </trkpt>
      <trkpt lat="46.53577" lon="6.13973">
        <ele>1064.3</ele>
        <time>2024-02-02T16:56:56Z</time>
      </trkpt>
      <trkpt lat="46.53583" lon="6.13961">
        <ele>1063.2</ele>
        <time>2024-02-02T16:57:04Z</time>
      </trkpt>
      <trkpt lat="46.5359" lon="6.13952">
        <ele>1062.4</ele>
        <time>2024-02-02T16:57:11Z</time>
      </trkpt>
      <trkpt lat="46.53597" lon="6.13943">
        <ele>1061.4</ele>
        <time>2024-02-02T16:57:19Z</time>
      </trkpt>
      <trkpt lat="46.53605" lon="6.13935">
        <ele>1060.5</ele>
        <time>2024-02-02T16:57:27Z</time>
      </trkpt>
      <trkpt lat="46.53612" lon="6.13924">
        <ele>1059.5</ele>
        <time>2024-02-02T16:57:36Z</time>
      </trkpt>
      <trkpt lat="46.53618" lon="6.13914">
        <ele>1058.7</ele>
        <time>2024-02-02T16:57:45Z</time>
      </trkpt>
      <trkpt lat="46.53628" lon="6.1391">
        <ele>1058.2</ele>
        <time>2024-02-02T16:57:53Z</time>
      </trkpt>
      <trkpt lat="46.53635" lon="6.139">
        <ele>1057.5</ele>
        <time>2024-02-02T16:58:00Z</time>
      </trkpt>
      <trkpt lat="46.53645" lon="6.139">
        <ele>1057.6</ele>
        <time>2024-02-02T16:58:08Z</time>
      </trkpt>
      <trkpt lat="46.53654" lon="6.13894">
        <ele>1057.7</ele>
        <time>2024-02-02T16:58:15Z</time>
      </trkpt>
      <trkpt lat="46.53661" lon="6.13885">
        <ele>1057.6</ele>
        <time>2024-02-02T16:58:24Z</time>
      </trkpt>
      <trkpt lat="46.53665" lon="6.13873">
        <ele>1056.8</ele>
        <time>2024-02-02T16:58:31Z</time>
      </trkpt>
      <trkpt lat="46.53673" lon="6.13865">
        <ele>1056.2</ele>
        <time>2024-02-02T16:58:40Z</time>
      </trkpt>
      <trkpt lat="46.53682" lon="6.1386">
        <ele>1056</ele>
        <time>2024-02-02T16:58:48Z</time>
      </trkpt>
      <trkpt lat="46.53691" lon="6.13857">
        <ele>1056.2</ele>
        <time>2024-02-02T16:58:57Z</time>
      </trkpt>
      <trkpt lat="46.53699" lon="6.13849">
        <ele>1057</ele>
        <time>2024-02-02T16:59:05Z</time>
      </trkpt>
      <trkpt lat="46.53707" lon="6.13843">
        <ele>1057.5</ele>
        <time>2024-02-02T16:59:12Z</time>
      </trkpt>
      <trkpt lat="46.53717" lon="6.13841">
        <ele>1057.7</ele>
        <time>2024-02-02T16:59:22Z</time>
      </trkpt>
      <trkpt lat="46.53726" lon="6.13846">
        <ele>1057.8</ele>
        <time>2024-02-02T16:59:28Z</time>
      </trkpt>
      <trkpt lat="46.53734" lon="6.13851">
        <ele>1058.3</ele>
        <time>2024-02-02T16:59:36Z</time>
      </trkpt>
      <trkpt lat="46.53743" lon="6.13854">
        <ele>1059.1</ele>
        <time>2024-02-02T16:59:45Z</time>
      </trkpt>
      <trkpt lat="46.53753" lon="6.13855">
        <ele>1059.8</ele>
        <time>2024-02-02T16:59:54Z</time>
      </trkpt>
      <trkpt lat="46.53763" lon="6.13856">
        <ele>1060</ele>
        <time>2024-02-02T17:00:04Z</time>
      </trkpt>
      <trkpt lat="46.53773" lon="6.13855">
        <ele>1060.1</ele>
        <time>2024-02-02T17:00:13Z</time>
      </trkpt>
      <trkpt lat="46.53782" lon="6.13854">
        <ele>1060.1</ele>
        <time>2024-02-02T17:00:21Z</time>
      </trkpt>
      <trkpt lat="46.53792" lon="6.13856">
        <ele>1059.7</ele>
        <time>2024-02-02T17:00:26Z</time>
      </trkpt>
      <trkpt lat="46.53801" lon="6.13856">
        <ele>1059.4</ele>
        <time>2024-02-02T17:00:32Z</time>
      </trkpt>
      <trkpt lat="46.53806" lon="6.13846">
        <ele>1059.5</ele>
        <time>2024-02-02T17:00:39Z</time>
      </trkpt>
      <trkpt lat="46.53806" lon="6.13831">
        <ele>1059.8</ele>
        <time>2024-02-02T17:00:45Z</time>
      </trkpt>
      <trkpt lat="46.53815" lon="6.13825">
        <ele>1059.3</ele>
        <time>2024-02-02T17:00:53Z</time>
      </trkpt>
      <trkpt lat="46.53824" lon="6.13822">
        <ele>1059.1</ele>
        <time>2024-02-02T17:00:59Z</time>
      </trkpt>
      <trkpt lat="46.53833" lon="6.13817">
        <ele>1059</ele>
        <time>2024-02-02T17:01:06Z</time>
      </trkpt>
      <trkpt lat="46.53843" lon="6.13814">
        <ele>1059.2</ele>
        <time>2024-02-02T17:01:14Z</time>
      </trkpt>
      <trkpt lat="46.5385" lon="6.13804">
        <ele>1059.6</ele>
        <time>2024-02-02T17:01:23Z</time>
      </trkpt>
      <trkpt lat="46.53858" lon="6.13798">
        <ele>1059.6</ele>
        <time>2024-02-02T17:01:30Z</time>
      </trkpt>
      <trkpt lat="46.53867" lon="6.13792">
        <ele>1059.7</ele>
        <time>2024-02-02T17:01:37Z</time>
      </trkpt>
      <trkpt lat="46.53875" lon="6.13787">
        <ele>1060</ele>
        <time>2024-02-02T17:01:43Z</time>
      </trkpt>
      <trkpt lat="46.53884" lon="6.13791">
        <ele>1060.3</ele>
        <time>2024-02-02T17:01:51Z</time>
      </trkpt>
      <trkpt lat="46.53894" lon="6.13787">
        <ele>1060.8</ele>
        <time>2024-02-02T17:02:04Z</time>
      </trkpt>
      <trkpt lat="46.539" lon="6.13778">
        <ele>1061.8</ele>
        <time>2024-02-02T17:02:12Z</time>
      </trkpt>
      <trkpt lat="46.53909" lon="6.1378">
        <ele>1062.2</ele>
        <time>2024-02-02T17:02:23Z</time>
      </trkpt>
      <trkpt lat="46.53918" lon="6.13787">
        <ele>1061.8</ele>
        <time>2024-02-02T17:02:32Z</time>
      </trkpt>
      <trkpt lat="46.53924" lon="6.13797">
        <ele>1061.3</ele>
        <time>2024-02-02T17:02:41Z</time>
      </trkpt>
      <trkpt lat="46.53932" lon="6.13804">
        <ele>1061.9</ele>
        <time>2024-02-02T17:02:49Z</time>
      </trkpt>
      <trkpt lat="46.53939" lon="6.13812">
        <ele>1063.1</ele>
        <time>2024-02-02T17:02:57Z</time>
      </trkpt>
      <trkpt lat="46.53945" lon="6.13824">
        <ele>1064</ele>
        <time>2024-02-02T17:03:05Z</time>
      </trkpt>
      <trkpt lat="46.5395" lon="6.13836">
        <ele>1063.6</ele>
        <time>2024-02-02T17:03:13Z</time>
      </trkpt>
      <trkpt lat="46.53957" lon="6.13843">
        <ele>1063</ele>
        <time>2024-02-02T17:03:20Z</time>
      </trkpt>
      <trkpt lat="46.53967" lon="6.13845">
        <ele>1063.6</ele>
        <time>2024-02-02T17:03:27Z</time>
      </trkpt>
      <trkpt lat="46.53976" lon="6.13851">
        <ele>1064.1</ele>
        <time>2024-02-02T17:03:35Z</time>
      </trkpt>
      <trkpt lat="46.53984" lon="6.13859">
        <ele>1064.1</ele>
        <time>2024-02-02T17:03:44Z</time>
      </trkpt>
      <trkpt lat="46.53993" lon="6.13867">
        <ele>1064.2</ele>
        <time>2024-02-02T17:03:50Z</time>
      </trkpt>
      <trkpt lat="46.54001" lon="6.13872">
        <ele>1064.7</ele>
        <time>2024-02-02T17:03:57Z</time>
      </trkpt>
      <trkpt lat="46.54008" lon="6.13882">
        <ele>1065</ele>
        <time>2024-02-02T17:04:05Z</time>
      </trkpt>
      <trkpt lat="46.54015" lon="6.1389">
        <ele>1065</ele>
        <time>2024-02-02T17:04:13Z</time>
      </trkpt>
      <trkpt lat="46.54024" lon="6.13896">
        <ele>1065.5</ele>
        <time>2024-02-02T17:04:22Z</time>
      </trkpt>
      <trkpt lat="46.54033" lon="6.13901">
        <ele>1066.3</ele>
        <time>2024-02-02T17:04:30Z</time>
      </trkpt>
      <trkpt lat="46.54041" lon="6.13909">
        <ele>1066.9</ele>
        <time>2024-02-02T17:04:39Z</time>
      </trkpt>
      <trkpt lat="46.54049" lon="6.13918">
        <ele>1067.3</ele>
        <time>2024-02-02T17:04:47Z</time>
      </trkpt>
      <trkpt lat="46.54056" lon="6.13926">
        <ele>1067.7</ele>
        <time>2024-02-02T17:04:55Z</time>
      </trkpt>
      <trkpt lat="46.54063" lon="6.13936">
        <ele>1067.5</ele>
        <time>2024-02-02T17:05:03Z</time>
      </trkpt>
      <trkpt lat="46.54071" lon="6.13945">
        <ele>1066.9</ele>
        <time>2024-02-02T17:05:10Z</time>
      </trkpt>
      <trkpt lat="46.5408" lon="6.13949">
        <ele>1066.5</ele>
        <time>2024-02-02T17:05:18Z</time>
      </trkpt>
      <trkpt lat="46.5409" lon="6.13951">
        <ele>1066.1</ele>
        <time>2024-02-02T17:05:26Z</time>
      </trkpt>
      <trkpt lat="46.54099" lon="6.13954">
        <ele>1065.6</ele>
        <time>2024-02-02T17:05:33Z</time>
      </trkpt>
      <trkpt lat="46.5411" lon="6.13956">
        <ele>1065.2</ele>
        <time>2024-02-02T17:05:41Z</time>
      </trkpt>
      <trkpt lat="46.54119" lon="6.13958">
        <ele>1065.5</ele>
        <time>2024-02-02T17:05:49Z</time>
      </trkpt>
      <trkpt lat="46.54129" lon="6.13964">
        <ele>1065.4</ele>
        <time>2024-02-02T17:05:57Z</time>
      </trkpt>
      <trkpt lat="46.54138" lon="6.13969">
        <ele>1065.3</ele>
        <time>2024-02-02T17:06:05Z</time>
      </trkpt>
      <trkpt lat="46.54147" lon="6.13969">
        <ele>1065.7</ele>
        <time>2024-02-02T17:06:12Z</time>
      </trkpt>
      <trkpt lat="46.54157" lon="6.13968">
        <ele>1066.3</ele>
        <time>2024-02-02T17:06:20Z</time>
      </trkpt>
      <trkpt lat="46.54167" lon="6.13965">
        <ele>1067.3</ele>
        <time>2024-02-02T17:06:29Z</time>
      </trkpt>
      <trkpt lat="46.54176" lon="6.13962">
        <ele>1068</ele>
        <time>2024-02-02T17:06:38Z</time>
      </trkpt>
      <trkpt lat="46.54186" lon="6.13959">
        <ele>1068.6</ele>
        <time>2024-02-02T17:06:46Z</time>
      </trkpt>
      <trkpt lat="46.54195" lon="6.13959">
        <ele>1069</ele>
        <time>2024-02-02T17:06:55Z</time>
      </trkpt>
      <trkpt lat="46.54204" lon="6.13961">
        <ele>1070.1</ele>
        <time>2024-02-02T17:07:03Z</time>
      </trkpt>
      <trkpt lat="46.54214" lon="6.13966">
        <ele>1070.9</ele>
        <time>2024-02-02T17:07:12Z</time>
      </trkpt>
      <trkpt lat="46.54222" lon="6.13971">
        <ele>1071.3</ele>
        <time>2024-02-02T17:07:22Z</time>
      </trkpt>
      <trkpt lat="46.54231" lon="6.13978">
        <ele>1073.5</ele>
        <time>2024-02-02T17:07:31Z</time>
      </trkpt>
      <trkpt lat="46.54239" lon="6.13986">
        <ele>1075.7</ele>
        <time>2024-02-02T17:07:42Z</time>
      </trkpt>
      <trkpt lat="46.54246" lon="6.13994">
        <ele>1077.3</ele>
        <time>2024-02-02T17:07:52Z</time>
      </trkpt>
      <trkpt lat="46.54254" lon="6.14001">
        <ele>1078.8</ele>
        <time>2024-02-02T17:08:02Z</time>
      </trkpt>
      <trkpt lat="46.54262" lon="6.14008">
        <ele>1079.4</ele>
        <time>2024-02-02T17:08:12Z</time>
      </trkpt>
      <trkpt lat="46.54272" lon="6.14012">
        <ele>1080.6</ele>
        <time>2024-02-02T17:08:22Z</time>
      </trkpt>
      <trkpt lat="46.54281" lon="6.14015">
        <ele>1082.1</ele>
        <time>2024-02-02T17:08:32Z</time>
      </trkpt>
      <trkpt lat="46.54291" lon="6.14016">
        <ele>1084</ele>
        <time>2024-02-02T17:08:43Z</time>
      </trkpt>
      <trkpt lat="46.543" lon="6.14019">
        <ele>1085.3</ele>
        <time>2024-02-02T17:08:54Z</time>
      </trkpt>
      <trkpt lat="46.54308" lon="6.14028">
        <ele>1085.5</ele>
        <time>2024-02-02T17:09:04Z</time>
      </trkpt>
      <trkpt lat="46.54315" lon="6.14035">
        <ele>1086.3</ele>
        <time>2024-02-02T17:09:14Z</time>
      </trkpt>
      <trkpt lat="46.54323" lon="6.14044">
        <ele>1087</ele>
        <time>2024-02-02T17:09:25Z</time>
      </trkpt>
      <trkpt lat="46.5433" lon="6.14053">
        <ele>1088.1</ele>
        <time>2024-02-02T17:09:38Z</time>
      </trkpt>
      <trkpt lat="46.54337" lon="6.14062">
        <ele>1088.8</ele>
        <time>2024-02-02T17:09:54Z</time>
      </trkpt>
      <trkpt lat="46.54346" lon="6.14066">
        <ele>1089.8</ele>
        <time>2024-02-02T17:10:19Z</time>
      </trkpt>
      <trkpt lat="46.54354" lon="6.14071">
        <ele>1090.7</ele>
        <time>2024-02-02T17:10:27Z</time>
      </trkpt>
      <trkpt lat="46.54363" lon="6.14076">
        <ele>1091.6</ele>
        <time>2024-02-02T17:10:37Z</time>
      </trkpt>
      <trkpt lat="46.54372" lon="6.14081">
        <ele>1092</ele>
        <time>2024-02-02T17:10:44Z</time>
      </trkpt>
      <trkpt lat="46.54379" lon="6.14091">
        <ele>1092.2</ele>
        <time>2024-02-02T17:10:52Z</time>
      </trkpt>
      <trkpt lat="46.54388" lon="6.14095">
        <ele>1092.9</ele>
        <time>2024-02-02T17:11:00Z</time>
      </trkpt>
      <trkpt lat="46.54397" lon="6.14099">
        <ele>1093</ele>
        <time>2024-02-02T17:11:08Z</time>
      </trkpt>
      <trkpt lat="46.54405" lon="6.14108">
        <ele>1093</ele>
        <time>2024-02-02T17:11:17Z</time>
      </trkpt>
      <trkpt lat="46.54413" lon="6.14116">
        <ele>1092.8</ele>
        <time>2024-02-02T17:11:26Z</time>
      </trkpt>
      <trkpt lat="46.54422" lon="6.14123">
        <ele>1092.3</ele>
        <time>2024-02-02T17:11:34Z</time>
      </trkpt>
      <trkpt lat="46.54431" lon="6.14128">
        <ele>1091.7</ele>
        <time>2024-02-02T17:11:42Z</time>
      </trkpt>
      <trkpt lat="46.54441" lon="6.14132">
        <ele>1091.2</ele>
        <time>2024-02-02T17:11:49Z</time>
      </trkpt>
      <trkpt lat="46.54449" lon="6.14136">
        <ele>1090.7</ele>
        <time>2024-02-02T17:11:57Z</time>
      </trkpt>
      <trkpt lat="46.54458" lon="6.14143">
        <ele>1089.8</ele>
        <time>2024-02-02T17:12:05Z</time>
      </trkpt>
      <trkpt lat="46.54468" lon="6.14147">
        <ele>1089</ele>
        <time>2024-02-02T17:12:13Z</time>
      </trkpt>
      <trkpt lat="46.54477" lon="6.14153">
        <ele>1088.7</ele>
        <time>2024-02-02T17:12:21Z</time>
      </trkpt>
      <trkpt lat="46.54486" lon="6.1416">
        <ele>1088.9</ele>
        <time>2024-02-02T17:12:29Z</time>
      </trkpt>
      <trkpt lat="46.54495" lon="6.14164">
        <ele>1089</ele>
        <time>2024-02-02T17:12:38Z</time>
      </trkpt>
      <trkpt lat="46.54504" lon="6.14169">
        <ele>1089.1</ele>
        <time>2024-02-02T17:12:45Z</time>
      </trkpt>
      <trkpt lat="46.54513" lon="6.14173">
        <ele>1089.7</ele>
        <time>2024-02-02T17:12:52Z</time>
      </trkpt>
      <trkpt lat="46.54521" lon="6.1418">
        <ele>1089.9</ele>
        <time>2024-02-02T17:13:00Z</time>
      </trkpt>
      <trkpt lat="46.54529" lon="6.14186">
        <ele>1090.1</ele>
        <time>2024-02-02T17:13:08Z</time>
      </trkpt>
      <trkpt lat="46.54537" lon="6.14194">
        <ele>1090.4</ele>
        <time>2024-02-02T17:13:16Z</time>
      </trkpt>
      <trkpt lat="46.54545" lon="6.14202">
        <ele>1090.8</ele>
        <time>2024-02-02T17:13:25Z</time>
      </trkpt>
      <trkpt lat="46.54553" lon="6.14207">
        <ele>1091.3</ele>
        <time>2024-02-02T17:13:33Z</time>
      </trkpt>
      <trkpt lat="46.54562" lon="6.14214">
        <ele>1091.5</ele>
        <time>2024-02-02T17:13:42Z</time>
      </trkpt>
      <trkpt lat="46.54572" lon="6.14219">
        <ele>1091.7</ele>
        <time>2024-02-02T17:13:50Z</time>
      </trkpt>
      <trkpt lat="46.54581" lon="6.14225">
        <ele>1091.6</ele>
        <time>2024-02-02T17:13:58Z</time>
      </trkpt>
      <trkpt lat="46.54589" lon="6.14233">
        <ele>1092.3</ele>
        <time>2024-02-02T17:14:07Z</time>
      </trkpt>
      <trkpt lat="46.54597" lon="6.14241">
        <ele>1093.1</ele>
        <time>2024-02-02T17:14:16Z</time>
      </trkpt>
      <trkpt lat="46.54605" lon="6.14248">
        <ele>1094.1</ele>
        <time>2024-02-02T17:14:26Z</time>
      </trkpt>
      <trkpt lat="46.54614" lon="6.14253">
        <ele>1094.8</ele>
        <time>2024-02-02T17:14:35Z</time>
      </trkpt>
      <trkpt lat="46.54622" lon="6.14257">
        <ele>1094.9</ele>
        <time>2024-02-02T17:14:44Z</time>
      </trkpt>
      <trkpt lat="46.54632" lon="6.14263">
        <ele>1095.1</ele>
        <time>2024-02-02T17:14:53Z</time>
      </trkpt>
      <trkpt lat="46.54641" lon="6.14268">
        <ele>1095.6</ele>
        <time>2024-02-02T17:15:01Z</time>
      </trkpt>
      <trkpt lat="46.54649" lon="6.14274">
        <ele>1096.3</ele>
        <time>2024-02-02T17:15:10Z</time>
      </trkpt>
      <trkpt lat="46.54658" lon="6.1428">
        <ele>1096.8</ele>
        <time>2024-02-02T17:15:18Z</time>
      </trkpt>
      <trkpt lat="46.54666" lon="6.14286">
        <ele>1097.3</ele>
        <time>2024-02-02T17:15:27Z</time>
      </trkpt>
      <trkpt lat="46.54674" lon="6.14293">
        <ele>1097.4</ele>
        <time>2024-02-02T17:15:35Z</time>
      </trkpt>
      <trkpt lat="46.54681" lon="6.14302">
        <ele>1097.3</ele>
        <time>2024-02-02T17:15:43Z</time>
      </trkpt>
      <trkpt lat="46.54689" lon="6.1431">
        <ele>1097</ele>
        <time>2024-02-02T17:15:50Z</time>
      </trkpt>
      <trkpt lat="46.54697" lon="6.14319">
        <ele>1096.2</ele>
        <time>2024-02-02T17:15:57Z</time>
      </trkpt>
      <trkpt lat="46.54704" lon="6.14329">
        <ele>1095.5</ele>
        <time>2024-02-02T17:16:04Z</time>
      </trkpt>
      <trkpt lat="46.54711" lon="6.14339">
        <ele>1094.6</ele>
        <time>2024-02-02T17:16:11Z</time>
      </trkpt>
      <trkpt lat="46.54719" lon="6.14347">
        <ele>1093.8</ele>
        <time>2024-02-02T17:16:19Z</time>
      </trkpt>
      <trkpt lat="46.54727" lon="6.14351">
        <ele>1093.1</ele>
        <time>2024-02-02T17:16:25Z</time>
      </trkpt>
      <trkpt lat="46.54736" lon="6.14356">
        <ele>1091.9</ele>
        <time>2024-02-02T17:16:32Z</time>
      </trkpt>
      <trkpt lat="46.54745" lon="6.1436">
        <ele>1091.2</ele>
        <time>2024-02-02T17:16:39Z</time>
      </trkpt>
      <trkpt lat="46.54755" lon="6.14366">
        <ele>1091.3</ele>
        <time>2024-02-02T17:16:46Z</time>
      </trkpt>
      <trkpt lat="46.54762" lon="6.14377">
        <ele>1091.3</ele>
        <time>2024-02-02T17:16:53Z</time>
      </trkpt>
      <trkpt lat="46.54767" lon="6.1439">
        <ele>1090.5</ele>
        <time>2024-02-02T17:17:02Z</time>
      </trkpt>
      <trkpt lat="46.5477" lon="6.14403">
        <ele>1089.1</ele>
        <time>2024-02-02T17:17:08Z</time>
      </trkpt>
      <trkpt lat="46.54775" lon="6.14416">
        <ele>1088.5</ele>
        <time>2024-02-02T17:17:15Z</time>
      </trkpt>
      <trkpt lat="46.54782" lon="6.14426">
        <ele>1088.8</ele>
        <time>2024-02-02T17:17:23Z</time>
      </trkpt>
      <trkpt lat="46.54789" lon="6.14436">
        <ele>1088.5</ele>
        <time>2024-02-02T17:17:31Z</time>
      </trkpt>
      <trkpt lat="46.54794" lon="6.14448">
        <ele>1087.8</ele>
        <time>2024-02-02T17:17:39Z</time>
      </trkpt>
      <trkpt lat="46.548" lon="6.1446">
        <ele>1087.3</ele>
        <time>2024-02-02T17:17:46Z</time>
      </trkpt>
      <trkpt lat="46.54806" lon="6.14471">
        <ele>1087.1</ele>
        <time>2024-02-02T17:17:54Z</time>
      </trkpt>
      <trkpt lat="46.54813" lon="6.14482">
        <ele>1085.5</ele>
        <time>2024-02-02T17:18:01Z</time>
      </trkpt>
      <trkpt lat="46.54819" lon="6.14491">
        <ele>1084.3</ele>
        <time>2024-02-02T17:18:09Z</time>
      </trkpt>
      <trkpt lat="46.54828" lon="6.14498">
        <ele>1083.8</ele>
        <time>2024-02-02T17:18:18Z</time>
      </trkpt>
      <trkpt lat="46.54836" lon="6.14504">
        <ele>1083.7</ele>
        <time>2024-02-02T17:18:24Z</time>
      </trkpt>
      <trkpt lat="46.54845" lon="6.14509">
        <ele>1083.4</ele>
        <time>2024-02-02T17:18:31Z</time>
      </trkpt>
      <trkpt lat="46.54852" lon="6.14517">
        <ele>1082.5</ele>
        <time>2024-02-02T17:18:39Z</time>
      </trkpt>
      <trkpt lat="46.54849" lon="6.1453">
        <ele>1080.4</ele>
        <time>2024-02-02T17:18:47Z</time>
      </trkpt>
      <trkpt lat="46.54839" lon="6.14531">
        <ele>1079.9</ele>
        <time>2024-02-02T17:18:54Z</time>
      </trkpt>
      <trkpt lat="46.5483" lon="6.14528">
        <ele>1080</ele>
        <time>2024-02-02T17:19:01Z</time>
      </trkpt>
      <trkpt lat="46.54821" lon="6.14521">
        <ele>1080.7</ele>
        <time>2024-02-02T17:19:09Z</time>
      </trkpt>
      <trkpt lat="46.54812" lon="6.14518">
        <ele>1080.6</ele>
        <time>2024-02-02T17:19:17Z</time>
      </trkpt>
    </trkseg>
  </trk>
</gpx>